[[{"header":{"parameterUnit":"m.s-1","parameterCategory":1,"la1":31.0,"la2":29.5877,"lo1":-88.7671,"lo2":-86.6584,"dy":0.0162,"dx":0.0185,"nx":115,"ny":88,"refTime":"2026-05-11T12:00:00:Z","depth":0,"parameterNumber":2,"parameterNumberName":"U-component_of_WINDS"},"data":[0.0,0.0,0.0,0.0,0.0,0.0,0.0,0.0,0.0,0.0,0.0,0.0,0.0,0.0,0.0,0.0,0.0,0.0,0.0,0.0,0.0,0.0,0.0,0.0,0.0,0.0,0.0,0.0,0.0,0.0,0.0,0.0,0.0,0.0,0.0,0.0,0.0,0.0,0.0,0.0,0.0,0.0,0.0,0.0,0.0,0.0,0.0,0.0,0.0,0.0,0.0,0.0,0.0,0.0,0.0,0.0,0.0,0.0,0.0,0.0,0.0,0.0,0.0,0.0,0.0,0.0,0.0,0.0,0.0,0.0,0.0,0.0,0.0,0.0,0.0,0.0,0.0,0.0,0.0,0.0,0.0,0.0,0.0,0.0,0.0,0.0,0.0,0.0,0.0,0.0,0.0,0.0,0.0,0.0,0.0,0.0,0.0,0.0,0.0,0.0,0.0,0.0,0.0,0.0,0.0,0.0,0.0,0.0,0.0,0.0,0.0,0.0,0.0,0.0,0.0,0.0,0.0,0.0,0.0,0.0,0.0,0.0,0.0,0.0,0.0,0.0,0.0,0.0,0.0,0.0,0.0,0.0,0.0,0.0,0.0,0.0,0.0,0.0,0.0,0.0,0.0,0.0,0.0,0.0,0.0,0.0,0.0,0.0,0.0,0.0,0.0,0.0,0.0,0.0,0.0,0.0,0.0,0.0,0.0,0.0,0.0,0.0,0.0,0.0,0.0,0.0,0.0,0.0,0.0,0.0,0.0,0.0,0.0,0.0,0.0,0.0,0.0,0.0,0.0,0.0,0.0,0.0,0.0,0.0,0.0,0.0,0.0,0.0,0.0,0.0,0.0,0.0,0.0,0.0,0.0,0.0,0.0,0.0,0.0,0.0,0.0,0.0,0.0,0.0,0.0,0.0,0.0,0.0,0.0,0.0,0.0,0.0,0.0,0.0,0.0,0.0,0.0,0.0,0.0,0.0,0.0,0.0,0.0,0.0,0.0,0.0,0.0,0.0,0.0,0.0,0.0,0.0,0.0,0.0,0.0,0.0,0.0,0.0,0.0,0.0,0.0,0.0,0.0,0.0,0.0,0.0,0.0,0.0,0.0,0.0,0.0,0.0,0.0,0.0,0.0,0.0,0.0,0.0,0.0,0.0,0.0,0.0,0.0,0.0,0.0,0.0,0.0,0.0,0.0,0.0,0.0,0.0,0.0,0.0,0.0,0.0,0.0,0.0,0.0,0.0,0.0,0.0,0.0,0.0,0.0,0.0,0.0,0.0,0.0,0.0,0.0,0.0,0.0,0.0,0.0,0.0,0.0,0.0,0.0,0.0,0.0,0.0,0.0,0.0,0.0,0.0,0.0,0.0,0.0,0.0,0.0,0.0,0.0,0.0,0.0,0.0,0.0,0.0,0.0,0.0,0.0,0.0,0.0,0.0,0.0,0.0,0.0,0.0,0.0,0.0,0.0,0.0,0.0,0.0,0.0,0.0,0.0,0.0,0.0,0.0,0.0,0.0,0.0,0.0,0.0,0.0,0.0,0.0,0.0,0.0,0.0,0.0,0.0,0.0,0.0,0.0,0.0,0.0,0.0,0.0,0.0,0.0,0.0,0.0,0.0,0.0,0.0,0.0,0.0,0.0,0.0,0.0,0.0,0.0,0.0,0.0,0.0,0.0,0.0,0.0,0.0,0.0,0.0,0.0,0.0,0.0,0.0,0.0,0.0,0.0,0.0,0.0,0.0,0.0,0.0,0.0,0.0,0.0,0.0,0.0,0.0,0.0,0.0,0.0,0.0,0.0,0.0,0.0,0.0,0.0,0.0,0.0,0.0,0.0,0.0,0.0,0.0,0.0,0.0,0.0,0.0,0.0,0.0,0.0,0.0,0.0,0.0,0.0,0.0,0.0,0.0,0.0,0.0,0.0,0.0,0.0,0.0,0.0,0.0,0.0,0.0,0.0,0.0,0.0,0.0,0.0,0.0,0.0,0.0,0.0,0.0,0.0,0.0,0.0,0.0,0.0,0.0,0.0,0.0,0.0,0.0,0.0,0.0,0.0,0.0,0.0,0.0,0.0,0.0,0.0,0.0,0.0,0.0,0.0,0.0,0.0,0.0,0.0,0.0,0.0,0.0,0.0,0.0,0.0,0.0,0.0,0.0,0.0,0.0,0.0,0.0,0.0,0.0,0.0,0.0,0.0,0.0,0.0,0.0,0.0,0.0,0.0,0.0,0.0,0.0,0.0,0.0,0.0,0.0,0.0,0.0,0.0,0.0,0.0,0.0,0.0,0.0,0.0,0.0,0.0,0.0,0.0,0.0,0.0,0.0,0.0,0.0,0.0,0.0,0.0,0.0,0.0,0.0,0.0,0.0,0.0,0.0,0.0,0.0,0.0,0.0,0.0,0.0,0.0,0.0,0.0,0.0,0.0,0.0,0.0,0.0,0.0,0.0,0.0,0.0,0.0,0.0,0.0,0.0,0.0,0.0,0.0,0.0,0.0,0.0,0.0,0.0,0.0,0.0,0.0,0.0,0.0,0.0,0.0,0.0,0.0,0.0,0.0,0.0,0.0,0.0,0.0,0.0,0.0,0.0,0.0,0.0,0.0,0.0,0.0,0.0,0.0,0.0,0.0,0.0,0.0,0.0,0.0,0.0,0.0,0.0,0.0,0.0,0.0,0.0,0.0,0.0,0.0,0.0,0.0,0.0,0.0,0.0,0.0,0.0,0.0,0.0,0.0,0.0,0.0,0.0,0.0,0.0,0.0,0.0,0.0,0.0,0.0,0.0,0.0,0.0,0.0,0.0,0.0,0.0,0.0,0.0,0.0,0.0,0.0,0.0,0.0,0.0,0.0,0.0,0.0,0.0,0.0,0.0,0.0,0.0,0.0,0.0,0.0,0.0,0.0,0.0,0.0,0.0,0.0,0.0,0.0,0.0,0.0,0.0,0.0,0.0,0.0,0.0,0.0,0.0,0.0,0.0,0.0,0.0,0.0,0.0,0.0,0.0,0.0,0.0,0.0,0.0,0.0,0.0,0.0,0.0,0.0,0.0,0.0,0.0,0.0,0.0,0.0,0.0,0.0,0.0,0.0,0.0,0.0,0.0,0.0,0.0,0.0,0.0,0.0,0.0,0.0,0.0,0.0,0.0,0.0,0.0,0.0,0.0,0.0,0.0,0.0,0.0,0.0,0.0,0.0,0.0,0.0,0.0,0.0,0.0,0.0,0.0,0.0,0.0,0.0,0.0,0.0,0.0,0.0,0.0,0.0,0.0,0.0,0.0,0.0,0.0,0.0,0.0,0.0,0.0,0.0,0.0,0.0,0.0,0.0,0.0,0.0,0.0,0.0,0.0,0.0,0.0,0.0,0.0,0.0,0.0,0.0,0.0,0.0,0.0,0.0,0.0,0.0,0.0,0.0,0.0,0.0,0.0,0.0,0.0,0.0,0.0,0.0,0.0,0.0,0.0,0.0,0.0,0.0,0.0,0.0,0.0,0.0,0.0,0.0,0.0,0.0,0.0,0.0,0.0,0.0,0.0,0.0,0.0,0.0,0.0,0.0,0.0,0.0,0.0,0.0,0.0,0.0,0.0,0.0,0.0,0.0,0.0,0.0,0.0,0.0,0.0,0.0,0.0,0.0,0.0,0.0,0.0,0.0,0.0,0.0,0.0,0.0,0.0,0.0,0.0,0.0,0.0,0.0,0.0,0.0,0.0,0.0,0.0,0.0,0.0,0.0,0.0,0.0,0.0,0.0,0.0,0.0,0.0,0.0,0.0,0.0,0.0,0.0,0.0,0.0,0.0,0.0,0.0,0.0,0.0,0.0,0.0,0.0,0.0,0.0,0.0,0.0,0.0,0.0,0.0,0.0,0.0,0.0,0.0,0.0,0.0,0.0,0.0,0.0,0.0,0.0,0.0,0.0,0.0,0.0,0.0,0.0,0.0,0.0,0.0,0.0,0.0,0.0,0.0,0.0,0.0,0.0,0.0,0.0,0.0,0.0,0.0,0.0,0.0,0.0,0.0,0.0,0.0,0.0,0.0,0.0,0.0,0.0,0.0,0.0,0.0,0.0,0.0,0.0,0.0,0.0,0.0,0.0,0.0,0.0,0.0,0.0,0.0,0.0,0.0,0.0,0.0,0.0,0.0,0.0,0.0,0.0,0.0,0.0,0.0,0.0,0.0,0.0,0.0,0.0,0.0,0.0,0.0,0.0,0.0,0.0,0.0,0.0,0.0,0.0,0.0,0.0,0.0,0.0,0.0,0.0,0.0,0.0,1.255,0.0,0.0,0.0,0.0,0.0,0.0,0.0,0.0,0.0,0.0,0.0,0.0,0.0,0.0,0.0,0.0,0.0,0.0,0.0,0.0,0.0,0.0,0.0,0.0,0.0,0.0,0.0,0.0,0.0,0.0,0.0,0.0,0.0,0.0,0.0,0.0,0.0,0.0,0.0,0.0,0.0,0.0,0.0,0.0,0.0,0.0,0.0,0.0,0.0,0.0,0.0,0.0,0.0,0.0,0.0,0.0,0.0,0.0,0.0,0.0,0.0,0.0,0.0,0.0,0.0,0.0,0.0,0.0,0.0,0.0,0.0,0.0,0.0,0.0,0.0,0.0,0.0,0.0,0.0,0.0,0.0,0.0,0.0,0.0,0.0,0.0,0.0,0.0,0.0,0.0,0.0,0.0,0.0,0.0,0.0,0.0,0.0,0.0,0.0,0.0,0.0,0.0,0.0,0.0,0.0,0.0,0.0,0.0,0.0,0.0,1.478,1.4547,1.4525,1.3893,1.2562,0.0,0.0,0.0,0.0,0.0,0.0,0.0,0.0,0.0,0.0,0.0,0.0,0.0,0.0,0.0,0.0,0.0,0.0,0.0,0.0,0.0,0.0,0.0,0.0,0.0,0.0,0.0,0.0,0.0,0.0,0.0,0.0,0.0,0.0,0.0,0.0,0.0,0.0,0.0,0.0,0.0,0.0,0.0,0.0,0.0,0.0,0.0,0.0,0.0,0.0,0.0,0.0,0.0,0.0,0.0,0.0,0.0,0.0,0.0,0.0,0.0,0.0,0.0,0.0,0.0,0.0,0.0,0.0,0.0,0.0,0.0,0.0,0.0,0.0,0.0,0.0,0.0,0.0,0.0,0.0,0.0,0.0,0.0,0.0,0.0,0.0,0.0,0.0,0.0,0.0,0.0,0.0,0.0,0.0,0.0,0.0,0.0,0.0,0.0,0.0,0.0,0.0,0.0,0.0,0.0,0.0,0.0,0.0,0.0,0.0,0.0,0.0,1.5072,1.434,1.2784,0.0,0.0,0.0,0.0,0.0,0.0,0.0,0.0,0.0,0.0,0.0,0.0,0.0,0.0,0.0,0.0,0.0,0.0,0.0,0.0,0.0,0.0,0.0,0.0,0.0,0.0,0.0,0.0,0.0,0.0,0.0,0.0,0.0,0.0,0.0,0.0,0.0,0.0,0.0,0.0,0.0,0.0,0.0,0.0,0.0,0.0,0.0,0.0,0.0,0.0,0.0,0.0,0.0,0.0,0.0,0.0,0.0,0.0,0.0,0.0,0.0,0.0,0.0,0.0,0.0,0.0,0.0,0.0,0.0,0.0,0.0,0.0,0.0,0.0,0.0,0.0,0.0,0.0,0.0,0.0,0.0,0.0,0.0,0.0,0.0,0.0,0.0,0.0,0.0,0.0,0.0,0.0,0.0,0.0,0.0,0.0,0.0,0.0,0.0,0.0,0.0,0.0,0.0,0.0,0.0,0.0,0.0,0.0,0.0,0.0,1.4626,1.559,1.5628,0.0,1.3404,0.0,0.0,0.0,0.0,0.0,0.0,0.0,0.0,0.0,0.0,0.0,0.0,0.0,0.0,0.0,0.0,0.0,0.0,0.0,0.0,0.0,0.0,0.0,0.0,0.0,0.0,0.0,0.0,0.0,0.0,0.0,0.0,0.0,0.0,0.0,0.0,0.0,0.0,0.0,0.0,0.0,0.0,0.0,0.0,0.0,0.0,0.0,0.0,0.0,0.0,0.0,0.0,0.0,0.0,0.0,0.0,0.0,0.0,0.0,0.0,0.0,0.0,0.0,0.0,0.0,0.0,0.0,0.0,0.0,0.0,0.0,0.0,0.0,0.0,0.0,0.0,0.0,0.0,0.0,0.0,0.0,0.0,0.0,0.0,0.0,0.0,0.0,0.0,0.0,0.0,0.0,0.0,0.0,0.0,0.0,0.0,0.0,0.0,0.0,0.0,0.0,0.0,0.0,0.0,0.0,0.0,0.0,0.0,0.0,0.0,1.5248,1.5693,1.5399,1.4496,0.0,0.0,0.0,0.0,0.0,0.0,0.0,0.0,0.0,0.0,0.0,0.0,0.0,0.0,0.0,0.0,0.0,0.0,0.0,0.0,0.0,0.0,0.0,0.0,0.0,0.0,0.0,0.0,0.0,0.0,0.0,0.0,0.0,0.0,0.0,0.0,0.0,0.0,0.0,0.0,0.0,0.0,0.0,0.0,0.0,0.0,0.0,0.0,0.0,0.0,0.0,0.0,0.0,0.0,0.0,0.0,0.0,0.0,0.0,0.0,0.0,0.0,0.0,0.0,0.0,0.0,0.0,0.0,0.0,0.0,0.0,0.0,0.0,0.0,0.0,0.0,0.0,0.0,0.0,0.0,0.0,0.0,0.0,0.0,0.0,0.0,0.0,0.0,0.0,0.0,0.0,0.0,0.0,0.0,0.0,0.0,0.0,0.0,0.0,0.0,0.0,0.0,0.0,0.0,0.0,0.0,0.0,0.0,0.0,0.0,1.5248,1.5615,1.5881,1.5261,1.425,1.2874,0.0,0.0,0.0,0.0,0.0,0.0,0.0,0.0,0.0,0.0,0.0,0.0,0.0,0.0,0.0,0.0,0.0,0.0,0.0,0.0,0.0,0.0,0.0,0.0,0.0,0.0,0.0,0.0,0.0,0.0,0.0,0.0,0.0,0.0,0.0,0.0,0.0,0.0,0.0,0.0,0.0,0.0,0.0,0.0,0.0,0.0,0.0,0.0,0.0,0.0,0.0,0.0,0.0,0.0,0.0,0.0,0.0,0.0,0.0,0.0,0.0,0.0,0.0,0.0,0.0,0.0,0.0,0.0,0.0,0.0,0.0,0.0,0.0,0.0,0.0,0.0,0.0,0.0,0.0,0.0,0.0,0.0,0.0,0.0,0.0,0.0,0.0,0.0,0.0,0.0,0.0,0.0,0.0,0.0,0.0,0.0,0.0,0.0,0.0,0.0,0.0,0.0,0.0,0.0,0.0,0.0,0.0,0.0,0.0,1.5427,1.5439,1.6398,1.5452,1.4411,0.0,0.0,0.0,0.0,0.0,0.0,0.0,0.0,0.0,0.0,0.0,0.0,0.0,0.0,0.0,0.0,0.0,0.0,0.0,0.0,0.0,0.0,0.0,0.0,0.0,0.0,0.0,0.0,0.0,0.0,0.0,0.0,0.0,0.0,0.0,0.0,0.0,0.0,0.0,0.0,0.0,0.0,0.0,0.0,0.0,0.0,0.0,0.0,0.0,0.0,0.0,0.0,0.0,0.0,0.0,0.0,0.0,0.0,0.0,0.0,0.0,0.0,0.0,0.0,0.0,0.0,0.0,0.0,0.0,0.0,0.0,0.0,0.0,0.0,0.0,0.0,0.0,0.0,0.0,0.0,0.0,0.0,0.0,0.0,0.0,0.0,0.0,0.0,0.0,0.0,0.0,0.0,0.0,0.0,0.0,0.0,0.0,0.0,0.0,0.0,0.0,0.0,0.0,0.0,0.0,0.0,0.0,0.0,0.0,1.4347,1.4723,1.5402,1.6412,1.5465,1.4423,0.0,0.0,0.0,0.0,0.0,0.0,0.0,0.0,0.0,0.0,0.0,0.0,0.0,0.0,0.0,0.0,0.0,0.0,0.0,0.0,0.0,0.0,0.0,0.0,0.0,0.0,0.0,0.0,0.0,0.0,0.0,0.0,0.0,0.0,0.0,0.0,0.0,0.0,0.0,0.0,0.0,0.0,0.0,0.0,0.0,0.0,0.0,0.0,0.0,0.0,0.0,0.0,0.0,0.0,0.0,0.0,0.0,0.0,0.0,0.0,0.0,0.0,0.0,0.0,0.0,0.0,0.0,0.0,0.0,0.0,0.0,0.0,0.0,0.0,0.0,0.0,0.0,0.0,0.0,0.0,0.0,0.0,0.0,0.0,0.0,0.0,0.0,0.0,0.0,0.0,0.0,0.0,0.0,0.0,0.0,0.0,0.0,0.0,0.0,0.0,0.0,0.0,0.0,0.0,0.0,0.0,0.0,0.0,0.0,1.4259,0.0,1.5967,0.0,1.5465,1.4352,0.0,0.0,0.0,0.0,0.0,0.0,0.0,0.0,0.0,0.0,0.0,0.0,0.0,0.0,0.0,0.0,0.0,0.0,0.0,0.0,0.0,0.0,0.0,0.0,0.0,0.0,0.0,0.0,0.0,0.0,0.0,0.0,0.0,0.0,0.0,0.0,0.0,0.0,0.0,0.0,0.0,0.0,0.0,0.0,0.0,0.0,0.0,0.0,0.0,0.0,0.0,0.0,0.0,0.0,0.0,0.0,0.0,0.0,0.0,0.0,0.0,0.0,0.0,0.0,0.0,0.0,0.0,0.0,0.0,0.0,0.0,0.0,0.0,0.0,0.0,0.0,0.0,0.0,0.0,0.0,0.0,0.0,0.0,0.0,0.0,0.0,0.0,0.0,0.0,0.0,0.0,0.0,0.0,0.0,0.0,0.0,0.0,0.0,0.0,0.0,0.0,0.0,0.0,0.0,0.0,0.0,0.0,0.0,1.4284,1.6325,1.6961,1.6974,1.6511,1.5439,1.4143,0.0,0.0,0.0,0.0,0.0,0.0,0.0,0.0,0.0,0.0,0.0,0.0,0.0,0.0,0.0,0.0,0.0,0.0,0.0,0.0,0.0,0.0,0.0,0.0,0.0,0.0,0.0,0.0,0.0,0.0,0.0,0.0,0.0,0.0,0.0,0.0,0.0,0.0,0.0,0.0,0.0,0.0,0.0,0.0,0.0,0.0,0.0,0.0,0.0,0.0,0.0,0.0,0.0,0.0,0.0,0.0,0.0,0.0,0.0,0.0,0.0,0.0,0.0,0.0,0.0,0.0,0.0,0.0,0.0,0.0,0.0,0.0,0.0,0.0,0.0,0.0,0.0,0.0,0.0,0.0,0.0,0.0,0.0,0.0,0.0,0.0,0.0,0.0,0.0,0.0,0.0,0.0,0.0,0.0,0.0,0.0,0.0,0.0,0.0,0.0,0.0,0.0,0.0,0.0,0.0,0.0,0.0,0.0,0.0,1.4881,1.5741,1.6319,1.6437,1.5097,1.4318,0.0,0.0,0.0,0.0,0.0,0.0,0.0,0.0,0.0,0.0,0.0,0.0,0.0,0.0,0.0,0.0,0.0,0.0,0.0,0.0,0.0,0.0,0.0,0.0,0.0,0.0,0.0,0.0,0.0,0.0,0.0,0.0,0.0,0.0,0.0,0.0,0.0,0.0,0.0,0.0,0.0,0.0,0.0,0.0,0.0,0.0,0.0,0.0,0.0,0.0,0.0,0.0,0.0,0.0,0.0,0.0,0.0,0.0,0.0,0.0,0.0,0.0,0.0,0.0,0.0,0.0,0.0,0.0,0.0,0.0,0.0,0.0,0.0,0.0,0.0,0.0,0.0,0.0,0.0,0.0,0.0,0.0,0.0,0.0,0.0,0.0,0.0,0.0,0.0,0.0,0.0,0.0,0.0,0.0,0.0,0.0,0.0,0.0,0.0,0.0,0.0,0.0,0.0,0.0,0.0,0.0,0.0,0.0,0.0,1.5407,1.6382,1.6887,1.6848,1.5651,1.4892,1.4653,0.0,0.0,0.0,0.0,0.0,0.0,0.0,0.0,0.0,0.0,0.0,0.0,0.0,0.0,0.0,0.0,0.0,0.0,0.0,0.0,0.0,0.0,0.0,0.0,0.0,0.0,0.0,0.0,0.0,0.0,0.0,0.0,0.0,0.0,0.0,0.0,0.0,0.0,0.0,0.0,0.0,0.0,0.0,0.0,0.0,0.0,0.0,0.0,0.0,0.0,0.0,0.0,0.0,0.0,0.0,0.0,0.0,0.0,0.0,0.0,0.0,0.0,0.0,0.0,0.0,0.0,0.0,0.0,0.0,0.0,0.0,0.0,0.0,0.0,0.0,0.0,0.0,0.0,0.0,0.0,0.0,0.0,0.0,0.0,0.0,0.0,0.0,0.0,0.0,0.0,0.0,0.0,0.0,0.0,0.0,0.0,0.0,0.0,0.0,0.0,0.0,0.0,0.0,0.0,0.0,0.0,0.0,0.0,1.7525,1.8556,1.8593,1.7575,1.6837,1.5806,0.0,0.0,0.0,0.0,0.0,0.0,0.0,0.0,0.0,0.0,0.0,0.0,0.0,0.0,0.0,0.0,0.0,0.0,0.0,0.0,0.0,0.0,0.0,0.0,0.0,0.0,0.0,0.0,0.0,0.0,0.0,0.0,0.0,0.0,0.0,0.0,0.0,0.0,0.0,0.0,0.0,0.0,0.0,0.0,0.0,0.0,0.0,0.0,0.0,0.0,0.0,0.0,0.0,0.0,0.0,0.0,0.0,0.0,0.0,0.0,0.0,0.0,0.0,0.0,0.0,0.0,0.0,0.0,0.0,0.0,0.0,0.0,0.0,0.0,0.0,0.0,0.0,0.0,0.0,0.0,0.0,0.0,0.0,0.0,0.0,0.0,0.0,0.0,0.0,0.0,0.0,0.0,0.0,0.0,0.0,0.0,0.0,0.0,0.0,0.0,0.0,0.0,0.0,0.0,0.0,0.0,0.0,0.0,0.0,1.9158,1.9874,1.9925,1.9183,1.7439,1.6511,0.0,0.0,0.0,0.0,0.0,0.0,0.0,0.0,0.0,0.0,0.0,0.0,0.0,0.0,0.0,0.0,0.0,0.0,0.0,0.0,0.0,0.0,0.0,0.0,0.0,0.0,0.0,0.0,0.0,0.0,0.0,0.0,0.0,0.0,0.0,0.0,0.0,0.0,0.0,0.0,0.0,0.0,0.0,0.0,0.0,0.0,0.0,0.0,0.0,0.0,0.0,0.0,0.0,0.0,0.0,0.0,0.0,0.0,0.0,0.0,0.0,0.0,0.0,0.0,0.0,0.0,0.0,0.0,0.0,0.0,0.0,0.0,0.0,0.0,0.0,0.0,0.0,0.0,0.0,0.0,0.0,0.0,0.0,0.0,0.0,0.0,0.0,0.0,0.0,0.0,0.0,0.0,0.0,0.0,0.0,0.0,0.0,0.0,0.0,0.0,0.0,0.0,0.0,0.0,0.0,0.0,0.0,0.0,1.8844,2.015,2.0728,2.0866,2.0514,1.8594,1.7365,0.0,0.0,0.0,0.0,0.0,0.0,0.0,0.0,0.0,0.0,0.0,0.0,0.0,0.0,0.0,0.0,0.0,0.0,0.0,0.0,0.0,0.0,0.0,0.0,0.0,0.0,0.0,0.0,0.0,0.0,0.0,0.0,0.0,0.0,0.0,0.0,0.0,0.0,0.0,0.0,0.0,0.0,0.0,0.0,0.0,0.0,0.0,0.0,0.0,0.0,0.0,0.0,0.0,0.0,0.0,0.0,0.0,0.0,0.0,0.0,0.0,0.0,0.0,0.0,0.0,0.0,0.0,0.0,0.0,0.0,0.0,0.0,0.0,0.0,0.0,0.0,0.0,0.0,0.0,0.0,0.0,0.0,0.0,0.0,0.0,0.0,0.0,0.0,0.0,0.0,0.0,0.0,0.0,0.0,0.0,0.0,0.0,0.0,0.0,0.0,0.0,0.0,0.0,0.0,0.0,0.0,0.0,0.0,1.9233,2.0842,2.1331,2.1557,2.1469,1.9923,1.8343,0.0,0.0,0.0,0.0,0.0,0.0,0.0,0.0,0.0,0.0,0.0,0.0,0.0,0.0,0.0,0.0,0.0,0.0,0.0,0.0,0.0,0.0,0.0,0.0,0.0,0.0,0.0,0.0,0.0,0.0,0.0,0.0,0.0,0.0,0.0,0.0,0.0,0.0,0.0,0.0,0.0,0.0,0.0,0.0,0.0,0.0,0.0,0.0,0.0,0.0,0.0,0.0,0.0,0.0,0.0,0.0,0.0,0.0,0.0,0.0,0.0,0.0,0.0,0.0,0.0,0.0,0.0,0.0,0.0,0.0,0.0,0.0,0.0,0.0,0.0,0.0,0.0,0.0,0.0,0.0,0.0,0.0,0.0,0.0,0.0,0.0,0.0,0.0,0.0,0.0,0.0,0.0,0.0,0.0,0.0,0.0,0.0,0.0,0.0,0.0,0.0,0.0,0.0,0.0,0.0,0.0,0.0,0.0,2.0753,2.192,2.2071,2.1933,2.1493,2.0288,1.9058,0.0,0.0,0.0,0.0,0.0,0.0,0.0,0.0,0.0,0.0,0.0,0.0,0.0,0.0,0.0,0.0,0.0,0.0,0.0,0.0,0.0,0.0,0.0,0.0,0.0,0.0,0.0,0.0,0.0,0.0,0.0,0.0,0.0,0.0,0.0,0.0,0.0,0.0,0.0,0.0,0.0,0.0,0.0,0.0,0.0,0.0,0.0,0.0,0.737,0.0,0.0,0.0,0.0,0.0,0.0,0.0,0.0,0.0,0.0,0.0,0.0,0.0,0.0,0.0,0.0,0.0,0.0,0.0,0.0,0.0,0.0,0.0,0.0,0.0,0.0,0.0,0.0,0.0,0.0,0.0,0.0,0.0,0.0,0.0,0.0,0.0,0.0,0.0,0.0,0.0,0.0,0.0,0.0,0.0,0.0,0.0,0.0,0.0,0.0,0.0,0.0,0.0,0.0,0.0,0.0,0.0,0.0,0.0,2.1218,2.2257,2.2558,2.2295,2.1532,2.0903,1.9861,0.0,0.0,0.0,0.0,0.0,0.0,0.0,0.0,0.0,0.0,0.0,0.0,0.0,0.0,0.0,0.0,0.0,0.0,0.0,0.0,0.0,0.0,0.0,0.0,0.0,0.0,0.0,0.0,0.0,0.0,0.0,0.0,0.0,0.0,0.0,0.0,0.0,0.0,0.0,0.0,0.0,0.0,0.0,0.0,0.0,0.0,0.0,0.0,0.0,0.0,0.0,0.0,0.0,0.0,0.0,0.0,0.0,0.0,0.0,0.0,0.0,0.0,0.0,0.0,0.0,0.0,0.0,0.0,0.0,0.0,0.0,0.0,0.0,0.0,0.0,0.0,0.0,0.0,0.0,0.0,0.0,0.0,0.0,0.0,0.0,0.0,0.0,0.0,0.0,0.0,0.0,0.0,0.0,0.0,0.0,0.0,0.0,0.0,0.0,0.0,0.0,0.0,0.0,0.0,0.0,0.0,0.0,2.0053,2.1326,2.2383,2.2857,2.2633,2.1656,2.1531,2.0515,1.8405,0.0,0.0,0.0,0.0,0.0,0.0,0.0,0.0,0.0,0.0,0.0,0.0,0.0,0.0,0.0,0.0,0.0,0.0,0.0,0.0,0.0,0.0,0.0,0.0,0.0,0.0,0.0,0.0,0.0,0.0,0.0,0.0,0.0,0.0,0.0,0.0,0.0,0.0,0.7248,0.8008,0.0,0.0,0.0,0.0,0.0,0.0,0.0,0.0,0.7794,0.0,0.0,0.0,0.0,0.0,0.0,0.0,0.0,0.0,0.0,0.0,0.0,0.0,0.0,0.0,0.0,0.0,0.0,0.0,0.0,0.0,0.0,0.0,0.0,0.0,0.0,0.0,0.0,0.0,0.0,0.0,0.0,0.0,0.0,0.0,0.0,0.0,0.0,0.0,0.0,0.0,0.0,0.0,0.0,0.0,0.0,0.0,0.0,0.0,0.0,0.0,0.0,0.0,0.0,0.0,0.0,2.0265,2.1003,2.1889,2.2935,2.3058,2.2807,2.2196,2.1746,2.0677,1.8945,0.0,0.0,0.0,0.0,0.0,0.0,0.0,0.0,0.0,0.0,0.0,0.0,0.0,0.0,0.0,0.0,0.0,0.0,0.0,0.0,0.0,0.0,0.0,0.0,0.0,0.0,0.0,0.0,0.0,0.0,0.0,0.0,0.0,0.0,0.0,0.0,0.0,0.0,0.0,0.8838,0.9104,0.0,0.0,0.0,0.0,0.0,0.0,0.0,0.0,0.7819,0.0,0.0,0.0,0.0,0.0,0.0,0.0,0.0,0.0,0.0,0.0,0.0,0.0,0.0,0.0,0.0,0.0,0.0,0.0,0.0,0.0,0.0,0.0,0.0,0.0,0.0,0.0,0.0,0.0,0.0,0.0,0.0,0.0,0.0,0.0,0.0,0.0,0.0,0.0,0.0,0.0,0.0,0.0,0.0,0.0,0.0,0.0,0.0,0.0,0.0,0.0,0.0,0.0,0.0,0.0,2.0655,2.1273,2.2222,2.3657,2.332,2.2832,2.2307,2.1493,2.0439,0.0,0.0,0.0,0.0,0.0,0.0,0.0,0.0,0.0,0.0,0.0,0.0,0.0,0.0,0.0,0.0,0.0,0.0,0.0,0.0,0.0,0.0,0.0,0.0,0.0,0.0,0.0,0.0,0.0,0.0,0.0,0.0,0.0,0.0,0.0,0.0,0.0,0.0,0.0,0.0,0.9111,0.9324,0.9638,0.0,0.0,0.0,0.0,0.0,0.0,0.8356,0.8262,0.0,0.0,0.0,0.0,0.0,0.0,0.0,0.0,0.0,0.0,0.0,0.0,0.0,0.0,0.0,0.0,0.0,0.0,0.0,0.0,0.0,0.0,0.0,0.0,0.0,0.0,0.0,0.0,0.0,0.0,0.0,0.0,0.0,0.0,0.0,0.0,0.0,0.0,0.0,0.0,0.0,0.0,0.0,0.0,0.0,0.0,0.0,0.0,0.0,0.0,0.0,0.0,0.0,0.0,0.0,2.0605,2.1322,2.2421,2.3951,2.3424,2.2847,2.2295,2.1356,2.0276,0.0,0.0,0.0,0.0,0.0,0.0,0.0,0.0,0.0,0.0,0.0,0.0,0.0,0.0,0.0,0.0,0.0,0.0,0.0,0.0,0.0,0.0,0.0,0.0,0.0,0.0,0.0,0.0,0.0,0.0,0.0,0.0,0.0,0.0,0.0,0.0,0.0,0.0,0.0,0.0,0.0,0.967,0.9972,0.9486,0.0,0.0,0.0,0.0,0.8764,0.8918,0.0,0.0,0.0,0.0,0.0,0.0,0.0,0.0,0.0,0.0,0.0,0.0,0.0,0.0,0.0,0.0,0.0,0.0,0.0,0.0,0.0,0.0,0.0,0.0,0.0,0.0,0.0,0.0,0.0,0.0,0.0,0.0,0.0,0.0,0.0,0.0,0.0,0.0,0.0,0.0,0.0,0.0,0.0,0.0,0.0,0.0,0.0,0.0,0.0,0.0,0.0,0.0,0.0,0.0,0.0,0.0,1.9902,2.1442,2.2548,2.3182,2.3153,2.2859,2.2307,2.1733,2.0652,0.0,0.0,0.0,0.0,0.0,0.0,0.0,0.0,0.0,0.0,0.0,0.0,0.0,0.0,0.0,0.0,0.0,0.0,0.0,0.0,0.0,0.0,0.0,0.0,0.0,0.0,0.0,0.0,0.0,0.0,0.0,0.0,0.0,0.0,0.0,0.0,0.0,0.0,0.0,0.0,0.0,1.0534,0.9848,0.9866,0.988,0.0,0.0,0.9681,0.9865,0.9932,0.0,0.0,0.0,0.0,0.0,0.0,0.0,0.0,0.0,0.0,0.0,0.0,0.0,0.0,0.0,0.0,0.0,0.0,0.0,0.0,0.0,0.0,0.0,0.0,0.0,0.0,0.0,0.0,0.0,0.0,0.0,0.0,0.0,0.0,0.0,0.0,0.0,0.0,0.0,0.0,0.0,0.0,0.0,0.0,0.0,0.0,0.0,0.0,0.0,0.0,0.0,0.0,0.0,0.0,0.0,1.8364,2.0382,2.1683,2.277,2.3714,2.3348,2.2844,2.2307,2.1481,2.0263,0.0,0.0,0.0,0.0,0.0,0.0,0.0,0.0,0.0,0.0,0.0,0.0,0.0,0.0,0.0,0.0,0.0,0.0,0.0,0.0,0.0,0.0,0.0,0.0,0.0,0.0,0.0,0.0,0.0,0.0,0.0,0.0,0.0,0.0,0.0,0.0,0.0,0.0,0.0,0.0,0.0,0.0,1.0428,1.0394,0.0,0.0,0.0,1.0251,1.037,0.0,0.0,0.0,0.0,0.0,0.0,0.0,0.0,0.0,0.0,0.0,0.0,0.0,0.0,0.0,0.0,0.0,0.0,0.0,0.0,0.0,0.0,0.0,0.0,0.0,0.0,0.0,0.0,0.0,0.0,0.0,0.0,0.0,0.0,0.0,0.0,0.0,0.0,0.0,0.0,0.0,0.0,0.0,0.0,0.0,0.0,0.0,0.0,0.0,0.0,0.0,0.0,0.0,0.0,0.0,0.0,0.0,2.0595,2.1874,2.299,2.3945,2.341,2.2797,2.2121,2.1319,0.0,0.0,0.0,0.0,0.0,0.0,0.0,0.0,0.0,0.0,0.0,0.0,0.0,0.0,0.0,0.0,0.0,0.0,0.0,0.0,0.0,0.0,0.0,0.0,0.0,0.0,0.0,0.5974,0.0,0.0,0.0,0.0,0.0,0.0,0.0,0.0,0.0,0.0,0.0,0.0,0.0,0.0,1.0494,1.0929,1.0945,1.0975,0.0,0.0,1.0878,1.0804,1.0935,1.0754,0.0,0.0,0.0,0.0,0.0,0.0,0.0,0.0,0.0,0.0,0.0,0.0,0.0,0.0,0.0,0.0,0.0,0.0,0.0,0.0,0.0,0.0,0.0,0.0,0.0,0.0,0.0,0.0,0.0,0.0,0.0,0.0,0.0,0.0,0.0,0.0,0.0,0.0,0.0,0.0,0.0,0.0,0.0,0.0,0.0,0.0,0.0,0.0,0.0,0.0,0.0,0.0,0.0,0.0,0.0,1.9888,2.1958,2.3088,2.3183,2.3138,2.2606,2.1581,2.1482,2.0188,0.0,0.0,0.0,0.0,0.0,0.0,0.0,0.0,0.0,0.0,0.0,0.0,0.0,0.0,0.0,0.0,0.0,0.0,0.0,0.0,0.0,0.0,0.0,0.0,0.0,0.0,0.0,0.0,0.0,0.0,0.0,0.0,0.0,0.0,0.0,0.0,0.0,0.0,0.0,0.0,0.0,1.0972,1.0989,1.1467,1.1708,0.0,0.0,1.1708,1.1392,1.1824,1.171,1.0299,0.0,0.0,0.0,0.0,0.0,0.0,0.0,0.0,0.0,0.0,0.0,0.0,0.0,0.0,0.0,0.0,0.0,0.0,0.0,0.0,0.0,0.0,0.0,0.0,0.0,0.0,0.0,0.0,0.0,0.0,0.0,0.0,0.0,0.0,0.0,0.0,0.0,0.0,0.0,0.0,0.0,0.0,0.0,0.0,0.0,0.0,0.0,0.0,0.0,0.0,0.0,0.0,0.0,1.8731,1.9798,2.1967,2.3095,2.3095,2.3095,2.2746,2.2006,2.1656,2.0364,0.0,0.0,0.0,0.0,0.0,0.0,0.0,0.0,0.0,0.0,0.0,0.0,0.0,0.0,0.0,0.0,0.0,0.0,0.0,0.0,0.0,0.0,0.0,0.0,0.0,0.0,0.0,0.0,0.8567,0.8401,0.801,0.0,0.0,0.0,0.0,0.0,0.0,0.0,0.0,0.0,0.0,1.1614,1.1777,1.2169,0.0,0.0,1.2477,1.2409,1.2276,1.2161,1.1741,1.0802,1.0454,0.0,0.0,0.0,0.0,0.0,0.0,0.0,0.0,0.0,0.0,0.0,0.0,0.0,0.0,0.0,0.0,0.0,0.0,0.0,0.0,0.0,0.0,0.0,0.0,0.0,0.0,0.0,0.0,0.0,0.0,0.0,0.0,0.0,0.0,0.0,0.0,0.0,0.0,0.0,0.0,0.0,0.0,0.0,0.0,0.0,0.0,0.0,0.0,0.0,0.0,0.0,0.0,1.8895,1.9798,2.1967,2.3095,2.3095,2.3095,2.2844,2.2307,2.1782,2.0526,0.0,0.0,0.0,0.0,0.0,0.0,0.0,0.0,0.0,0.0,0.0,0.0,0.0,0.0,0.0,0.0,0.0,0.0,0.0,0.0,0.0,0.0,0.0,0.0,0.0,0.0,0.0,0.0,0.954,0.9039,0.8378,0.0,0.0,0.0,0.0,0.0,0.0,0.0,0.0,0.0,0.0,1.2056,1.2505,1.2771,1.3005,1.318,1.2965,1.2784,1.2784,1.2442,1.194,1.1236,0.0,0.0,0.0,0.0,0.0,0.0,0.0,0.0,0.0,0.0,0.0,0.0,0.0,0.0,0.0,0.0,0.0,0.0,0.0,0.0,0.0,0.0,0.0,0.0,0.0,0.0,0.0,1.2601,0.0,0.0,1.1883,0.0,0.0,0.0,0.0,0.0,0.0,0.0,0.0,0.0,0.0,0.0,0.0,0.0,0.0,0.0,0.0,0.0,0.0,0.0,0.0,0.0,0.0,1.9258,1.9836,2.1994,2.3095,2.3095,2.3095,2.2844,2.2332,2.1782,2.0689,1.8995,0.0,0.0,0.0,0.0,0.0,0.0,0.0,0.0,0.0,0.0,0.0,0.0,0.0,0.0,0.0,0.0,0.0,0.0,0.0,0.0,0.0,0.0,0.0,0.0,0.0,0.0,1.062,0.9887,0.9042,0.0,0.0,0.0,0.0,0.0,0.0,0.0,0.0,0.0,0.0,1.1875,1.2216,1.3066,1.3206,1.3227,1.3207,1.3012,1.2797,1.2804,1.2796,1.2469,0.0,0.0,0.0,0.0,0.0,0.0,0.0,0.0,0.0,0.0,0.0,0.0,0.0,0.0,0.0,0.0,0.0,0.0,0.0,0.0,0.0,0.0,0.0,0.0,0.0,0.0,0.0,1.664,1.5822,0.0,0.0,0.0,0.0,0.0,0.0,0.0,0.0,0.0,0.0,0.0,1.8861,2.0631,0.0,0.0,0.0,0.0,0.0,0.0,0.0,0.0,0.0,0.0,0.0,0.0,1.9459,2.044,2.2182,2.3095,2.3095,2.3095,2.302,2.2832,2.2307,2.0916,1.8556,0.0,0.0,0.0,0.0,0.0,0.0,0.0,0.0,0.0,0.0,0.0,0.0,0.0,0.0,0.0,0.0,0.0,0.0,0.0,0.0,0.0,0.0,0.0,0.0,0.0,1.1295,0.0,0.0,0.0,0.0,0.0,0.0,0.0,0.0,0.0,0.0,0.0,1.152,1.2084,1.2672,1.314,1.342,1.3647,1.3815,0.0,0.0,0.0,0.0,0.0,0.0,0.0,0.0,0.0,0.0,0.0,0.0,0.0,0.0,1.1643,1.0008,0.9679,0.9758,1.0075,0.0,0.0,0.0,0.0,0.0,0.0,0.0,0.0,0.0,0.0,0.0,0.0,0.0,0.0,1.9196,0.0,1.8316,0.0,0.0,0.0,0.0,0.0,0.0,0.0,0.0,1.8922,2.0123,2.1065,2.2496,2.2711,0.0,2.1848,2.0603,0.0,0.0,0.0,0.0,0.0,0.0,0.0,0.0,2.0037,2.1006,2.2383,2.3095,2.3095,2.3095,2.3095,2.3083,2.2408,2.0991,1.8832,1.7678,1.641,0.0,0.0,0.0,0.0,0.0,0.0,0.0,0.0,0.0,0.0,0.0,0.0,0.0,0.0,0.0,0.0,0.0,0.0,0.0,0.0,0.0,0.0,0.0,1.2233,0.0,0.0,0.0,0.0,0.0,0.0,0.0,0.0,0.0,1.0891,1.1641,1.2377,1.2852,1.3313,1.3673,1.388,0.0,0.0,0.0,0.0,0.0,0.0,0.0,1.3219,1.3092,1.2845,1.2658,1.2619,1.2885,1.3046,1.2945,0.0,0.0,1.1209,1.0889,1.0962,1.1296,1.1641,1.1917,1.1988,1.2377,1.2604,0.0,0.0,0.0,0.0,0.0,0.0,0.0,0.0,2.1009,2.0731,0.0,2.0068,0.0,0.0,0.0,0.0,0.0,1.7068,0.0,0.0,2.1529,2.3025,2.3577,2.4435,2.4566,2.4067,2.4029,2.3163,2.1495,1.9434,0.0,0.0,0.0,0.0,0.0,0.0,2.1018,2.1556,2.2594,2.3133,2.3145,2.3093,2.3095,2.3083,2.2096,2.0991,1.9861,1.8807,1.7703,1.6561,1.502,0.0,0.0,0.0,0.0,0.0,0.0,0.0,0.0,0.0,0.0,0.0,0.0,0.0,0.0,0.0,0.0,0.0,0.0,0.0,0.0,1.2288,0.0,0.0,0.0,0.0,0.0,0.0,0.0,0.0,0.0,0.0,1.1546,1.2283,1.3146,1.3996,0.0,0.0,0.0,0.0,1.4236,1.4496,1.4295,1.4222,1.4467,1.4289,1.4001,1.3686,0.0,0.0,1.3347,1.348,1.3587,1.3307,1.3514,1.3553,1.328,1.2739,1.2484,1.2783,1.2857,1.2965,1.322,1.3681,1.4056,2.2546,0.0,0.0,0.0,0.0,2.1155,2.2001,2.3764,2.2522,2.177,2.1399,2.0873,0.0,0.0,0.0,0.0,0.0,0.0,2.0296,2.249,2.3131,2.398,2.5012,2.5686,2.5716,2.5146,2.5134,2.4494,2.3288,2.2663,2.0978,1.8343,0.0,0.0,0.0,0.0,2.2108,2.2646,2.3374,2.3738,2.3738,2.3321,2.3095,2.3095,2.2418,2.157,2.0478,1.9736,1.8656,1.72,1.5879,0.0,0.0,0.0,0.0,0.0,0.0,0.0,0.0,0.0,0.0,0.0,0.0,0.0,0.0,0.0,0.0,0.0,0.0,0.0,1.2943,1.1997,1.1419,0.0,0.0,0.0,0.0,0.0,0.0,0.0,0.0,0.0,1.296,1.3393,1.3895,0.0,0.0,1.4563,1.4507,1.4651,1.4765,1.4845,1.4792,0.0,1.4845,1.4589,1.4442,1.4569,1.4685,1.4671,1.4517,1.4551,1.4578,1.4491,1.4551,1.4556,1.4491,1.4148,1.3921,1.4008,1.4196,1.4392,1.4471,1.4631,1.4732,2.3639,2.2538,2.1711,2.2013,2.3012,2.2407,2.3147,2.4715,2.3589,2.3017,2.2896,2.2408,2.1267,1.9726,1.9717,0.0,0.0,0.0,2.275,2.4805,2.5033,2.5647,2.6573,2.6959,2.6947,2.6565,2.6155,2.5615,2.4991,2.4544,2.3198,2.1065,0.0,0.0,2.1481,2.2472,2.3236,2.376,2.4139,2.4217,2.402,2.3411,2.3095,2.3095,2.2583,2.1981,2.1356,2.0577,1.9598,1.8392,1.6787,1.5325,0.0,0.0,0.0,0.0,0.0,0.0,0.0,0.0,0.0,0.0,0.0,1.1555,1.088,0.0,0.0,0.0,1.2416,1.3098,1.3658,1.2624,0.0,0.0,0.0,0.0,0.0,0.0,0.0,1.2559,1.3186,1.3714,1.4115,1.4422,1.4698,1.4843,1.4952,1.4959,1.4877,0.0,1.5048,1.5146,1.516,1.52,1.5307,1.5064,1.493,1.5126,1.516,1.516,1.516,1.516,1.516,1.516,1.516,1.5193,1.5284,1.5157,1.4928,1.4756,1.493,1.5146,1.5153,1.5247,1.5311,2.4481,2.3992,2.3423,2.3514,2.3985,2.3952,2.4252,2.4692,2.4125,2.4161,2.4583,2.4062,2.3321,2.2421,2.1808,0.0,2.2948,2.4131,2.5185,2.619,2.701,2.762,2.8097,2.8109,2.8109,2.8072,2.7097,2.6625,2.6575,2.5573,2.4804,2.4318,2.3738,2.3637,2.3995,2.4079,2.4352,2.4854,2.4867,2.4591,2.4004,2.3446,2.3145,2.3095,2.2621,2.2334,2.2207,2.1281,2.0478,1.976,1.7661,1.6002,1.5016,0.0,0.0,0.0,0.0,0.0,0.0,0.0,0.0,0.0,0.0,0.0,0.0,0.0,0.0,0.0,1.4048,0.0,1.4103,1.3697,0.0,0.0,0.0,1.1202,1.1539,1.2066,1.2639,1.322,0.0,0.0,1.4975,1.5294,1.5464,1.5464,1.524,1.514,1.5387,1.522,1.5153,1.5398,1.5431,1.5518,1.5695,1.5571,1.5411,1.5431,1.5431,1.5431,1.5431,1.5431,1.5431,1.5431,1.5431,1.5504,1.5755,1.5748,1.5665,1.5137,1.5273,1.5424,1.5444,1.5651,1.5801,2.4418,2.4277,2.4159,2.4056,2.3954,2.3575,2.369,2.4101,2.3258,2.2916,2.3028,2.2584,2.2271,2.206,2.2391,2.325,2.4505,2.5585,2.6639,2.7592,2.7818,2.7984,2.8109,2.8109,2.8109,2.8084,2.7833,2.772,2.7726,2.7457,2.7238,2.7105,2.6578,2.5523,2.4092,2.4808,2.5285,2.5394,2.541,2.4929,2.4029,2.3866,2.3574,2.3108,2.2982,2.2533,2.1719,2.1457,2.0841,1.981,1.7926,1.662,1.6035,1.3502,0.0,0.0,0.0,0.0,0.0,0.0,0.0,0.0,0.0,1.3074,1.1714,0.0,1.3366,0.0,1.4045,1.4285,1.4505,1.3242,0.0,0.0,1.2277,1.2062,1.298,1.3194,1.3513,1.4114,1.4701,1.5137,1.5294,1.5738,1.609,1.6083,1.5829,1.5571,1.5431,1.5538,1.5645,1.5675,1.5688,1.5728,1.5781,1.5755,1.5701,1.5701,1.5695,1.5701,1.5678,1.5708,1.5708,1.5708,1.5725,1.5735,1.5808,1.5801,1.5768,1.5628,1.5655,1.5701,1.5732,1.5959,1.6106,2.4707,2.4707,2.473,2.463,2.4454,2.3947,2.3907,2.4129,2.3602,2.3359,2.3318,2.2942,2.2746,2.2824,2.3976,2.4919,2.5763,2.7298,2.8323,2.8863,2.8863,2.8863,2.885,2.8863,2.8863,2.885,2.858,2.8473,2.8442,2.8204,2.8109,2.8097,2.7795,2.7042,2.5875,2.5954,2.6005,2.5992,2.5741,2.5326,2.4732,2.4255,2.37,2.3133,2.3095,2.2608,2.1531,2.1481,2.1105,2.0199,1.841,1.7183,1.6654,1.4466,1.2964,0.0,0.0,0.0,0.0,0.0,0.0,0.0,0.0,0.0,0.0,0.0,1.4136,1.4278,1.4193,1.4193,1.4377,1.3625,1.3281,1.3527,1.3142,1.3173,1.3927,1.4113,1.4402,1.4834,1.5311,1.5638,1.5802,1.6186,1.6466,1.6491,1.6213,1.5972,1.5825,1.5795,1.5801,1.5801,1.5801,1.5801,1.5801,1.5801,1.5801,1.5801,1.5801,1.5801,1.5808,1.5915,1.6025,1.6008,1.6108,1.6195,1.6195,1.6195,1.6202,1.6195,1.6195,1.6142,1.6059,1.629,1.6431,2.518,2.518,2.518,2.517,2.5151,2.4746,2.4498,2.4424,2.4424,2.4424,2.4371,2.4023,2.398,2.421,2.5914,2.6766,2.7035,2.9016,2.9905,2.9892,2.9829,2.9779,2.9779,2.9779,2.9779,2.9767,2.9258,2.9032,2.9007,2.8543,2.831,2.8323,2.8229,2.821,2.8154,2.7135,2.6562,2.6487,2.5979,2.5674,2.5603,2.4632,2.3825,2.3246,2.3083,2.2533,2.1543,2.1481,2.1257,2.0677,1.8972,1.7742,1.719,1.5403,1.4129,0.0,1.3193,0.0,0.0,0.0,0.0,0.0,0.0,0.0,0.0,1.5235,1.4926,1.457,1.4404,1.4278,1.4143,1.4374,1.4327,1.3803,1.4021,1.4337,1.4596,1.4863,1.5173,1.5494,1.5738,1.5992,1.6279,1.658,1.6767,1.674,1.6591,1.6438,1.6377,1.6112,1.5895,1.5901,1.5921,1.5988,1.5975,1.5948,1.5948,1.5935,1.5961,1.5915,1.5955,1.6166,1.6351,1.6371,1.6531,1.6673,1.6707,1.6687,1.6687,1.6635,1.6862,1.6914,1.65,1.6585,1.6784,2.5581,2.5581,2.5591,2.5591,2.5571,2.5503,2.5054,2.4424,2.4424,2.4424,2.4391,2.4326,2.4861,2.588,2.7086,2.8195,2.921,3.0039,3.0437,3.0437,2.9993,2.9779,2.9779,2.9779,2.9779,2.9779,2.9679,2.9628,2.9628,2.9528,2.9497,2.9465,2.8982,2.8756,2.8693,0.0,0.0,0.0,2.6386,2.608,2.5598,2.498,2.439,2.3825,2.2922,0.0,2.1531,2.1481,2.127,2.0689,1.9223,0.0,0.0,0.0,0.0,0.0,0.0,0.0,0.0,0.0,0.0,0.0,1.64,1.6074,1.5986,1.6337,1.6086,1.4881,1.4631,1.4643,1.4855,1.4458,1.4245,1.4329,1.4616,1.4932,1.519,1.5284,1.5534,1.607,1.6183,1.6293,1.6611,1.6913,1.7112,1.7086,1.704,1.7038,1.7025,1.6545,1.6317,1.648,1.6468,1.6526,1.6515,1.6488,1.648,1.6515,1.6515,1.652,1.6488,1.656,1.662,1.6652,1.6667,1.672,1.672,1.6707,1.674,1.6714,1.7788,1.8311,1.6937,1.6911,1.7343,2.5708,0.0,2.5708,2.5708,0.0,2.5708,2.543,2.5045,2.5045,2.5045,2.5092,2.5698,2.6208,2.6677,2.8375,2.9357,2.9846,3.063,3.0859,3.06,3.0595,3.0294,2.9792,3.008,3.0055,2.9804,2.9779,2.9779,2.9779,2.9779,2.9779,2.9779,2.9503,2.9352,2.9296,2.8247,2.7311,2.6516,2.6487,2.6348,2.6042,2.5485,2.482,2.4017,2.3452,0.0,0.0,0.0,0.0,0.0,0.0,0.0,0.0,0.0,0.0,1.5386,1.5405,1.5503,1.5732,1.6143,1.6846,1.7893,1.7691,1.722,1.6587,1.61,1.5621,1.5184,1.4674,1.4536,1.4993,1.4746,1.4658,1.4917,1.5113,1.5291,1.5565,1.5745,1.5969,1.6257,1.6558,1.6792,1.6933,1.72,1.7374,1.7381,1.7286,1.7259,1.7301,1.6886,1.656,1.6662,1.6707,1.67,1.6707,1.6707,1.6707,1.6707,1.6707,1.6707,1.6707,1.6827,1.6953,1.6959,1.706,1.7141,1.7141,1.7141,1.7346,1.7997,1.8793,1.9463,1.9106,1.9304,1.9565,2.5708,2.5708,2.5708,2.583,2.6038,2.6038,2.6038,2.6038,0.0,0.0,0.0,2.7471,2.7825,2.7795,2.9681,3.0484,3.0441,3.1191,3.1298,3.0889,3.1235,3.0942,3.0118,3.0512,3.0507,3.0093,3.008,3.0087,3.0087,3.008,3.0037,2.9942,2.993,2.9842,2.9591,2.8712,2.7708,2.67,2.6537,2.6487,2.6491,2.5904,2.5184,2.4293,2.4092,2.3351,2.1994,2.1677,2.1221,2.052,1.926,1.8424,1.8066,1.743,1.7042,1.6966,1.7373,1.7524,1.7348,1.7716,1.8053,1.8315,1.8078,1.7581,1.6793,1.5578,1.5012,1.5378,1.469,1.4506,1.5006,1.5082,1.518,1.5438,1.5518,1.5651,1.5892,1.6166,1.6391,1.6516,1.6898,1.7219,1.7273,1.7448,1.7615,1.7582,1.7408,1.7327,1.7481,1.72,1.6894,1.6914,1.6941,1.6887,1.6874,1.6894,1.6854,1.6907,1.6894,1.686,1.6919,1.7086,1.7259,1.7273,1.7454,1.766,1.7904,1.8,1.8427,1.9731,2.0187,2.0666,2.1727,2.2257,2.2307,2.5708,2.5708,2.5708,2.6342,2.7339,2.7329,2.7329,2.7339,2.7339,2.7908,2.8889,2.9062,2.9693,3.0604,3.0949,3.1642,3.2591,3.2252,3.2051,3.1943,3.1574,3.1311,3.1173,3.1235,3.1268,3.1193,3.116,3.1193,3.118,3.1168,3.0947,3.0525,3.0475,2.9998,2.9095,2.8869,2.8254,2.7211,2.6738,2.6487,2.6474,2.5917,2.5536,2.5347,2.4481,2.3904,2.365,2.3564,2.2985,2.1718,2.0868,2.002,1.9121,1.7985,1.7481,1.7812,1.8205,1.8045,1.7152,1.7488,1.76,1.7312,1.6743,1.6188,1.5771,1.5835,1.5661,1.5144,1.4934,1.4992,1.5291,1.5344,1.5464,1.5721,1.5992,1.619,1.6237,1.6491,1.6759,1.7005,1.7139,1.7313,1.7488,1.7582,1.7615,1.7608,1.7541,1.7555,1.7549,1.7548,1.7488,1.7481,1.7481,1.7455,1.7395,1.7481,1.7434,1.7488,1.7448,1.744,1.7557,1.7618,1.7717,1.7633,1.785,1.8218,1.9072,1.9324,1.9904,2.1118,2.2106,2.2976,2.3384,2.418,2.4609,2.6069,2.6094,2.6084,2.6255,2.6562,2.6572,2.6993,2.7565,2.7589,2.7885,2.8541,2.9784,3.0676,3.1245,3.1909,3.2547,3.309,3.2805,3.2516,3.2227,3.2298,3.1997,3.1482,3.1687,3.1675,3.1432,3.1406,3.1406,3.1406,3.1406,3.1273,3.1022,3.0751,3.0186,2.9408,2.9057,2.8656,2.8172,2.7361,2.6801,2.6499,2.6235,2.5929,2.5628,2.5096,2.4732,2.444,2.3449,2.262,2.1976,2.0681,1.9762,1.9321,1.875,1.8268,1.7873,1.8219,1.7961,1.6893,1.7419,1.7468,1.689,1.6541,1.6111,1.5483,1.547,1.5419,1.5225,1.522,1.534,1.5581,1.5778,1.5932,1.6052,1.6333,1.6524,1.6565,1.6792,1.7026,1.7192,1.734,1.7461,1.7562,1.7615,1.7615,1.7615,1.7615,1.7615,1.7641,1.8225,1.8401,1.7766,1.7615,1.7608,1.7635,1.7615,1.7615,1.7615,1.7615,1.7917,1.8454,1.8681,1.8987,1.9672,1.9793,2.0051,2.0717,2.0743,2.1347,2.2441,2.3176,2.384,2.4609,2.5333,2.5406,2.6558,2.6533,2.6533,2.6477,2.6422,2.6695,2.7232,2.7893,2.8501,2.8595,2.8634,3.0386,3.1356,3.1733,3.2655,3.3102,3.3102,3.3102,3.2851,3.2478,3.2889,3.2625,3.1896,3.2227,3.2177,3.1821,3.1796,3.1783,3.1783,3.1796,3.1721,3.1524,3.0934,3.0394,2.9967,2.9383,2.9032,2.885,2.8097,2.7349,2.6713,2.6675,2.6394,2.5854,2.5804,2.5615,2.5127,2.3565,2.2535,2.2146,2.0652,1.967,1.9424,1.9203,1.8751,1.8083,1.8098,1.7746,1.6798,1.6974,1.6926,1.6389,1.6336,1.6093,1.5563,1.5314,1.5273,1.5458,1.5581,1.5698,1.5919,1.6192,1.6397,1.6411,1.6627,1.6826,1.6859,1.71,1.7274,1.7301,1.7474,1.7608,1.7615,1.7615,1.7615,1.7615,1.7615,1.7615,1.774,1.876,1.9039,1.8499,1.8297,1.8655,1.8525,1.8622,1.8681,1.8532,1.8629,1.9161,1.9852,2.0084,2.0385,2.127,2.1567,2.1693,2.2005,2.2156,2.2692,2.3791,2.4254,2.4535,2.5372,2.5635,2.5693,2.6953,2.6963,2.6963,2.7562,2.8475,2.9597,2.9488,2.901,3.1123,3.1572,3.0664,3.1028,3.1879,3.284,3.3072,3.3128,3.3128,3.3102,3.3052,3.3002,3.3065,3.304,3.2889,3.2977,3.2989,3.2901,3.2889,3.2839,3.2851,3.2876,3.2629,3.2056,3.1102,3.06,3.0462,2.998,2.9465,2.8913,2.8787,2.8254,2.7298,2.7223,2.6977,2.6436,2.6411,2.6416,2.6256,2.5313,2.4113,2.2893,2.1746,2.0771,1.9891,1.8938,1.8547,1.8782,1.8188,1.7479,1.6648,1.5773,1.5419,1.5494,1.5581,1.564,1.5758,1.5741,1.5728,1.5808,1.6039,1.619,1.6264,1.6493,1.666,1.668,1.6953,1.7133,1.7186,1.7388,1.7568,1.7568,1.7582,1.7615,1.7615,1.7615,1.7615,1.7615,1.7793,1.7838,1.7943,1.9135,1.9981,1.9826,2.0454,2.1169,2.1118,2.1288,2.0965,2.1067,2.1211,2.1245,2.1347,2.1499,2.1676,2.2257,2.2022,2.2458,2.3176,2.3567,2.3939,2.4815,2.5274,2.5504,2.5684,2.5708,2.5708,2.7428,2.7428,2.7402,2.7693,2.8182,2.8429,2.867,2.9056,3.0052,3.1067,3.2042,3.2179,3.289,3.4013,3.3709,3.358,3.3533,3.3253,3.3102,3.3102,3.3102,3.3102,3.3102,3.3102,3.3102,3.3102,3.3102,3.3102,3.3102,3.3102,3.2792,3.2219,3.1729,3.1228,3.0638,3.0374,2.9986,2.9446,2.944,2.9051,2.8285,2.7625,2.7198,2.7014,2.6959,2.6796,2.6407,2.5278,2.4162,2.3243,2.1765,2.0741,2.0341,1.9308,1.8576,1.8264,1.6922,1.6074,1.5889,1.5461,1.5344,1.5608,1.5628,1.5778,1.6059,1.6092,1.6159,1.6295,1.6306,1.6357,1.652,1.6794,1.6993,1.7033,1.726,1.7428,1.7441,1.7535,1.7615,1.7615,1.7615,1.7615,1.7615,1.7615,1.7615,1.774,1.8199,1.8736,1.8897,2.0615,2.1887,2.219,2.3185,2.3201,2.2232,2.1693,2.1744,2.1744,2.1693,2.1794,2.2717,2.2868,2.3101,2.384,2.384,2.4014,2.4766,2.4898,2.5128,2.5684,2.5708,2.5708,2.5708,2.5708,2.5708,2.7868,2.7868,2.7868,2.7868,2.7839,2.75,2.8095,2.9346,2.9735,3.1191,3.3244,3.3703,3.4322,3.4986,3.4449,3.406,3.3859,3.3504,3.3241,3.3128,3.3102,3.3102,3.3102,3.3102,3.3102,3.3102,3.3102,3.3102,3.3102,3.3102,3.2876,3.2491,3.229,3.1717,3.0909,3.0688,3.0344,2.9829,2.9779,2.9578,2.907,2.8235,2.7688,2.7537,2.7507,2.7199,2.6507,2.5212,2.4166,2.3423,2.1829,2.079,2.0423,1.9414,1.8336,1.7212,1.5895,1.5233,1.5498,1.5615,1.5732,1.5901,1.6012,1.6152,1.6364,1.6417,1.6526,1.6785,1.6665,1.6658,1.6832,1.712,1.7306,1.7314,1.7501,1.7608,1.7608,1.7615,1.7615,1.7615,1.7615,1.7615,1.7628,1.7689,1.7835,1.845,1.9263,2.0098,2.053,2.2274,2.3752,2.3793,2.479,2.4824,2.3176,2.3001,2.2793,2.2793,2.2993,2.3351,2.4063,2.4196,2.4328,2.4888,2.5479,2.5659,2.543,2.5562,2.5645,2.5684,2.5708,2.5708,2.5708,2.5708,2.5708,2.8288,2.8279,2.8262,2.8242,2.8279,2.8283,2.9021,3.0382,3.1599,3.2977,3.4425,3.5591,3.6246,3.618,3.5177,3.4402,3.3972,3.3897,3.363,3.3228,3.3178,3.3149,3.3102,3.3102,3.3115,3.3102,3.3102,3.3102,3.3102,3.3102,3.309,3.3027,3.2516,3.1951,3.1361,3.0896,3.0357,2.9917,2.9804,2.9767,2.9666,2.912,2.8568,2.8172,2.8072,2.7582,2.6542,2.552,2.4458,2.3358,2.227,2.1212,2.0111,1.9012,1.757,1.5848,1.5456,1.5511,1.5775,1.6083,1.625,1.6304,1.6466,1.666,1.668,1.6687,1.6846,1.7152,1.7152,1.7152,1.7167,1.7381,1.7548,1.7561,1.7588,1.7615,1.7615,1.7642,1.7615,1.7635,1.7682,1.7722,1.7668,1.7816,1.8721,1.9713,2.046,2.1109,2.2175,2.3477,2.4166,2.429,2.4905,2.5645,2.5465,2.4898,2.5045,2.4971,2.4658,2.5226,2.5455,2.5611,2.5659,2.5659,2.5684,2.5708,2.5708,2.5684,2.5684,2.5708,2.5708,2.5708,2.5708,2.5708,2.5708,2.8301,2.8301,2.8301,2.8301,2.8398,2.9207,3.0343,3.1684,3.3055,3.4386,3.5595,3.6216,3.6417,3.638,3.5979,3.5466,3.4929,3.4577,3.4301,3.4135,3.4113,3.3935,3.3621,3.3596,3.3416,3.314,3.3102,3.3102,3.3102,3.3102,3.3102,3.309,3.288,3.2478,3.1926,3.1386,3.0846,3.0344,2.9993,2.9779,2.9804,2.9578,2.9365,2.9176,2.8806,2.7946,2.6529,2.5856,2.4843,2.3352,2.1663,2.0475,1.9906,1.8403,1.6884,1.5635,1.5769,1.6029,1.6126,1.6386,1.6553,1.656,1.664,1.6807,1.6973,1.7026,1.714,1.7381,1.7448,1.7454,1.7468,1.7555,1.7615,1.7615,1.7615,1.7615,1.7622,1.7749,1.7856,1.7909,1.8029,1.819,1.8326,1.9067,1.9922,2.0604,2.2188,2.3397,2.4061,2.5155,2.5876,2.58,2.5985,2.6152,2.6152,2.5815,2.5669,2.5659,2.5601,2.5528,2.5659,2.5684,2.5684,2.5659,2.5684,2.5708,2.5708,2.5708,2.5708,2.5708,2.5708,2.5708,2.5708,2.5708,2.5708,2.8301,2.8301,2.8301,2.8301,2.8468,2.9728,3.1056,3.2418,3.3797,3.515,3.6239,3.6417,3.6417,3.6417,3.6417,3.6205,3.5768,3.5217,3.4879,3.4703,3.4703,3.4515,3.4201,3.4161,3.3972,3.3633,3.3442,3.3366,3.3329,3.3178,3.3102,3.3102,3.3102,3.2792,3.224,3.1838,3.1399,3.0864,3.0495,3.0319,3.0326,3.0306,3.0326,3.0197,2.9553,2.8285,2.6578,2.584,2.458,2.276,2.1207,2.0081,1.9195,1.7597,1.6334,1.5822,1.607,1.6344,1.6458,1.6687,1.6879,1.6886,1.6947,1.7088,1.7294,1.7314,1.7447,1.7561,1.7615,1.7615,1.7615,1.7608,1.7615,1.7615,1.7615,1.7629,1.7722,1.7889,1.8042,1.8163,1.8337,1.8457,1.8698,1.9905,2.0885,2.1465,2.38,2.5321,2.5929,2.6569,2.707,2.6865,2.6629,2.6406,2.625,2.5962,2.5815,2.5796,2.5708,2.5708,2.5708,2.5708,2.5708,2.5708,2.5708,2.5708,2.5708,2.5708,2.5708,2.5708,2.5708,2.5708,2.5708,2.5708,2.5635,2.8301,2.8301,2.8301,2.8301,2.8495,2.9885,3.1122,3.2418,3.3896,3.5295,3.6346,3.6417,3.6417,3.6417,3.6417,3.6392,3.623,3.5732,3.5293,3.4904,3.4841,3.4803,3.4715,3.4703,3.464,3.4515,3.411,3.3872,3.3809,3.3354,3.3102,3.3102,3.3102,3.2851,3.224,3.2177,3.1913,3.1486,3.1306,3.1273,3.1394,3.1281,3.1182,3.1036,3.0024,2.84,2.6443,2.5368,2.3823,2.1813,2.1203,2.0079,1.8002,1.6633,1.602,1.6248,1.6342,1.644,1.6693,1.7013,1.718,1.7233,1.7421,1.7528,1.7535,1.7561,1.7582,1.7602,1.7615,1.7615,1.7635,1.7629,1.7642,1.7615,1.7642,1.7749,1.7916,1.8002,1.8156,1.8485,1.8716,1.86,1.8946,2.0542,2.212,2.3444,2.5045,2.6511,2.7206,2.7588,2.7305,2.6891,2.6836,2.6881,2.6445,2.6064,2.5962,2.5884,2.5767,2.5708,2.5708,2.5708,2.5708,2.5708,2.5708,2.5708,2.5708,2.5708,2.5708,2.5708,2.5708,2.5708,2.5708,2.5659,2.5479,2.8301,2.8301,2.8301,2.8301,2.8591,3.0695,3.1952,3.2557,3.4727,3.6013,3.6358,3.6417,3.6417,3.6417,3.6417,3.6417,3.6392,3.6193,3.6029,3.5866,3.583,3.5617,3.5318,3.5268,3.5044,3.4665,3.4173,3.3909,3.3809,3.3379,3.3102,3.3102,3.3102,3.3014,3.2788,3.2428,3.2089,3.1938,3.1574,3.1406,3.1406,3.1419,3.1038,3.0127,2.9027,2.7314,2.5038,2.4506,2.3589,2.2012,2.0326,1.8655,1.7271,1.6648,1.6498,1.658,1.6799,1.6919,1.7046,1.7301,1.7461,1.7488,1.7568,1.7602,1.7615,1.7622,1.7622,1.7622,1.7615,1.7649,1.7822,1.7876,1.7822,1.7609,1.7769,1.7909,1.8083,1.8362,1.873,1.9189,1.9998,2.0542,2.109,2.2664,2.4405,2.5032,2.6498,2.772,2.7982,2.8057,2.8066,2.7764,2.7682,2.734,2.6924,2.6631,2.6504,2.6225,2.5991,2.5757,2.5703,2.5708,2.5708,2.5708,2.5708,2.5708,2.5708,2.5708,2.5708,2.5708,2.5708,2.5708,2.5708,2.5479,2.5152,2.8797,2.875,2.8594,2.8516,2.8818,3.1234,3.228,3.2719,3.5222,3.6394,3.6417,3.6417,3.6417,3.6417,3.6417,3.6417,3.6417,3.6417,3.6417,3.6417,3.6417,3.618,3.5845,3.5832,3.5692,3.529,3.4776,3.4377,3.4173,3.3658,3.3282,3.3162,3.3102,3.3102,3.3077,3.2763,3.2528,3.2478,3.2236,3.2035,3.2035,3.2035,3.1433,3.0248,2.9073,2.7191,2.4833,2.3763,2.2512,2.094,1.891,1.7516,1.6775,1.67,1.6754,1.6913,1.706,1.7233,1.7327,1.7501,1.7615,1.7615,1.7615,1.7615,1.7635,1.7682,1.7756,1.7756,1.7876,1.8003,1.817,1.8183,1.8116,1.7956,1.8096,1.8229,1.8369,1.8763,1.9463,2.0122,2.0973,2.1728,2.2814,2.4341,2.6009,2.6291,2.7357,2.8301,2.8301,2.8281,2.8242,2.821,2.7978,2.7666,2.7412,2.7217,2.706,2.6689,2.6299,2.5971,2.5762,2.5703,2.5708,2.5708,2.5708,2.5708,2.5708,2.5708,2.5708,2.5708,2.5396,2.5348,2.5143,2.4815,2.4353,2.9588,2.954,2.9131,2.8928,2.9213,3.1247,3.2229,3.2775,3.5029,3.6239,3.6358,3.6417,3.6417,3.6417,3.6417,3.6417,3.6417,3.6417,3.6417,3.6417,3.6417,3.6331,3.6293,3.6281,3.6243,3.6168,3.5656,3.5169,3.4728,3.411,3.3633,3.3253,3.3165,3.3102,3.309,3.3077,3.3027,3.3002,3.3002,3.2989,3.2977,3.3014,3.2296,3.0961,2.9806,2.7895,2.4933,2.2543,2.048,1.8664,1.7567,1.6992,1.678,1.676,1.6959,1.7206,1.7226,1.7373,1.7535,1.7595,1.7615,1.7615,1.7655,1.7635,1.7675,1.7876,1.8042,1.8056,1.8277,1.845,1.849,1.851,1.8504,1.8544,1.8531,1.8631,1.8883,1.9185,1.9869,2.1066,2.1663,2.2287,2.3758,2.5407,2.6209,2.6599,2.7528,2.8121,2.8301,2.8252,2.8122,2.8083,2.8096,2.7978,2.7725,2.7715,2.7513,2.703,2.6524,2.5998,2.5689,2.5598,2.5254,2.5303,2.5156,2.5318,2.5167,2.4781,2.4707,2.4526,2.4452,2.4584,2.4304,2.38,2.317,2.9608,2.9579,2.9471,2.9422,2.9575,3.0845,3.1926,3.2912,3.4307,3.5621,3.6241,3.6417,3.6468,3.6417,3.643,3.6417,3.6417,3.6417,3.6417,3.6417,3.6417,3.6417,3.6417,3.6417,3.6417,3.6306,3.5832,3.5433,3.5207,3.4402,3.3872,3.3684,3.3303,3.3115,3.3102,3.3102,3.3102,3.3102,3.3102,3.3102,3.3102,3.3047,3.2021,3.0045,2.9544,2.7123,2.3047,2.0112,1.8502,1.7946,1.7575,1.7355,1.7341,1.7341,1.7367,1.7441,1.7488,1.7515,1.7582,1.7615,1.7615,1.7635,1.7782,1.7896,1.7902,1.8169,1.8323,1.8384,1.8464,1.8591,1.8758,1.8811,1.8898,1.9072,1.8931,1.8918,1.9172,1.9399,1.9982,2.1365,2.2476,2.373,2.5151,2.6572,2.7528,2.7672,2.7933,2.8301,2.8301,2.8281,2.8174,2.8176,2.8186,2.8164,2.8105,2.8115,2.7889,2.7382,2.6702,2.588,2.554,2.5282,2.4705,2.4248,2.3634,2.3559,2.307,2.2583,2.2767,2.3326,2.3113,2.3064,2.2685,2.2215,2.1691,3.0155,3.0136,2.994,2.9862,2.9972,3.0864,3.2066,3.3391,3.453,3.5794,3.6855,3.7072,3.6947,3.6746,3.6733,3.6595,3.6443,3.6417,3.6417,3.6417,3.6417,3.6417,3.6417,3.6417,3.6417,3.638,3.6044,3.5744,3.5433,3.4841,3.4377,3.3909,3.3592,3.3341,3.3102,3.3102,3.3102,3.3102,3.3102,3.3102,3.3102,3.2534,3.1323,2.9613,2.8878,2.6393,2.2055,1.9057,1.7608,1.7608,1.7608,1.7615,1.7615,1.7615,1.7615,1.7615,1.7615,1.7608,1.7615,1.7615,1.7649,1.7762,1.7936,1.8076,1.8223,1.8504,1.8671,1.8671,1.8799,1.896,1.9058,1.9112,1.9192,1.9314,1.9241,1.9214,1.9381,1.9388,2.0119,2.143,2.2898,2.4405,2.59,2.7394,2.8094,2.8264,2.8184,2.8301,2.8291,2.8237,2.7924,2.7555,2.7222,2.6914,2.6417,2.6263,2.6209,2.5927,2.5711,2.5058,2.4518,2.4226,2.3796,2.2997,2.2281,2.1721,2.146,2.1413,2.1946,2.2215,2.1843,2.1515,2.1274,2.1046,2.0487,3.1005,3.1073,3.0526,3.0273,3.0395,3.1143,3.2124,3.3639,3.4797,3.6192,3.7357,3.7866,3.7563,3.7199,3.7097,3.6896,3.6417,3.6417,3.6417,3.6417,3.6417,3.6417,3.6417,3.6417,3.6417,3.6392,3.6417,3.6105,3.5719,3.5531,3.4992,3.4314,3.4022,3.3646,3.3329,3.3165,3.3102,3.3102,3.3102,3.3102,3.2884,3.2018,3.0765,2.9464,2.7537,2.5416,2.203,1.9361,1.7838,1.7615,1.7615,1.7615,1.7615,1.7615,1.7615,1.7615,1.7615,1.7615,1.7628,1.7635,1.7722,1.7922,1.8042,1.8209,1.8496,1.877,1.8965,1.8965,1.9212,1.9308,1.9341,1.9374,1.9368,1.9388,1.9381,1.9388,1.9395,1.9395,2.0011,2.1593,2.3095,2.4397,2.6073,2.734,2.8291,2.8201,2.804,2.7538,2.7286,2.6943,2.6499,2.5936,2.5626,2.5343,2.4729,2.4119,2.4036,2.387,2.3836,2.3373,2.2581,2.2269,2.2252,2.183,2.104,2.0707,2.0638,2.0844,2.1093,2.0966,2.0477,2.0363,2.0268,2.0125,1.97,3.1575,3.2519,3.1273,3.0742,3.0722,3.0615,3.1304,3.2735,3.383,3.5244,3.6388,3.7531,3.7701,3.7211,3.7235,3.6896,3.6455,3.6417,3.6417,3.6417,3.6417,3.6417,3.6417,3.6417,3.6417,3.6417,3.6417,3.6306,3.613,3.5744,3.5395,3.5082,3.4339,3.3859,3.3743,3.3354,3.3102,3.3102,3.3115,3.3059,3.2754,3.1721,3.0474,2.9074,2.6304,2.382,2.1946,2.0084,1.8708,1.7917,1.7615,1.7615,1.7615,1.7615,1.7615,1.7615,1.7615,1.7615,1.7655,1.7776,1.7942,1.8055,1.8423,1.8736,1.879,1.9085,1.9267,1.9301,1.9361,1.9395,1.9395,1.9395,1.9395,1.9395,1.9395,1.9395,1.9395,1.9424,2.0486,2.2351,2.3487,2.4774,2.7259,2.7753,2.8211,2.8121,2.7528,2.6744,2.6191,2.569,2.5077,2.4488,2.4239,2.3933,2.3235,2.2625,2.2399,2.2209,2.2096,2.1975,2.1146,2.0898,2.108,2.058,1.9774,1.9639,1.9754,1.9371,1.9483,1.9284,1.9293,1.9359,1.9364,1.9181,1.9996,3.3013,3.3021,3.2254,3.1546,3.0908,3.0683,3.1716,3.3481,3.4222,3.5688,3.7457,3.8528,3.8341,3.7588,3.7525,3.7161,3.6532,3.6417,3.6417,3.6417,3.6417,3.6417,3.6417,3.6417,3.6417,3.6417,3.6417,3.6417,3.6293,3.6069,3.5782,3.5508,3.4891,3.4565,3.4236,3.3746,3.3508,3.3407,3.3194,3.2862,3.213,3.1,2.9373,2.7712,2.5091,2.3076,2.1727,2.0359,1.8987,1.7996,1.7615,1.7615,1.7615,1.7615,1.7615,1.7615,1.7615,1.7675,1.7809,1.7929,1.8102,1.8403,1.8736,1.8923,1.9098,1.9321,1.9374,1.9395,1.9395,1.9395,1.9395,1.9395,1.9395,1.9395,1.9395,1.9395,1.9395,1.9424,1.9822,2.1686,2.2814,2.4183,2.5745,2.706,2.7474,2.7141,2.6798,2.6045,2.5022,2.4461,2.371,2.3179,2.2906,2.2456,2.1764,2.1259,2.0952,2.0759,2.0594,2.0457,2.0072,2.0047,2.0146,1.9647,1.9257,1.8905,1.8906,1.843,1.8417,1.8666,1.8824,1.8663,1.8978,1.9766,2.097,3.457,3.3406,3.318,3.2264,3.1054,3.1179,3.2595,3.4642,3.5492,3.6893,3.9002,3.9467,3.8793,3.814,3.7814,3.7249,3.6632,3.6417,3.6417,3.6417,3.6417,3.6417,3.6417,3.6417,3.6417,3.6417,3.6417,3.6417,3.6417,3.6392,3.6081,3.5707,3.5495,3.5169,3.4766,3.4324,3.3947,3.3784,3.3152,3.2393,3.1224,2.992,2.7957,2.5727,2.4516,2.2801,2.1397,2.0135,1.8994,1.774,1.7615,1.7642,1.7642,1.7622,1.7615,1.7622,1.7642,1.7789,1.7962,1.8136,1.8382,1.8876,1.8963,1.9105,1.9328,1.9381,1.9395,1.9395,1.9395,1.9395,1.9395,1.9395,1.9395,1.9395,1.9395,1.9395,1.9395,1.9424,1.9649,2.0342,2.1955,2.3423,2.4571,2.5717,2.5964,2.6073,2.5709,2.5151,2.4072,2.3047,2.2209,2.1678,2.1373,2.1266,2.0651,2.0515,2.0119,2.0011,1.9649,1.9562,1.943,1.9574,1.9703,1.9399,1.903,1.8798,1.8698,1.8684,1.8651,1.8584,1.8677,1.8865,1.9587,2.0501,2.179,3.5151,3.4847,3.3603,3.2254,3.1247,3.2207,3.3106,3.3845,3.6151,3.7358,3.7998,3.8696,3.868,3.8003,3.7463,3.6948,3.6328,3.631,3.6417,3.6417,3.6417,3.6417,3.6417,3.6417,3.6417,3.6417,3.6417,3.6417,3.6417,3.6392,3.6306,3.6143,3.5782,3.5445,3.527,3.4853,3.4399,3.3933,3.2975,3.1932,3.0669,2.8555,2.6481,2.4261,2.3608,2.2341,2.0572,1.9757,1.8961,1.7766,1.7615,1.7736,1.7842,1.7756,1.7695,1.7702,1.7836,1.8002,1.8109,1.8489,1.873,1.8936,1.9132,1.9287,1.9381,1.9395,1.9395,1.9395,1.9395,1.9395,1.9395,1.9395,1.9395,1.9395,1.9395,1.9395,1.9395,1.9482,1.9786,2.0537,2.1593,2.2448,2.3515,2.4294,2.458,2.4405,2.3813,2.3235,2.2322,2.1295,2.0371,2.0011,1.9809,1.9758,1.962,1.9678,1.962,1.9678,1.9511,1.9511,1.9424,1.9424,1.9334,1.9247,1.9207,1.9127,1.9018,1.8945,1.8918,1.8871,1.906,1.9221,1.9886,2.0659,2.212,3.713,3.6379,3.5661,3.4542,3.3455,3.3884,3.4698,3.5524,3.6892,3.794,3.8502,3.8802,3.858,3.7804,3.6616,3.588,3.5586,3.6192,3.637,3.6417,3.6417,3.6417,3.6417,3.6417,3.6417,3.6417,3.6417,3.6417,3.6417,3.6417,3.6417,3.6331,3.6069,3.5968,3.5843,3.5393,3.4994,3.4381,3.2958,3.1192,2.9412,2.648,2.3885,2.3109,2.2576,2.1558,2.0174,1.9803,1.918,1.8156,1.7996,1.8116,1.8176,1.8156,1.805,1.8083,1.8169,1.8329,1.8443,1.8776,1.8965,1.9145,1.9328,1.9381,1.9395,1.9395,1.9395,1.9395,1.9395,1.9395,1.9395,1.9395,1.9395,1.9395,1.9395,1.9395,1.9395,1.9395,1.9895,2.0616,2.1259,2.187,2.242,2.3011,2.3215,2.2786,2.2004,2.1365,2.0702,2.0119,1.9395,1.9424,1.9424,1.9424,1.9395,1.9395,1.9395,1.9395,1.9395,1.9395,1.9395,1.9395,1.9395,1.9361,1.9341,1.9308,1.9234,1.9078,1.9118,1.9125,1.9118,1.9288,1.9957,2.0902,2.2484,3.8818,3.7492,3.7492,3.6649,3.548,3.5617,3.6352,3.7412,3.7822,3.8608,3.9468,3.8702,3.7966,3.7158,3.564,3.436,3.4104,3.5307,3.5847,3.5966,3.6287,3.6417,3.6417,3.6417,3.6417,3.6417,3.6417,3.6417,3.6417,3.6417,3.6417,3.6405,3.6405,3.6417,3.623,3.5881,3.566,3.4419,3.265,3.0111,2.6707,2.3743,2.1556,2.1328,2.1343,2.0715,1.9363,1.944,1.9129,1.8469,1.831,1.8497,1.8564,1.8584,1.8611,1.8672,1.8617,1.8718,1.8838,1.8998,1.9145,1.9334,1.9381,1.9395,1.9395,1.9395,1.9395,1.9395,1.9395,1.9395,1.9395,1.9395,1.9395,1.9395,1.9395,1.9395,1.9395,1.9395,1.9395,2.0033,2.0702,2.1066,2.1373,2.1373,2.1544,2.1487,2.0759,2.0623,2.004,1.9844,1.9395,1.9395,1.9424,1.9424,1.9395,1.9395,1.9395,1.9395,1.9395,1.9395,1.9395,1.9395,1.9395,1.9395,1.9388,1.9348,1.9294,1.9261,1.9267,1.9199,1.9105,1.9519,2.0466,2.1792,2.3411,3.883,3.7492,3.7518,3.6649,3.5699,3.673,3.7305,3.769,3.883,3.9504,3.9377,3.7441,3.6398,3.5509,3.3788,3.2759,3.298,3.3909,3.4727,3.4981,3.5751,3.6263,3.6417,3.6417,3.6417,3.6417,3.6417,3.6417,3.6417,3.6417,3.6417,3.6417,3.6417,3.6417,3.6392,3.5982,3.5393,3.3589,3.0893,2.7184,2.3463,2.222,2.1269,2.0343,2.0166,1.983,1.8729,1.8769,1.8638,1.8575,1.847,1.8631,1.8811,1.8871,1.9025,1.9098,1.9052,1.8856,1.8978,1.9138,1.9301,1.9388,1.9395,1.9395,1.9395,1.9395,1.9395,1.9395,1.9395,1.9395,1.9395,1.9395,1.9395,1.9428,1.9461,1.9448,1.9441,1.9622,1.9595,1.9464,2.0124,1.9981,1.9989,1.9873,1.9793,1.9707,1.9649,1.9591,1.954,1.9453,1.9395,1.9395,1.9395,1.9395,1.9395,1.9395,1.9395,1.9395,1.9395,1.9395,1.9395,1.9395,1.9395,1.9395,1.9395,1.9395,1.9354,1.9341,1.9361,1.9328,1.9254,2.0094,2.1229,2.271,2.4156,3.8072,3.7571,3.8413,3.8386,3.7926,3.8491,3.8739,3.8882,3.9388,3.9219,3.8284,3.6783,3.4913,3.3091,3.2212,3.1898,3.1633,3.2593,3.3687,3.4202,3.4969,3.5643,3.6263,3.6417,3.6417,3.631,3.6417,3.6417,3.6417,3.6417,3.6417,3.6417,3.6417,3.6417,3.6263,3.5619,3.4896,3.2929,2.9517,2.5083,2.2113,2.1091,2.0597,1.9182,1.9955,1.9542,1.8707,1.8543,1.8724,1.8771,1.8858,1.906,1.9138,1.9178,1.9245,1.9341,1.9259,1.9178,1.9227,1.9334,1.9374,1.9395,1.9395,1.9395,1.9395,1.9395,1.9395,1.9395,1.9395,1.9401,1.9408,1.9395,1.9502,1.9568,1.9642,1.9642,1.9653,1.98,1.9853,1.9659,1.9515,1.9502,1.9468,1.9495,1.9569,1.954,1.9533,1.9511,1.9482,1.9424,1.9395,1.9395,1.9395,1.9395,1.9395,1.9395,1.9395,1.9395,1.9395,1.9395,1.9395,1.9395,1.9395,1.9395,1.9395,1.9395,1.9395,1.9388,1.9381,1.9388,1.9395,2.0508,2.1643,2.2983,2.4544,3.6945,3.7145,3.8947,3.9697,3.9697,3.9697,3.9671,3.9697,3.9697,3.8882,3.7345,3.5736,3.3074,3.0748,3.0845,3.0688,2.9937,3.1188,3.2292,3.313,3.381,3.4386,3.4957,3.5403,3.5823,3.5942,3.6287,3.6358,3.6417,3.6417,3.6417,3.6417,3.6417,3.6417,3.6037,3.5066,3.3791,3.09,2.6776,2.3259,2.1132,2.083,2.0203,1.9847,1.9938,2.0091,1.8916,1.8885,1.9025,1.9078,1.9221,1.9328,1.9354,1.9354,1.9354,1.9395,1.9354,1.9354,1.9354,1.9388,1.9395,1.9395,1.9395,1.9395,1.9395,1.9395,1.9395,1.9395,1.9395,1.9435,1.9488,1.9522,1.9653,1.98,1.9907,1.9907,1.9933,2.006,2.0057,1.992,1.9753,1.9626,1.9559,1.9461,1.9437,1.943,1.9395,1.9395,1.9401,1.9408,1.9415,1.9421,1.9428,1.9428,1.9421,1.9415,1.9408,1.9428,1.9435,1.9408,1.9421,1.9408,1.9395,1.9395,1.9395,1.9395,1.9395,1.9395,1.9424,1.9533,1.9866,2.0895,2.2032,2.3487,2.5049,3.5453,3.5672,3.853,3.9697,3.9697,3.9697,3.9697,3.9697,3.9645,3.8636,3.6659,3.4173,3.1411,2.9639,2.9308,2.9203,2.8575,2.9869,3.0628,3.1173,3.1774,3.2619,3.3317,3.4031,3.4617,3.4896,3.5559,3.6132,3.6417,3.6417,3.6417,3.6417,3.6417,3.6417,3.5618,3.4156,3.1124,2.7996,2.4166,2.247,2.1423,2.1267,2.1163,2.0759,2.0748,2.041,1.9018,1.9174,1.9308,1.9308,1.9361,1.9395,1.9395,1.9395,1.9395,1.9395,1.9395,1.9395,1.9395,1.9395,1.9395,1.9395,1.9395,1.9415,1.9468,1.9428,1.9408,1.9488,1.9568,1.9622,1.97,1.9793,1.9883,2.0094,2.0207,2.0207,2.0227,2.0287,2.0264,2.013,2.0017,1.9947,1.98,1.9693,1.9475,1.9441,1.9395,1.9395,1.9428,1.9441,1.9455,1.9461,1.9475,1.9475,1.9461,1.9502,1.9635,1.9615,1.9582,1.9515,1.9455,1.9435,1.9401,1.9395,1.9395,1.9395,1.9533,1.9786,1.9953,1.9895,2.0371,2.1565,2.3403,2.5297,2.6527,3.5579,3.6838,3.8856,3.9697,3.9697,3.9697,3.9697,3.953,3.8713,3.6772,3.4339,3.2027,3.0257,2.9231,2.8869,2.8682,2.8384,2.8751,2.9503,3.0188,3.0865,3.1531,3.2191,3.2819,3.3514,3.4276,3.5005,3.5739,3.6358,3.6394,3.6417,3.6417,3.6334,3.5763,3.4788,3.2428,2.8926,2.66,2.4077,2.2811,2.2958,2.3574,2.3293,2.1397,2.2407,2.1342,1.9687,1.9379,1.9381,1.9395,1.9395,1.9395,1.9395,1.9395,1.9395,1.9395,1.9395,1.9395,1.9395,1.9395,1.9395,1.9395,1.9408,1.9475,1.9629,1.9633,1.9746,1.9826,1.9867,1.992,2.0013,2.0074,2.0137,2.0394,2.0508,2.0508,2.0535,2.0588,2.049,2.037,2.0337,2.0314,2.0154,1.9993,1.9706,1.9488,1.9435,1.9421,1.9508,1.9582,1.9635,1.9659,1.97,1.9773,1.978,1.9826,1.988,1.98,1.972,1.9646,1.9595,1.9435,1.9401,1.9401,1.9453,1.9511,1.9786,2.0314,2.0558,2.0644,2.1344,2.2399,2.4516,2.6898,2.7645,3.6259,3.7624,3.9089,3.9697,3.9633,3.9245,3.9025,3.8778,3.7477,3.5343,3.2528,3.1074,2.9922,2.9307,2.9101,2.8769,2.8428,2.8451,2.8926,2.9355,2.9781,3.0317,3.1071,3.2003,3.2894,3.3786,3.4872,3.5691,3.6381,3.6417,3.6417,3.631,3.5966,3.5162,3.38,3.0351,2.7439,2.6064,2.471,2.4211,2.4499,2.5252,2.4941,2.2739,2.3215,2.2009,2.0164,1.9388,1.9388,1.9395,1.9395,1.9395,1.9395,1.9395,1.9395,1.9395,1.9395,1.9395,1.9401,1.9395,1.9441,1.9542,1.9555,1.9673,1.984,1.9927,2.0013,2.0104,2.017,2.0237,2.0321,2.0374,2.0494,2.0722,2.0788,2.0808,2.0842,2.0875,2.0762,2.0624,2.0615,2.0535,2.0414,2.0241,2.0054,1.9826,1.9806,1.9786,1.98,1.9867,1.9913,1.9973,2.0003,2.009,2.0177,2.0117,2.0087,2.0047,1.996,1.986,1.9753,1.9602,1.9435,1.9401,1.9482,1.962,2.0177,2.0952,2.128,2.1472,2.2674,2.4128,2.5608,2.7709,2.7906,3.7394,3.769,3.9039,3.9595,3.9388,3.8163,3.761,3.7358,3.5972,3.4398,3.2721,3.1351,3.039,2.9715,2.953,2.9043,2.8486,2.833,2.8451,2.8601,2.8724,2.8628,2.9592,3.0901,3.2356,3.3032,3.4423,3.5763,3.6417,3.6417,3.6417,3.5667,3.4812,3.4007,3.3859,3.0171,2.7502,2.6136,2.4746,2.4967,2.5827,2.6291,2.5342,2.3933,2.3627,2.2351,2.0126,1.9424,1.9395,1.9395,1.9395,1.9395,1.9395,1.9395,1.9395,1.9395,1.9395,1.9401,1.9415,1.9408,1.9548,1.9706,1.9733,1.9927,2.014,2.0227,2.0281,2.0397,2.035,2.0454,2.0561,2.0712,2.0842,2.0929,2.0995,2.1022,2.1036,2.1042,2.0922,2.0855,2.0762,2.0692,2.0605,2.0474,2.0354,2.0217,2.0197,2.0157,2.0127,2.018,2.0221,2.0294,2.0337,2.0424,2.047,2.0337,2.0257,2.023,2.0184,2.012,1.996,1.9766,1.9606,1.9497,1.9837,2.0285,2.0945,2.1663,2.2589,2.3702,2.4867,2.6245,2.7538,2.8184,2.8264,3.7144,3.8871,3.8061,3.7927,3.8127,3.7743,3.6984,3.5863,3.4459,3.3021,3.1796,3.1034,3.0586,3.0068,2.9686,2.9295,2.8769,2.835,2.8301,2.8301,2.8381,2.8979,2.9791,3.0747,3.2064,3.3489,3.4921,3.581,3.6417,3.6287,3.5691,3.4896,3.308,3.176,3.0844,2.8605,2.677,2.7195,2.6363,2.6018,2.733,2.734,2.6309,2.4017,2.3794,2.2351,1.9707,1.9453,1.9395,1.9395,1.9395,1.9395,1.9401,1.9408,1.9421,1.9415,1.9415,1.9502,1.9586,1.9696,1.9693,1.984,2.0007,2.0214,2.0474,2.0552,2.0621,2.0735,2.0697,2.0828,2.0949,2.0955,2.1036,2.1042,2.1076,2.1076,2.1089,2.1089,2.1042,2.1029,2.0969,2.0935,2.0869,2.0775,2.0661,2.0524,2.0484,2.0337,2.0281,2.0434,2.0565,2.0615,2.0695,2.0788,2.0802,2.0644,2.0624,2.065,2.0561,2.0408,2.0221,2.0007,1.989,1.982,2.0406,2.1059,2.2089,2.3283,2.4922,2.6236,2.6825,2.7195,2.787,2.8237,2.8264,3.7237,3.8693,3.7336,3.637,3.6024,3.5977,3.514,3.3782,3.2729,3.1767,3.1054,3.0908,3.0625,3.0215,2.994,2.9579,2.9121,2.8721,2.8516,2.8557,2.8923,2.9507,3.0224,3.1301,3.2905,3.4227,3.5005,3.5691,3.6323,3.5918,3.463,3.2819,3.1246,3.0395,2.9351,2.8045,2.7384,2.7789,2.7276,2.7222,2.795,2.7816,2.6744,2.4682,2.3459,2.2435,2.0292,1.9395,1.9401,1.9401,1.9401,1.9401,1.9415,1.9488,1.9528,1.9548,1.9646,1.976,1.9907,2.01,2.014,2.0197,2.0301,2.0514,2.0755,2.0853,2.0902,2.1009,2.1096,2.1102,2.1096,2.1102,2.1102,2.1102,2.1102,2.1102,2.1102,2.1102,2.1102,2.1102,2.1102,2.1102,2.1102,2.1082,2.0982,2.0851,2.0757,2.0597,2.0457,2.0648,2.082,2.0848,2.0933,2.1011,2.1027,2.0995,2.1002,2.1089,2.1003,2.0922,2.0514,2.0338,2.0232,2.0296,2.1068,2.2065,2.3528,2.4958,2.6409,2.7303,2.7762,2.8067,2.8291,2.8301,2.8301,3.7684,3.7404,3.6792,3.5174,3.3409,3.3293,3.235,3.1034,3.0976,3.0976,3.0928,3.0928,3.0684,3.0312,3.0195,2.9941,2.9588,2.9141,2.9117,2.9274,2.9815,3.0334,3.1462,3.2905,3.397,3.4775,3.5451,3.587,3.6168,3.4532,3.2619,3.1122,3.0302,2.946,2.8661,2.8245,2.8067,2.8121,2.8094,2.8014,2.8264,2.801,2.6427,2.466,2.3469,2.2065,2.036,1.9481,1.9441,1.9421,1.9428,1.9428,1.9508,1.9659,1.976,1.988,2.0067,2.011,2.0237,2.0454,2.0619,2.0619,2.0686,2.0862,2.0969,2.1029,2.1056,2.1076,2.1102,2.1102,2.1102,2.1102,2.1102,2.1102,2.1102,2.1102,2.1102,2.1102,2.1102,2.1102,2.1102,2.1102,2.1102,2.1102,2.1102,2.1017,2.0924,2.0917,2.0842,2.0875,2.0989,2.0995,2.108,2.1195,2.1324,2.172,2.1814,2.2027,2.1737,2.1583,2.1128,2.0876,2.1024,2.132,2.1955,2.3154,2.5145,2.6527,2.7672,2.8301,2.8301,2.8301,2.8301,2.8301,2.8301,3.5999,3.6628,3.416,3.3065,3.2958,3.1988,3.1247,3.0918,3.0928,3.0928,3.0928,3.0928,3.0781,3.0684,3.0351,3.0137,2.9921,2.9757,2.9975,3.0314,3.0821,3.1892,3.298,3.4055,3.4945,3.5619,3.6073,3.5918,3.4617,3.293,3.1531,3.0395,2.946,2.8724,2.8468,2.8301,2.8301,2.8301,2.8301,2.833,2.8005,2.7596,2.5973,2.4631,2.3305,2.1766,2.0289,1.9709,1.9642,1.9475,1.9622,1.9696,1.9729,1.994,2.0084,2.0107,2.0184,2.0277,2.0514,2.0628,2.0786,2.0915,2.0955,2.1002,2.1089,2.1102,2.1102,2.1102,2.1102,2.1102,2.1102,2.1102,2.1102,2.1102,2.1102,2.1102,2.1102,2.1102,2.1102,2.1102,2.1102,2.1102,2.1102,2.1102,2.1102,2.1102,2.1102,2.1102,2.1102,2.1102,2.1475,2.1506,2.1664,2.1908,2.2615,2.3107,2.3014,2.2952,2.2812,2.246,2.1854,2.1718,2.191,2.2617,2.3706,2.5317,2.7198,2.8094,2.8264,2.8301,2.8301,2.8301,2.8301,2.8301,2.8301,3.461,3.4648,3.2593,3.1878,3.204,3.1267,3.0928,3.0928,3.0928,3.0928,3.0928,3.0928,3.0918,3.0801,3.042,3.0204,3.0184,3.0259,3.0488,3.085,3.1891,3.3027,3.415,3.4957,3.5643,3.6216,3.6192,3.5739,3.392,3.1796,3.0188,2.9381,2.8548,2.8398,2.8301,2.8301,2.8301,2.8301,2.832,2.8398,2.7914,2.7142,2.5826,2.4499,2.3171,2.1607,2.024,2.0003,1.986,1.9733,1.9933,1.9967,2.002,2.021,2.0477,2.0541,2.0621,2.0708,2.0828,2.0848,2.0962,2.1049,2.1102,2.1102,2.1102,2.1102,2.1102,2.1102,2.1102,2.1102,2.1102,2.1102,2.1102,2.1102,2.1102,2.1102,2.1102,2.1102,2.1102,2.1102,2.1102,2.1102,2.1102,2.1102,2.1102,2.1102,2.1102,2.1102,2.1102,2.1102,2.1814,2.2396,2.2584,2.2803,2.3659,2.454,2.4532,2.4532,2.4525,2.4009,2.3024,2.3059,2.3732,2.4717,2.5828,2.7177,2.8278,2.8196,2.8301,2.834,2.8379,2.833,2.832,2.8301,2.8301,3.3355,3.2327,3.1711,3.1263,3.0946,3.0918,3.0928,3.0928,3.0928,3.0928,3.0928,3.0928,3.0928,3.082,3.0508,3.0502,3.0709,3.0953,3.1454,3.1381,3.3169,3.4403,3.4981,3.5702,3.6108,3.631,3.5894,3.4945,3.3464,3.1312,2.925,2.8344,2.8318,2.8301,2.8301,2.8301,2.8301,2.831,2.8337,2.8393,2.7969,2.7113,2.5819,2.4545,2.3116,2.1649,2.0638,2.0237,2.023,2.021,2.023,2.0261,2.0428,2.0548,2.0822,2.0935,2.0962,2.0989,2.1015,2.1029,2.1049,2.1089,2.1102,2.1102,2.1102,2.1102,2.1102,2.1102,2.1102,2.1102,2.1102,2.1102,2.1102,2.1102,2.1102,2.1102,2.1102,2.1102,2.1102,2.1102,2.1102,2.1102,2.1102,2.1102,2.1102,2.1102,2.1102,2.1102,2.1134,2.1134,2.2059,2.3076,2.3201,2.369,2.5475,2.6197,2.6197,2.6197,2.6197,2.5625,2.4689,2.5044,2.575,2.6672,2.7549,2.7979,2.8664,2.8662,2.8662,2.8633,2.8613,2.8428,2.8379,2.8428,2.8447,3.1334,3.128,3.0764,3.0657,3.0888,3.0928,3.0928,3.0928,3.0928,3.0928,3.0928,3.0928,3.0928,3.0869,3.0732,3.0851,3.1538,3.1768,3.2762,3.3434,3.4699,3.5223,3.5729,3.6132,3.6358,3.6037,3.5271,3.3613,3.1746,2.9911,2.8741,2.8344,2.8301,2.8301,2.8301,2.831,2.8369,2.8389,2.8608,2.8153,2.7298,2.5995,2.4564,2.345,2.2133,2.14,2.0655,2.0568,2.0428,2.0277,2.0488,2.0661,2.0864,2.0962,2.1022,2.1096,2.1102,2.1102,2.1102,2.1102,2.1102,2.1134,2.1134,2.1102,2.1102,2.1102,2.1134,2.1166,2.1102,2.1102,2.1102,2.1102,2.1102,2.1102,2.1102,2.1102,2.1102,2.1102,2.1102,2.1102,2.1102,2.1102,2.1102,2.1102,2.1102,2.1102,2.1102,2.1102,2.1197,2.1324,2.249,2.3349,2.3535,2.4386,2.6591,2.7832,2.7841,2.7841,2.7841,2.7172,2.6384,2.6947,2.7602,2.8397,2.9153,2.9191,2.9197,2.9315,2.9285,2.9109,2.8973,2.8809,2.8779,2.8818,2.8772,3.0207,3.0089,3.0162,3.037,3.0596,3.0801,3.0928,3.0928,3.0928,3.0928,3.0928,3.0928,3.0918,3.0849,3.0713,3.1167,3.1953,3.2394,3.325,3.4359,3.5416,3.5877,3.6243,3.6394,3.5786,3.5343,3.3403,3.1542,3.0146,2.9085,2.8344,2.8301,2.8301,2.8301,2.832,2.8428,2.8555,2.8603,2.8984,2.834,2.6987,2.5694,2.4448,2.3214,2.2036,2.1195,2.0962,2.0869,2.0782,2.0681,2.0808,2.0889,2.1036,2.1069,2.1089,2.1102,2.1102,2.1102,2.1197,2.1285,2.1317,2.1443,2.2059,2.2372,2.2671,2.2702,2.2302,2.2177,2.1222,2.1102,2.1102,2.1102,2.1102,2.1102,2.1102,2.1102,2.1102,2.1102,2.1102,2.1102,2.1102,2.1102,2.1102,2.1102,2.1102,2.1102,2.1102,2.1102,2.1166,2.1814,2.292,2.3962,2.4355,2.6062,2.8703,2.9521,2.953,2.9501,2.9314,2.8969,2.8455,2.8878,2.9448,2.9602,2.9689,2.9678,2.9706,2.9764,2.9637,2.9412,2.9324,2.9219,2.9199,2.917,2.9199,2.9593,2.9059,2.9707,3.0068,3.0185,3.0596,3.0781,3.0801,3.0859,3.0928,3.0859,3.081,3.081,3.0644,3.0408,3.103,3.1742,3.2539,3.3565,3.4858,3.5861,3.6171,3.6313,3.6334,3.5439,3.3848,3.1862,3.0798,2.9755,2.883,2.8301,2.8301,2.8301,2.8301,2.8418,2.8652,2.884,2.8984,2.9113,2.8861,2.764,2.6168,2.4803,2.3417,2.2128,2.1197,2.1102,2.1102,2.1096,2.1076,2.1036,2.1062,2.1366,2.1506,2.1727,2.1814,2.2358,2.2327,2.2208,2.2389,2.2208,2.2334,2.3325,2.3931,2.4232,2.4108,2.3706,2.282,2.187,2.126,2.126,2.1102,2.1102,2.1102,2.1102,2.1102,2.1102,2.1102,2.1102,2.1102,2.1102,2.1102,2.1102,2.1102,2.1102,2.1102,2.1102,2.1102,2.138,2.249,2.3621,2.4901,2.5841,2.797,3.0362,3.0577,3.0392,3.0392,3.0177,3.0354,3.0412,3.02,3.0036,2.9957,3.0018,3.0106,3.0077,3.0039,2.9911,2.9823,2.9715,2.9619,2.9452,2.9461,2.957,2.8768,2.8908,2.9101,2.9365,2.9745,3.0146,3.0322,3.04,3.0732,3.0928,3.0762,3.0478,3.0332,3.0303,2.9883,3.0672,3.255,3.3112,3.4438,3.5932,3.6317,3.6409,3.6254,3.5923,3.4739,3.2937,3.1045,2.989,2.9314,2.8651,2.8301,2.8301,2.832,2.834,2.8389,2.8701,2.9064,2.9277,2.9547,2.947,2.795,2.644,2.4865,2.3424,2.2003,2.138,2.1102,2.1102,2.1102,2.1102,2.1229,2.1285,2.1751,2.2459,2.2983,2.3318,2.383,2.4278,2.4278,2.4247,2.4186,2.4371,2.523,2.5528,2.5711,2.568,2.4947,2.3776,2.2827,2.1996,2.1751,2.1229,2.1102,2.1102,2.1102,2.1102,2.1102,2.1102,2.1102,2.1102,2.1102,2.1102,2.1102,2.1102,2.1102,2.1102,2.1102,2.1166,2.1688,2.2952,2.4355,2.578,2.7172,2.8703,3.0557,3.0801,3.0733,3.0859,3.0908,3.0752,3.0713,3.0801,3.0664,3.0449,3.0517,3.0654,3.0585,3.0361,3.0497,3.0419,3.0214,3.0019,2.9803,2.9657,2.9717]},{"header":{"parameterUnit":"m.s-1","parameterCategory":1,"la1":31.0,"la2":29.5877,"lo1":-88.7671,"lo2":-86.6584,"dy":0.0162,"dx":0.0185,"nx":115,"ny":88,"refTime":"2026-05-11T12:00:00:Z","depth":0,"parameterNumber":3,"parameterNumberName":"V-component_of_WINDS"},"data":[0.0,0.0,0.0,0.0,0.0,0.0,0.0,0.0,0.0,0.0,0.0,0.0,0.0,0.0,0.0,0.0,0.0,0.0,0.0,0.0,0.0,0.0,0.0,0.0,0.0,0.0,0.0,0.0,0.0,0.0,0.0,0.0,0.0,0.0,0.0,0.0,0.0,0.0,0.0,0.0,0.0,0.0,0.0,0.0,0.0,0.0,0.0,0.0,0.0,0.0,0.0,0.0,0.0,0.0,0.0,0.0,0.0,0.0,0.0,0.0,0.0,0.0,0.0,0.0,0.0,0.0,0.0,0.0,0.0,0.0,0.0,0.0,0.0,0.0,0.0,0.0,0.0,0.0,0.0,0.0,0.0,0.0,0.0,0.0,0.0,0.0,0.0,0.0,0.0,0.0,0.0,0.0,0.0,0.0,0.0,0.0,0.0,0.0,0.0,0.0,0.0,0.0,0.0,0.0,0.0,0.0,0.0,0.0,0.0,0.0,0.0,0.0,0.0,0.0,0.0,0.0,0.0,0.0,0.0,0.0,0.0,0.0,0.0,0.0,0.0,0.0,0.0,0.0,0.0,0.0,0.0,0.0,0.0,0.0,0.0,0.0,0.0,0.0,0.0,0.0,0.0,0.0,0.0,0.0,0.0,0.0,0.0,0.0,0.0,0.0,0.0,0.0,0.0,0.0,0.0,0.0,0.0,0.0,0.0,0.0,0.0,0.0,0.0,0.0,0.0,0.0,0.0,0.0,0.0,0.0,0.0,0.0,0.0,0.0,0.0,0.0,0.0,0.0,0.0,0.0,0.0,0.0,0.0,0.0,0.0,0.0,0.0,0.0,0.0,0.0,0.0,0.0,0.0,0.0,0.0,0.0,0.0,0.0,0.0,0.0,0.0,0.0,0.0,0.0,0.0,0.0,0.0,0.0,0.0,0.0,0.0,0.0,0.0,0.0,0.0,0.0,0.0,0.0,0.0,0.0,0.0,0.0,0.0,0.0,0.0,0.0,0.0,0.0,0.0,0.0,0.0,0.0,0.0,0.0,0.0,0.0,0.0,0.0,0.0,0.0,0.0,0.0,0.0,0.0,0.0,0.0,0.0,0.0,0.0,0.0,0.0,0.0,0.0,0.0,0.0,0.0,0.0,0.0,0.0,0.0,0.0,0.0,0.0,0.0,0.0,0.0,0.0,0.0,0.0,0.0,0.0,0.0,0.0,0.0,0.0,0.0,0.0,0.0,0.0,0.0,0.0,0.0,0.0,0.0,0.0,0.0,0.0,0.0,0.0,0.0,0.0,0.0,0.0,0.0,0.0,0.0,0.0,0.0,0.0,0.0,0.0,0.0,0.0,0.0,0.0,0.0,0.0,0.0,0.0,0.0,0.0,0.0,0.0,0.0,0.0,0.0,0.0,0.0,0.0,0.0,0.0,0.0,0.0,0.0,0.0,0.0,0.0,0.0,0.0,0.0,0.0,0.0,0.0,0.0,0.0,0.0,0.0,0.0,0.0,0.0,0.0,0.0,0.0,0.0,0.0,0.0,0.0,0.0,0.0,0.0,0.0,0.0,0.0,0.0,0.0,0.0,0.0,0.0,0.0,0.0,0.0,0.0,0.0,0.0,0.0,0.0,0.0,0.0,0.0,0.0,0.0,0.0,0.0,0.0,0.0,0.0,0.0,0.0,0.0,0.0,0.0,0.0,0.0,0.0,0.0,0.0,0.0,0.0,0.0,0.0,0.0,0.0,0.0,0.0,0.0,0.0,0.0,0.0,0.0,0.0,0.0,0.0,0.0,0.0,0.0,0.0,0.0,0.0,0.0,0.0,0.0,0.0,0.0,0.0,0.0,0.0,0.0,0.0,0.0,0.0,0.0,0.0,0.0,0.0,0.0,0.0,0.0,0.0,0.0,0.0,0.0,0.0,0.0,0.0,0.0,0.0,0.0,0.0,0.0,0.0,0.0,0.0,0.0,0.0,0.0,0.0,0.0,0.0,0.0,0.0,0.0,0.0,0.0,0.0,0.0,0.0,0.0,0.0,0.0,0.0,0.0,0.0,0.0,0.0,0.0,0.0,0.0,0.0,0.0,0.0,0.0,0.0,0.0,0.0,0.0,0.0,0.0,0.0,0.0,0.0,0.0,0.0,0.0,0.0,0.0,0.0,0.0,0.0,0.0,0.0,0.0,0.0,0.0,0.0,0.0,0.0,0.0,0.0,0.0,0.0,0.0,0.0,0.0,0.0,0.0,0.0,0.0,0.0,0.0,0.0,0.0,0.0,0.0,0.0,0.0,0.0,0.0,0.0,0.0,0.0,0.0,0.0,0.0,0.0,0.0,0.0,0.0,0.0,0.0,0.0,0.0,0.0,0.0,0.0,0.0,0.0,0.0,0.0,0.0,0.0,0.0,0.0,0.0,0.0,0.0,0.0,0.0,0.0,0.0,0.0,0.0,0.0,0.0,0.0,0.0,0.0,0.0,0.0,0.0,0.0,0.0,0.0,0.0,0.0,0.0,0.0,0.0,0.0,0.0,0.0,0.0,0.0,0.0,0.0,0.0,0.0,0.0,0.0,0.0,0.0,0.0,0.0,0.0,0.0,0.0,0.0,0.0,0.0,0.0,0.0,0.0,0.0,0.0,0.0,0.0,0.0,0.0,0.0,0.0,0.0,0.0,0.0,0.0,0.0,0.0,0.0,0.0,0.0,0.0,0.0,0.0,0.0,0.0,0.0,0.0,0.0,0.0,0.0,0.0,0.0,0.0,0.0,0.0,0.0,0.0,0.0,0.0,0.0,0.0,0.0,0.0,0.0,0.0,0.0,0.0,0.0,0.0,0.0,0.0,0.0,0.0,0.0,0.0,0.0,0.0,0.0,0.0,0.0,0.0,0.0,0.0,0.0,0.0,0.0,0.0,0.0,0.0,0.0,0.0,0.0,0.0,0.0,0.0,0.0,0.0,0.0,0.0,0.0,0.0,0.0,0.0,0.0,0.0,0.0,0.0,0.0,0.0,0.0,0.0,0.0,0.0,0.0,0.0,0.0,0.0,0.0,0.0,0.0,0.0,0.0,0.0,0.0,0.0,0.0,0.0,0.0,0.0,0.0,0.0,0.0,0.0,0.0,0.0,0.0,0.0,0.0,0.0,0.0,0.0,0.0,0.0,0.0,0.0,0.0,0.0,0.0,0.0,0.0,0.0,0.0,0.0,0.0,0.0,0.0,0.0,0.0,0.0,0.0,0.0,0.0,0.0,0.0,0.0,0.0,0.0,0.0,0.0,0.0,0.0,0.0,0.0,0.0,0.0,0.0,0.0,0.0,0.0,0.0,0.0,0.0,0.0,0.0,0.0,0.0,0.0,0.0,0.0,0.0,0.0,0.0,0.0,0.0,0.0,0.0,0.0,0.0,0.0,0.0,0.0,0.0,0.0,0.0,0.0,0.0,0.0,0.0,0.0,0.0,0.0,0.0,0.0,0.0,0.0,0.0,0.0,0.0,0.0,0.0,0.0,0.0,0.0,0.0,0.0,0.0,0.0,0.0,0.0,0.0,0.0,0.0,0.0,0.0,0.0,0.0,0.0,0.0,0.0,0.0,0.0,0.0,0.0,0.0,0.0,0.0,0.0,0.0,0.0,0.0,0.0,0.0,0.0,0.0,0.0,0.0,0.0,0.0,0.0,0.0,0.0,0.0,0.0,0.0,0.0,0.0,0.0,0.0,0.0,0.0,0.0,0.0,0.0,0.0,0.0,0.0,0.0,0.0,0.0,0.0,0.0,0.0,0.0,0.0,0.0,0.0,0.0,0.0,0.0,0.0,0.0,0.0,0.0,0.0,0.0,0.0,0.0,0.0,0.0,0.0,0.0,0.0,0.0,0.0,0.0,0.0,0.0,0.0,0.0,0.0,0.0,0.0,0.0,0.0,0.0,0.0,0.0,0.0,0.0,0.0,0.0,0.0,0.0,0.0,0.0,0.0,0.0,0.0,0.0,0.0,0.0,0.0,0.0,0.0,0.0,0.0,0.0,0.0,0.0,0.0,0.0,0.0,0.0,0.0,0.0,0.0,0.0,0.0,0.0,0.0,0.0,0.0,0.0,0.0,0.0,0.0,0.0,0.0,0.0,0.0,0.0,0.0,0.0,0.0,0.0,0.0,0.0,0.0,0.0,0.0,0.0,0.0,0.0,0.0,0.0,0.0,0.0,0.0,0.0,0.0,0.0,0.0,0.0,0.0,0.0,0.0,0.0,0.0,0.0,0.0,0.0,0.0,0.0,0.0,0.0,0.0,0.0,0.0,1.6318,0.0,0.0,0.0,0.0,0.0,0.0,0.0,0.0,0.0,0.0,0.0,0.0,0.0,0.0,0.0,0.0,0.0,0.0,0.0,0.0,0.0,0.0,0.0,0.0,0.0,0.0,0.0,0.0,0.0,0.0,0.0,0.0,0.0,0.0,0.0,0.0,0.0,0.0,0.0,0.0,0.0,0.0,0.0,0.0,0.0,0.0,0.0,0.0,0.0,0.0,0.0,0.0,0.0,0.0,0.0,0.0,0.0,0.0,0.0,0.0,0.0,0.0,0.0,0.0,0.0,0.0,0.0,0.0,0.0,0.0,0.0,0.0,0.0,0.0,0.0,0.0,0.0,0.0,0.0,0.0,0.0,0.0,0.0,0.0,0.0,0.0,0.0,0.0,0.0,0.0,0.0,0.0,0.0,0.0,0.0,0.0,0.0,0.0,0.0,0.0,0.0,0.0,0.0,0.0,0.0,0.0,0.0,0.0,0.0,0.0,1.7556,1.7241,1.7234,1.6947,1.6334,0.0,0.0,0.0,0.0,0.0,0.0,0.0,0.0,0.0,0.0,0.0,0.0,0.0,0.0,0.0,0.0,0.0,0.0,0.0,0.0,0.0,0.0,0.0,0.0,0.0,0.0,0.0,0.0,0.0,0.0,0.0,0.0,0.0,0.0,0.0,0.0,0.0,0.0,0.0,0.0,0.0,0.0,0.0,0.0,0.0,0.0,0.0,0.0,0.0,0.0,0.0,0.0,0.0,0.0,0.0,0.0,0.0,0.0,0.0,0.0,0.0,0.0,0.0,0.0,0.0,0.0,0.0,0.0,0.0,0.0,0.0,0.0,0.0,0.0,0.0,0.0,0.0,0.0,0.0,0.0,0.0,0.0,0.0,0.0,0.0,0.0,0.0,0.0,0.0,0.0,0.0,0.0,0.0,0.0,0.0,0.0,0.0,0.0,0.0,0.0,0.0,0.0,0.0,0.0,0.0,0.0,0.0,0.0,0.0,0.0,0.0,0.0,1.7923,1.7591,1.6926,0.0,0.0,0.0,0.0,0.0,0.0,0.0,0.0,0.0,0.0,0.0,0.0,0.0,0.0,0.0,0.0,0.0,0.0,0.0,0.0,0.0,0.0,0.0,0.0,0.0,0.0,0.0,0.0,0.0,0.0,0.0,0.0,0.0,0.0,0.0,0.0,0.0,0.0,0.0,0.0,0.0,0.0,0.0,0.0,0.0,0.0,0.0,0.0,0.0,0.0,0.0,0.0,0.0,0.0,0.0,0.0,0.0,0.0,0.0,0.0,0.0,0.0,0.0,0.0,0.0,0.0,0.0,0.0,0.0,0.0,0.0,0.0,0.0,0.0,0.0,0.0,0.0,0.0,0.0,0.0,0.0,0.0,0.0,0.0,0.0,0.0,0.0,0.0,0.0,0.0,0.0,0.0,0.0,0.0,0.0,0.0,0.0,0.0,0.0,0.0,0.0,0.0,0.0,0.0,0.0,0.0,0.0,0.0,0.0,0.0,1.7354,1.8559,1.8604,0.0,1.8555,0.0,0.0,0.0,0.0,0.0,0.0,0.0,0.0,0.0,0.0,0.0,0.0,0.0,0.0,0.0,0.0,0.0,0.0,0.0,0.0,0.0,0.0,0.0,0.0,0.0,0.0,0.0,0.0,0.0,0.0,0.0,0.0,0.0,0.0,0.0,0.0,0.0,0.0,0.0,0.0,0.0,0.0,0.0,0.0,0.0,0.0,0.0,0.0,0.0,0.0,0.0,0.0,0.0,0.0,0.0,0.0,0.0,0.0,0.0,0.0,0.0,0.0,0.0,0.0,0.0,0.0,0.0,0.0,0.0,0.0,0.0,0.0,0.0,0.0,0.0,0.0,0.0,0.0,0.0,0.0,0.0,0.0,0.0,0.0,0.0,0.0,0.0,0.0,0.0,0.0,0.0,0.0,0.0,0.0,0.0,0.0,0.0,0.0,0.0,0.0,0.0,0.0,0.0,0.0,0.0,0.0,0.0,0.0,0.0,0.0,1.8132,1.8702,1.8311,1.8143,0.0,0.0,0.0,0.0,0.0,0.0,0.0,0.0,0.0,0.0,0.0,0.0,0.0,0.0,0.0,0.0,0.0,0.0,0.0,0.0,0.0,0.0,0.0,0.0,0.0,0.0,0.0,0.0,0.0,0.0,0.0,0.0,0.0,0.0,0.0,0.0,0.0,0.0,0.0,0.0,0.0,0.0,0.0,0.0,0.0,0.0,0.0,0.0,0.0,0.0,0.0,0.0,0.0,0.0,0.0,0.0,0.0,0.0,0.0,0.0,0.0,0.0,0.0,0.0,0.0,0.0,0.0,0.0,0.0,0.0,0.0,0.0,0.0,0.0,0.0,0.0,0.0,0.0,0.0,0.0,0.0,0.0,0.0,0.0,0.0,0.0,0.0,0.0,0.0,0.0,0.0,0.0,0.0,0.0,0.0,0.0,0.0,0.0,0.0,0.0,0.0,0.0,0.0,0.0,0.0,0.0,0.0,0.0,0.0,0.0,1.8132,1.8589,1.8927,1.8147,1.7814,1.807,0.0,0.0,0.0,0.0,0.0,0.0,0.0,0.0,0.0,0.0,0.0,0.0,0.0,0.0,0.0,0.0,0.0,0.0,0.0,0.0,0.0,0.0,0.0,0.0,0.0,0.0,0.0,0.0,0.0,0.0,0.0,0.0,0.0,0.0,0.0,0.0,0.0,0.0,0.0,0.0,0.0,0.0,0.0,0.0,0.0,0.0,0.0,0.0,0.0,0.0,0.0,0.0,0.0,0.0,0.0,0.0,0.0,0.0,0.0,0.0,0.0,0.0,0.0,0.0,0.0,0.0,0.0,0.0,0.0,0.0,0.0,0.0,0.0,0.0,0.0,0.0,0.0,0.0,0.0,0.0,0.0,0.0,0.0,0.0,0.0,0.0,0.0,0.0,0.0,0.0,0.0,0.0,0.0,0.0,0.0,0.0,0.0,0.0,0.0,0.0,0.0,0.0,0.0,0.0,0.0,0.0,0.0,0.0,0.0,1.8365,1.838,1.9564,1.8395,1.8036,0.0,0.0,0.0,0.0,0.0,0.0,0.0,0.0,0.0,0.0,0.0,0.0,0.0,0.0,0.0,0.0,0.0,0.0,0.0,0.0,0.0,0.0,0.0,0.0,0.0,0.0,0.0,0.0,0.0,0.0,0.0,0.0,0.0,0.0,0.0,0.0,0.0,0.0,0.0,0.0,0.0,0.0,0.0,0.0,0.0,0.0,0.0,0.0,0.0,0.0,0.0,0.0,0.0,0.0,0.0,0.0,0.0,0.0,0.0,0.0,0.0,0.0,0.0,0.0,0.0,0.0,0.0,0.0,0.0,0.0,0.0,0.0,0.0,0.0,0.0,0.0,0.0,0.0,0.0,0.0,0.0,0.0,0.0,0.0,0.0,0.0,0.0,0.0,0.0,0.0,0.0,0.0,0.0,0.0,0.0,0.0,0.0,0.0,0.0,0.0,0.0,0.0,0.0,0.0,0.0,0.0,0.0,0.0,0.0,1.7155,1.7527,1.8335,1.9603,1.841,1.8051,0.0,0.0,0.0,0.0,0.0,0.0,0.0,0.0,0.0,0.0,0.0,0.0,0.0,0.0,0.0,0.0,0.0,0.0,0.0,0.0,0.0,0.0,0.0,0.0,0.0,0.0,0.0,0.0,0.0,0.0,0.0,0.0,0.0,0.0,0.0,0.0,0.0,0.0,0.0,0.0,0.0,0.0,0.0,0.0,0.0,0.0,0.0,0.0,0.0,0.0,0.0,0.0,0.0,0.0,0.0,0.0,0.0,0.0,0.0,0.0,0.0,0.0,0.0,0.0,0.0,0.0,0.0,0.0,0.0,0.0,0.0,0.0,0.0,0.0,0.0,0.0,0.0,0.0,0.0,0.0,0.0,0.0,0.0,0.0,0.0,0.0,0.0,0.0,0.0,0.0,0.0,0.0,0.0,0.0,0.0,0.0,0.0,0.0,0.0,0.0,0.0,0.0,0.0,0.0,0.0,0.0,0.0,0.0,0.0,1.705,0.0,1.9008,0.0,1.841,1.7782,0.0,0.0,0.0,0.0,0.0,0.0,0.0,0.0,0.0,0.0,0.0,0.0,0.0,0.0,0.0,0.0,0.0,0.0,0.0,0.0,0.0,0.0,0.0,0.0,0.0,0.0,0.0,0.0,0.0,0.0,0.0,0.0,0.0,0.0,0.0,0.0,0.0,0.0,0.0,0.0,0.0,0.0,0.0,0.0,0.0,0.0,0.0,0.0,0.0,0.0,0.0,0.0,0.0,0.0,0.0,0.0,0.0,0.0,0.0,0.0,0.0,0.0,0.0,0.0,0.0,0.0,0.0,0.0,0.0,0.0,0.0,0.0,0.0,0.0,0.0,0.0,0.0,0.0,0.0,0.0,0.0,0.0,0.0,0.0,0.0,0.0,0.0,0.0,0.0,0.0,0.0,0.0,0.0,0.0,0.0,0.0,0.0,0.0,0.0,0.0,0.0,0.0,0.0,0.0,0.0,0.0,0.0,0.0,1.708,1.9498,2.0213,2.0228,1.9699,1.838,1.7272,0.0,0.0,0.0,0.0,0.0,0.0,0.0,0.0,0.0,0.0,0.0,0.0,0.0,0.0,0.0,0.0,0.0,0.0,0.0,0.0,0.0,0.0,0.0,0.0,0.0,0.0,0.0,0.0,0.0,0.0,0.0,0.0,0.0,0.0,0.0,0.0,0.0,0.0,0.0,0.0,0.0,0.0,0.0,0.0,0.0,0.0,0.0,0.0,0.0,0.0,0.0,0.0,0.0,0.0,0.0,0.0,0.0,0.0,0.0,0.0,0.0,0.0,0.0,0.0,0.0,0.0,0.0,0.0,0.0,0.0,0.0,0.0,0.0,0.0,0.0,0.0,0.0,0.0,0.0,0.0,0.0,0.0,0.0,0.0,0.0,0.0,0.0,0.0,0.0,0.0,0.0,0.0,0.0,0.0,0.0,0.0,0.0,0.0,0.0,0.0,0.0,0.0,0.0,0.0,0.0,0.0,0.0,0.0,0.0,1.7675,1.8739,1.9426,1.9633,1.7953,1.7407,0.0,0.0,0.0,0.0,0.0,0.0,0.0,0.0,0.0,0.0,0.0,0.0,0.0,0.0,0.0,0.0,0.0,0.0,0.0,0.0,0.0,0.0,0.0,0.0,0.0,0.0,0.0,0.0,0.0,0.0,0.0,0.0,0.0,0.0,0.0,0.0,0.0,0.0,0.0,0.0,0.0,0.0,0.0,0.0,0.0,0.0,0.0,0.0,0.0,0.0,0.0,0.0,0.0,0.0,0.0,0.0,0.0,0.0,0.0,0.0,0.0,0.0,0.0,0.0,0.0,0.0,0.0,0.0,0.0,0.0,0.0,0.0,0.0,0.0,0.0,0.0,0.0,0.0,0.0,0.0,0.0,0.0,0.0,0.0,0.0,0.0,0.0,0.0,0.0,0.0,0.0,0.0,0.0,0.0,0.0,0.0,0.0,0.0,0.0,0.0,0.0,0.0,0.0,0.0,0.0,0.0,0.0,0.0,0.0,1.828,1.9501,2.0148,2.0079,1.861,1.7946,1.8217,0.0,0.0,0.0,0.0,0.0,0.0,0.0,0.0,0.0,0.0,0.0,0.0,0.0,0.0,0.0,0.0,0.0,0.0,0.0,0.0,0.0,0.0,0.0,0.0,0.0,0.0,0.0,0.0,0.0,0.0,0.0,0.0,0.0,0.0,0.0,0.0,0.0,0.0,0.0,0.0,0.0,0.0,0.0,0.0,0.0,0.0,0.0,0.0,0.0,0.0,0.0,0.0,0.0,0.0,0.0,0.0,0.0,0.0,0.0,0.0,0.0,0.0,0.0,0.0,0.0,0.0,0.0,0.0,0.0,0.0,0.0,0.0,0.0,0.0,0.0,0.0,0.0,0.0,0.0,0.0,0.0,0.0,0.0,0.0,0.0,0.0,0.0,0.0,0.0,0.0,0.0,0.0,0.0,0.0,0.0,0.0,0.0,0.0,0.0,0.0,0.0,0.0,0.0,0.0,0.0,0.0,0.0,0.0,2.0862,2.2139,2.2158,2.0922,2.0088,1.8837,0.0,0.0,0.0,0.0,0.0,0.0,0.0,0.0,0.0,0.0,0.0,0.0,0.0,0.0,0.0,0.0,0.0,0.0,0.0,0.0,0.0,0.0,0.0,0.0,0.0,0.0,0.0,0.0,0.0,0.0,0.0,0.0,0.0,0.0,0.0,0.0,0.0,0.0,0.0,0.0,0.0,0.0,0.0,0.0,0.0,0.0,0.0,0.0,0.0,0.0,0.0,0.0,0.0,0.0,0.0,0.0,0.0,0.0,0.0,0.0,0.0,0.0,0.0,0.0,0.0,0.0,0.0,0.0,0.0,0.0,0.0,0.0,0.0,0.0,0.0,0.0,0.0,0.0,0.0,0.0,0.0,0.0,0.0,0.0,0.0,0.0,0.0,0.0,0.0,0.0,0.0,0.0,0.0,0.0,0.0,0.0,0.0,0.0,0.0,0.0,0.0,0.0,0.0,0.0,0.0,0.0,0.0,0.0,0.0,2.2806,2.3659,2.3693,2.2836,2.0806,1.9699,0.0,0.0,0.0,0.0,0.0,0.0,0.0,0.0,0.0,0.0,0.0,0.0,0.0,0.0,0.0,0.0,0.0,0.0,0.0,0.0,0.0,0.0,0.0,0.0,0.0,0.0,0.0,0.0,0.0,0.0,0.0,0.0,0.0,0.0,0.0,0.0,0.0,0.0,0.0,0.0,0.0,0.0,0.0,0.0,0.0,0.0,0.0,0.0,0.0,0.0,0.0,0.0,0.0,0.0,0.0,0.0,0.0,0.0,0.0,0.0,0.0,0.0,0.0,0.0,0.0,0.0,0.0,0.0,0.0,0.0,0.0,0.0,0.0,0.0,0.0,0.0,0.0,0.0,0.0,0.0,0.0,0.0,0.0,0.0,0.0,0.0,0.0,0.0,0.0,0.0,0.0,0.0,0.0,0.0,0.0,0.0,0.0,0.0,0.0,0.0,0.0,0.0,0.0,0.0,0.0,0.0,0.0,0.0,2.2458,2.3988,2.4676,2.484,2.4448,2.2183,2.0741,0.0,0.0,0.0,0.0,0.0,0.0,0.0,0.0,0.0,0.0,0.0,0.0,0.0,0.0,0.0,0.0,0.0,0.0,0.0,0.0,0.0,0.0,0.0,0.0,0.0,0.0,0.0,0.0,0.0,0.0,0.0,0.0,0.0,0.0,0.0,0.0,0.0,0.0,0.0,0.0,0.0,0.0,0.0,0.0,0.0,0.0,0.0,0.0,0.0,0.0,0.0,0.0,0.0,0.0,0.0,0.0,0.0,0.0,0.0,0.0,0.0,0.0,0.0,0.0,0.0,0.0,0.0,0.0,0.0,0.0,0.0,0.0,0.0,0.0,0.0,0.0,0.0,0.0,0.0,0.0,0.0,0.0,0.0,0.0,0.0,0.0,0.0,0.0,0.0,0.0,0.0,0.0,0.0,0.0,0.0,0.0,0.0,0.0,0.0,0.0,0.0,0.0,0.0,0.0,0.0,0.0,0.0,0.0,2.2921,2.4784,2.5393,2.5663,2.5558,2.377,2.1884,0.0,0.0,0.0,0.0,0.0,0.0,0.0,0.0,0.0,0.0,0.0,0.0,0.0,0.0,0.0,0.0,0.0,0.0,0.0,0.0,0.0,0.0,0.0,0.0,0.0,0.0,0.0,0.0,0.0,0.0,0.0,0.0,0.0,0.0,0.0,0.0,0.0,0.0,0.0,0.0,0.0,0.0,0.0,0.0,0.0,0.0,0.0,0.0,0.0,0.0,0.0,0.0,0.0,0.0,0.0,0.0,0.0,0.0,0.0,0.0,0.0,0.0,0.0,0.0,0.0,0.0,0.0,0.0,0.0,0.0,0.0,0.0,0.0,0.0,0.0,0.0,0.0,0.0,0.0,0.0,0.0,0.0,0.0,0.0,0.0,0.0,0.0,0.0,0.0,0.0,0.0,0.0,0.0,0.0,0.0,0.0,0.0,0.0,0.0,0.0,0.0,0.0,0.0,0.0,0.0,0.0,0.0,0.0,2.4706,2.6123,2.6303,2.6138,2.5615,2.4178,2.2737,0.0,0.0,0.0,0.0,0.0,0.0,0.0,0.0,0.0,0.0,0.0,0.0,0.0,0.0,0.0,0.0,0.0,0.0,0.0,0.0,0.0,0.0,0.0,0.0,0.0,0.0,0.0,0.0,0.0,0.0,0.0,0.0,0.0,0.0,0.0,0.0,0.0,0.0,0.0,0.0,0.0,0.0,0.0,0.0,0.0,0.0,0.0,0.0,2.0181,0.0,0.0,0.0,0.0,0.0,0.0,0.0,0.0,0.0,0.0,0.0,0.0,0.0,0.0,0.0,0.0,0.0,0.0,0.0,0.0,0.0,0.0,0.0,0.0,0.0,0.0,0.0,0.0,0.0,0.0,0.0,0.0,0.0,0.0,0.0,0.0,0.0,0.0,0.0,0.0,0.0,0.0,0.0,0.0,0.0,0.0,0.0,0.0,0.0,0.0,0.0,0.0,0.0,0.0,0.0,0.0,0.0,0.0,0.0,2.5259,2.6554,2.6914,2.6599,2.5633,2.4911,2.3644,0.0,0.0,0.0,0.0,0.0,0.0,0.0,0.0,0.0,0.0,0.0,0.0,0.0,0.0,0.0,0.0,0.0,0.0,0.0,0.0,0.0,0.0,0.0,0.0,0.0,0.0,0.0,0.0,0.0,0.0,0.0,0.0,0.0,0.0,0.0,0.0,0.0,0.0,0.0,0.0,0.0,0.0,0.0,0.0,0.0,0.0,0.0,0.0,0.0,0.0,0.0,0.0,0.0,0.0,0.0,0.0,0.0,0.0,0.0,0.0,0.0,0.0,0.0,0.0,0.0,0.0,0.0,0.0,0.0,0.0,0.0,0.0,0.0,0.0,0.0,0.0,0.0,0.0,0.0,0.0,0.0,0.0,0.0,0.0,0.0,0.0,0.0,0.0,0.0,0.0,0.0,0.0,0.0,0.0,0.0,0.0,0.0,0.0,0.0,0.0,0.0,0.0,0.0,0.0,0.0,0.0,0.0,2.3687,2.5219,2.6704,2.73,2.7003,2.5809,2.5659,2.4421,2.1959,0.0,0.0,0.0,0.0,0.0,0.0,0.0,0.0,0.0,0.0,0.0,0.0,0.0,0.0,0.0,0.0,0.0,0.0,0.0,0.0,0.0,0.0,0.0,0.0,0.0,0.0,0.0,0.0,0.0,0.0,0.0,0.0,0.0,0.0,0.0,0.0,0.0,0.0,1.9913,2.1965,0.0,0.0,0.0,0.0,0.0,0.0,0.0,0.0,2.1377,0.0,0.0,0.0,0.0,0.0,0.0,0.0,0.0,0.0,0.0,0.0,0.0,0.0,0.0,0.0,0.0,0.0,0.0,0.0,0.0,0.0,0.0,0.0,0.0,0.0,0.0,0.0,0.0,0.0,0.0,0.0,0.0,0.0,0.0,0.0,0.0,0.0,0.0,0.0,0.0,0.0,0.0,0.0,0.0,0.0,0.0,0.0,0.0,0.0,0.0,0.0,0.0,0.0,0.0,0.0,0.0,2.407,2.4002,2.507,2.7363,2.754,2.724,2.6452,2.5887,2.4642,2.2653,0.0,0.0,0.0,0.0,0.0,0.0,0.0,0.0,0.0,0.0,0.0,0.0,0.0,0.0,0.0,0.0,0.0,0.0,0.0,0.0,0.0,0.0,0.0,0.0,0.0,0.0,0.0,0.0,0.0,0.0,0.0,0.0,0.0,0.0,0.0,0.0,0.0,0.0,0.0,2.4323,2.5099,0.0,0.0,0.0,0.0,0.0,0.0,0.0,0.0,2.141,0.0,0.0,0.0,0.0,0.0,0.0,0.0,0.0,0.0,0.0,0.0,0.0,0.0,0.0,0.0,0.0,0.0,0.0,0.0,0.0,0.0,0.0,0.0,0.0,0.0,0.0,0.0,0.0,0.0,0.0,0.0,0.0,0.0,0.0,0.0,0.0,0.0,0.0,0.0,0.0,0.0,0.0,0.0,0.0,0.0,0.0,0.0,0.0,0.0,0.0,0.0,0.0,0.0,0.0,0.0,2.3372,2.4311,2.5479,2.6975,2.7395,2.727,2.6614,2.5615,2.4332,0.0,0.0,0.0,0.0,0.0,0.0,0.0,0.0,0.0,0.0,0.0,0.0,0.0,0.0,0.0,0.0,0.0,0.0,0.0,0.0,0.0,0.0,0.0,0.0,0.0,0.0,0.0,0.0,0.0,0.0,0.0,0.0,0.0,0.0,0.0,0.0,0.0,0.0,0.0,0.0,2.5159,2.5705,2.6526,0.0,0.0,0.0,0.0,0.0,0.0,2.2919,2.2662,0.0,0.0,0.0,0.0,0.0,0.0,0.0,0.0,0.0,0.0,0.0,0.0,0.0,0.0,0.0,0.0,0.0,0.0,0.0,0.0,0.0,0.0,0.0,0.0,0.0,0.0,0.0,0.0,0.0,0.0,0.0,0.0,0.0,0.0,0.0,0.0,0.0,0.0,0.0,0.0,0.0,0.0,0.0,0.0,0.0,0.0,0.0,0.0,0.0,0.0,0.0,0.0,0.0,0.0,0.0,2.2709,2.4502,2.585,2.6688,2.7306,2.7258,2.6599,2.5423,2.4137,0.0,0.0,0.0,0.0,0.0,0.0,0.0,0.0,0.0,0.0,0.0,0.0,0.0,0.0,0.0,0.0,0.0,0.0,0.0,0.0,0.0,0.0,0.0,0.0,0.0,0.0,0.0,0.0,0.0,0.0,0.0,0.0,0.0,0.0,0.0,0.0,0.0,0.0,0.0,0.0,0.0,2.666,2.7444,2.6062,0.0,0.0,0.0,0.0,2.4038,2.4502,0.0,0.0,0.0,0.0,0.0,0.0,0.0,0.0,0.0,0.0,0.0,0.0,0.0,0.0,0.0,0.0,0.0,0.0,0.0,0.0,0.0,0.0,0.0,0.0,0.0,0.0,0.0,0.0,0.0,0.0,0.0,0.0,0.0,0.0,0.0,0.0,0.0,0.0,0.0,0.0,0.0,0.0,0.0,0.0,0.0,0.0,0.0,0.0,0.0,0.0,0.0,0.0,0.0,0.0,0.0,0.0,2.3379,2.4397,2.5739,2.7384,2.7562,2.7273,2.6614,2.5872,2.4612,0.0,0.0,0.0,0.0,0.0,0.0,0.0,0.0,0.0,0.0,0.0,0.0,0.0,0.0,0.0,0.0,0.0,0.0,0.0,0.0,0.0,0.0,0.0,0.0,0.0,0.0,0.0,0.0,0.0,0.0,0.0,0.0,0.0,0.0,0.0,0.0,0.0,0.0,0.0,0.0,0.0,2.8943,2.7011,2.7108,2.7145,0.0,0.0,2.6552,2.715,2.7334,0.0,0.0,0.0,0.0,0.0,0.0,0.0,0.0,0.0,0.0,0.0,0.0,0.0,0.0,0.0,0.0,0.0,0.0,0.0,0.0,0.0,0.0,0.0,0.0,0.0,0.0,0.0,0.0,0.0,0.0,0.0,0.0,0.0,0.0,0.0,0.0,0.0,0.0,0.0,0.0,0.0,0.0,0.0,0.0,0.0,0.0,0.0,0.0,0.0,0.0,0.0,0.0,0.0,0.0,0.0,2.094,2.2962,2.4861,2.6194,2.6951,2.7397,2.7285,2.6614,2.56,2.4122,0.0,0.0,0.0,0.0,0.0,0.0,0.0,0.0,0.0,0.0,0.0,0.0,0.0,0.0,0.0,0.0,0.0,0.0,0.0,0.0,0.0,0.0,0.0,0.0,0.0,0.0,0.0,0.0,0.0,0.0,0.0,0.0,0.0,0.0,0.0,0.0,0.0,0.0,0.0,0.0,0.0,0.0,2.865,2.8558,0.0,0.0,0.0,2.8069,2.8442,0.0,0.0,0.0,0.0,0.0,0.0,0.0,0.0,0.0,0.0,0.0,0.0,0.0,0.0,0.0,0.0,0.0,0.0,0.0,0.0,0.0,0.0,0.0,0.0,0.0,0.0,0.0,0.0,0.0,0.0,0.0,0.0,0.0,0.0,0.0,0.0,0.0,0.0,0.0,0.0,0.0,0.0,0.0,0.0,0.0,0.0,0.0,0.0,0.0,0.0,0.0,0.0,0.0,0.0,0.0,0.0,0.0,2.2798,2.547,2.6829,2.6798,2.7318,2.7198,2.6363,2.5379,0.0,0.0,0.0,0.0,0.0,0.0,0.0,0.0,0.0,0.0,0.0,0.0,0.0,0.0,0.0,0.0,0.0,0.0,0.0,0.0,0.0,0.0,0.0,0.0,0.0,0.0,0.0,1.622,0.0,0.0,0.0,0.0,0.0,0.0,0.0,0.0,0.0,0.0,0.0,0.0,0.0,0.0,2.8833,3.0026,3.002,3.0051,0.0,0.0,2.9837,2.9635,2.9941,2.9445,0.0,0.0,0.0,0.0,0.0,0.0,0.0,0.0,0.0,0.0,0.0,0.0,0.0,0.0,0.0,0.0,0.0,0.0,0.0,0.0,0.0,0.0,0.0,0.0,0.0,0.0,0.0,0.0,0.0,0.0,0.0,0.0,0.0,0.0,0.0,0.0,0.0,0.0,0.0,0.0,0.0,0.0,0.0,0.0,0.0,0.0,0.0,0.0,0.0,0.0,0.0,0.0,0.0,0.0,0.0,2.357,2.6168,2.7515,2.7537,2.7575,2.7001,2.5719,2.5573,2.4033,0.0,0.0,0.0,0.0,0.0,0.0,0.0,0.0,0.0,0.0,0.0,0.0,0.0,0.0,0.0,0.0,0.0,0.0,0.0,0.0,0.0,0.0,0.0,0.0,0.0,0.0,0.0,0.0,0.0,0.0,0.0,0.0,0.0,0.0,0.0,0.0,0.0,0.0,0.0,0.0,0.0,3.0093,3.0191,3.1451,3.2112,0.0,0.0,3.2112,3.1354,3.2485,3.2173,2.8343,0.0,0.0,0.0,0.0,0.0,0.0,0.0,0.0,0.0,0.0,0.0,0.0,0.0,0.0,0.0,0.0,0.0,0.0,0.0,0.0,0.0,0.0,0.0,0.0,0.0,0.0,0.0,0.0,0.0,0.0,0.0,0.0,0.0,0.0,0.0,0.0,0.0,0.0,0.0,0.0,0.0,0.0,0.0,0.0,0.0,0.0,0.0,0.0,0.0,0.0,0.0,0.0,0.0,2.2323,2.362,2.6237,2.7585,2.7585,2.7585,2.7138,2.6255,2.5809,2.4242,0.0,0.0,0.0,0.0,0.0,0.0,0.0,0.0,0.0,0.0,0.0,0.0,0.0,0.0,0.0,0.0,0.0,0.0,0.0,0.0,0.0,0.0,0.0,0.0,0.0,0.0,0.0,0.0,1.8718,1.9008,1.9218,0.0,0.0,0.0,0.0,0.0,0.0,0.0,0.0,0.0,0.0,3.1855,3.2357,3.3378,0.0,0.0,3.4222,3.3977,3.3672,3.3298,3.2204,2.9677,2.8723,0.0,0.0,0.0,0.0,0.0,0.0,0.0,0.0,0.0,0.0,0.0,0.0,0.0,0.0,0.0,0.0,0.0,0.0,0.0,0.0,0.0,0.0,0.0,0.0,0.0,0.0,0.0,0.0,0.0,0.0,0.0,0.0,0.0,0.0,0.0,0.0,0.0,0.0,0.0,0.0,0.0,0.0,0.0,0.0,0.0,0.0,0.0,0.0,0.0,0.0,0.0,0.0,2.2543,2.3595,2.6237,2.7585,2.7585,2.7585,2.7285,2.6614,2.5959,2.4462,0.0,0.0,0.0,0.0,0.0,0.0,0.0,0.0,0.0,0.0,0.0,0.0,0.0,0.0,0.0,0.0,0.0,0.0,0.0,0.0,0.0,0.0,0.0,0.0,0.0,0.0,0.0,0.0,1.975,1.9834,2.0165,0.0,0.0,0.0,0.0,0.0,0.0,0.0,0.0,0.0,0.0,3.3066,3.4357,3.503,3.561,3.6211,3.5562,3.5004,3.5004,3.4069,3.2693,3.087,0.0,0.0,0.0,0.0,0.0,0.0,0.0,0.0,0.0,0.0,0.0,0.0,0.0,0.0,0.0,0.0,0.0,0.0,0.0,0.0,0.0,0.0,0.0,0.0,0.0,0.0,0.0,1.7809,0.0,0.0,1.6834,0.0,0.0,0.0,0.0,0.0,0.0,0.0,0.0,0.0,0.0,0.0,0.0,0.0,0.0,0.0,0.0,0.0,0.0,0.0,0.0,0.0,0.0,2.2977,2.364,2.624,2.7585,2.7585,2.7585,2.7285,2.6644,2.5959,2.4683,2.2713,0.0,0.0,0.0,0.0,0.0,0.0,0.0,0.0,0.0,0.0,0.0,0.0,0.0,0.0,0.0,0.0,0.0,0.0,0.0,0.0,0.0,0.0,0.0,0.0,0.0,0.0,2.0454,1.9994,1.9897,0.0,0.0,0.0,0.0,0.0,0.0,0.0,0.0,0.0,0.0,3.2571,3.3507,3.5899,3.6285,3.634,3.6347,3.5628,3.5041,3.5059,3.4979,3.4142,0.0,0.0,0.0,0.0,0.0,0.0,0.0,0.0,0.0,0.0,0.0,0.0,0.0,0.0,0.0,0.0,0.0,0.0,0.0,0.0,0.0,0.0,0.0,0.0,0.0,0.0,0.0,2.0779,1.9758,0.0,0.0,0.0,0.0,0.0,0.0,0.0,0.0,0.0,0.0,0.0,2.4916,2.5364,0.0,0.0,0.0,0.0,0.0,0.0,0.0,0.0,0.0,0.0,0.0,0.0,2.3216,2.4306,2.6465,2.7585,2.7585,2.7585,2.7495,2.727,2.6614,2.4926,2.2139,0.0,0.0,0.0,0.0,0.0,0.0,0.0,0.0,0.0,0.0,0.0,0.0,0.0,0.0,0.0,0.0,0.0,0.0,0.0,0.0,0.0,0.0,0.0,0.0,0.0,2.1842,0.0,0.0,0.0,0.0,0.0,0.0,0.0,0.0,0.0,0.0,0.0,3.1598,3.3201,3.4816,3.6163,3.6997,3.7558,3.7892,0.0,0.0,0.0,0.0,0.0,0.0,0.0,0.0,0.0,0.0,0.0,0.0,0.0,0.0,3.199,2.7451,2.6594,2.6856,2.7635,0.0,0.0,0.0,0.0,0.0,0.0,0.0,0.0,0.0,0.0,0.0,0.0,0.0,0.0,2.2877,0.0,2.1804,0.0,0.0,0.0,0.0,0.0,0.0,0.0,0.0,2.6014,2.6704,2.7115,2.7472,2.7066,0.0,2.598,2.4526,0.0,0.0,0.0,0.0,0.0,0.0,0.0,0.0,2.3879,2.4978,2.6704,2.7585,2.7585,2.7585,2.7585,2.757,2.6734,2.5016,2.2443,2.1091,1.9579,0.0,0.0,0.0,0.0,0.0,0.0,0.0,0.0,0.0,0.0,0.0,0.0,0.0,0.0,0.0,0.0,0.0,0.0,0.0,0.0,0.0,0.0,0.0,2.2827,0.0,0.0,0.0,0.0,0.0,0.0,0.0,0.0,0.0,2.9873,3.1928,3.3947,3.5312,3.6641,3.7694,3.8264,0.0,0.0,0.0,0.0,0.0,0.0,0.0,3.6197,3.591,3.5231,3.4718,3.4669,3.5341,3.5782,3.5507,0.0,0.0,3.0797,2.9916,3.0118,3.0931,3.1928,3.2742,3.3049,3.3947,3.4571,0.0,0.0,0.0,0.0,0.0,0.0,0.0,0.0,2.5205,2.4954,0.0,2.4209,0.0,0.0,0.0,0.0,0.0,2.5756,0.0,0.0,2.9261,2.9871,3.0382,2.9873,2.9309,2.8682,2.8637,2.7604,2.5588,2.3161,0.0,0.0,0.0,0.0,0.0,0.0,2.4993,2.5689,2.6986,2.763,2.7645,2.7612,2.7585,2.757,2.6333,2.5016,2.367,2.2413,2.1121,1.9759,1.8799,0.0,0.0,0.0,0.0,0.0,0.0,0.0,0.0,0.0,0.0,0.0,0.0,0.0,0.0,0.0,0.0,0.0,0.0,0.0,0.0,2.3417,0.0,0.0,0.0,0.0,0.0,0.0,0.0,0.0,0.0,0.0,3.1776,3.369,3.5995,3.8388,0.0,0.0,0.0,0.0,3.9048,3.9827,3.9276,3.9074,3.9816,3.9258,3.8469,3.7731,0.0,0.0,3.6732,3.7099,3.7393,3.6622,3.7191,3.7364,3.6549,3.5,3.4241,3.4942,3.5206,3.55,3.6321,3.7525,3.8553,3.0331,0.0,0.0,0.0,0.0,2.8785,2.9665,3.0657,3.0471,3.0101,2.9622,2.8894,0.0,0.0,0.0,0.0,0.0,0.0,2.8226,2.8753,2.964,3.0215,3.0511,3.0816,3.0613,2.9968,2.9953,2.919,2.7754,2.6979,2.5001,2.1909,0.0,0.0,0.0,0.0,2.6348,2.7018,2.7887,2.8321,2.8321,2.7854,2.7585,2.7585,2.6776,2.5678,2.435,2.3494,2.2233,2.0498,1.9963,0.0,0.0,0.0,0.0,0.0,0.0,0.0,0.0,0.0,0.0,0.0,0.0,0.0,0.0,0.0,0.0,0.0,0.0,0.0,2.2994,2.3326,2.3874,0.0,0.0,0.0,0.0,0.0,0.0,0.0,0.0,0.0,3.573,3.6861,3.8112,0.0,0.0,4.001,3.9926,4.0186,4.0498,4.0718,4.0571,0.0,4.0718,4.0084,3.968,4.0029,4.0278,4.0241,3.9819,3.9911,3.9984,3.9745,3.9911,3.9992,3.9745,3.8872,3.8248,3.8487,3.8938,3.9407,3.969,4.0131,4.0406,3.4801,3.2263,3.1553,3.1438,3.171,3.2187,3.2981,3.39,3.3649,3.3451,3.3274,3.2566,3.1052,2.9006,2.8823,0.0,0.0,0.0,2.9884,3.0529,3.0948,3.1355,3.1704,3.2093,3.2078,3.1659,3.1136,3.0493,2.9717,2.925,2.7677,2.5132,0.0,0.0,2.56,2.6782,2.7722,2.8378,2.88,2.8861,2.8594,2.7931,2.7585,2.7585,2.6944,2.6225,2.5423,2.4496,2.333,2.1919,2.1559,2.0853,0.0,0.0,0.0,0.0,0.0,0.0,0.0,0.0,0.0,0.0,0.0,1.9963,1.8774,0.0,0.0,0.0,2.1451,2.2974,2.4831,2.5285,0.0,0.0,0.0,0.0,0.0,0.0,0.0,3.4504,3.6229,3.7679,3.8781,3.9625,4.0314,4.0781,4.1012,4.103,4.0873,0.0,4.1205,4.1544,4.158,4.169,4.1984,4.1387,4.102,4.1489,4.158,4.158,4.158,4.158,4.158,4.158,4.158,4.1672,4.1992,4.1644,4.1083,4.0543,4.102,4.1544,4.1562,4.1819,4.2066,3.8847,3.8117,3.5556,3.4697,3.5062,3.5178,3.5494,3.5927,3.5391,3.5485,3.5978,3.534,3.4332,3.3007,3.151,0.0,3.2811,3.195,3.2199,3.3372,3.2839,3.2916,3.3484,3.3499,3.3499,3.3455,3.2258,3.166,3.16,3.0477,2.9593,2.8981,2.8321,2.8201,2.8564,2.8697,2.9054,2.9653,2.9668,2.9338,2.8607,2.8004,2.7645,2.7585,2.6988,2.6617,2.6494,2.5334,2.435,2.3627,2.3277,2.246,2.1149,0.0,0.0,0.0,0.0,0.0,0.0,0.0,0.0,0.0,0.0,0.0,0.0,0.0,0.0,0.0,2.4455,0.0,2.7382,2.8436,0.0,0.0,0.0,3.0779,3.1758,3.3208,3.4724,3.6384,0.0,0.0,4.1003,4.1947,4.2488,4.2488,4.1801,4.1525,4.2204,4.1746,4.1562,4.2304,4.2396,4.2635,4.3194,4.2782,4.2341,4.2396,4.2396,4.2396,4.2396,4.2396,4.2396,4.2396,4.2396,4.2598,4.3359,4.3341,4.3039,4.1589,4.1892,4.2378,4.2433,4.3002,4.3488,4.1402,4.1213,4.0557,3.9112,3.7331,3.8376,3.8329,3.7515,3.786,3.8091,3.8183,3.7493,3.6974,3.6578,3.5062,3.4592,3.4915,3.4107,3.364,3.3472,3.3336,3.335,3.3499,3.3499,3.3499,3.3469,3.317,3.3036,3.3006,3.2721,3.2497,3.2302,3.1674,3.0417,2.8712,2.9564,3.0133,3.0296,3.0283,2.9743,2.8637,2.8442,2.8126,2.76,2.745,2.6884,2.5884,2.5543,2.481,2.3687,2.3762,2.3435,2.2533,2.1503,0.0,0.0,0.0,0.0,0.0,0.0,0.0,0.0,0.0,2.2673,2.0187,0.0,2.318,0.0,2.58,2.7332,2.8164,2.9016,0.0,0.0,3.2192,3.3084,3.5723,3.6372,3.7254,3.8843,4.0459,4.1589,4.1947,4.324,4.4131,4.4113,4.3415,4.2782,4.2396,4.269,4.2983,4.3139,4.3176,4.3286,4.3433,4.3359,4.3212,4.3212,4.3194,4.3212,4.3221,4.3231,4.3231,4.3231,4.3204,4.3304,4.3506,4.3488,4.3396,4.301,4.3084,4.3212,4.3222,4.3846,4.425,4.2794,4.2794,4.278,4.1866,4.0448,4.0909,4.0637,3.996,4.0319,4.046,4.0438,3.9686,3.9348,3.9235,3.741,3.6599,3.6538,3.5455,3.4742,3.4397,3.4397,3.4397,3.4382,3.4397,3.4397,3.4382,3.4099,3.3933,3.3934,3.3649,3.3499,3.3484,3.3125,3.2228,3.0836,3.0897,3.0957,3.0942,3.0643,3.0149,2.9475,2.8906,2.8276,2.763,2.7585,2.6973,2.5659,2.56,2.5124,2.4099,2.3884,2.3705,2.3483,2.2464,2.1763,0.0,0.0,0.0,0.0,0.0,0.0,0.0,0.0,0.0,0.0,0.0,2.4922,2.6229,2.8082,2.9757,3.1052,3.1857,3.3078,3.4954,3.5268,3.6193,3.8329,3.8906,3.957,4.0826,4.2066,4.2965,4.3342,4.447,4.5241,4.5232,4.4544,4.3883,4.3479,4.3469,4.3488,4.3488,4.3488,4.3488,4.3488,4.3488,4.3488,4.3488,4.3488,4.3488,4.3506,4.38,4.403,4.4057,4.4332,4.4571,4.4571,4.4571,4.4589,4.4571,4.4571,4.4424,4.4121,4.4681,4.5067,4.3558,4.3558,4.3558,4.3541,4.3507,4.2861,4.2486,4.2303,4.2303,4.2303,4.2266,4.161,4.1274,4.1049,3.9013,3.8005,3.7814,3.6316,3.5639,3.5624,3.5549,3.5489,3.5489,3.5489,3.5489,3.5474,3.4907,3.4637,3.4607,3.4054,3.3739,3.3754,3.3679,3.3619,3.359,3.2303,3.1585,3.1496,3.0927,3.0597,3.0478,2.9355,2.8425,2.7764,2.757,2.6884,2.5674,2.56,2.5277,2.4642,2.4066,2.3949,2.4324,2.3438,2.3113,0.0,2.2852,0.0,0.0,0.0,0.0,0.0,0.0,0.0,0.0,2.6656,2.7277,2.8985,3.0889,3.2788,3.4625,3.5522,3.6487,3.7668,3.8524,3.9323,4.0102,4.0836,4.1617,4.2498,4.324,4.3938,4.4727,4.5553,4.6067,4.5993,4.5507,4.5085,4.492,4.4268,4.3745,4.3763,4.3818,4.4002,4.3965,4.3892,4.3892,4.3855,4.3928,4.38,4.391,4.4415,4.4847,4.4902,4.5342,4.581,4.5902,4.5847,4.5847,4.5782,4.5783,4.5617,4.5104,4.5489,4.5957,4.4364,4.4364,4.4381,4.4381,4.4347,4.4228,4.345,4.2303,4.2303,4.2303,4.23,4.2134,4.1684,4.0967,3.9968,3.9121,3.8369,3.6971,3.6314,3.6314,3.5744,3.5489,3.5489,3.5489,3.5489,3.5489,3.537,3.531,3.531,3.519,3.5114,3.5115,3.4578,3.4308,3.4233,0.0,0.0,0.0,3.1376,3.1046,3.0507,2.9803,2.9099,2.8425,2.7348,0.0,2.5659,2.56,2.5292,2.4683,2.5279,0.0,0.0,0.0,0.0,0.0,0.0,0.0,0.0,0.0,0.0,0.0,2.8442,2.7841,2.7689,3.0089,3.1742,3.1959,3.3699,3.5243,3.6254,3.7421,3.8483,3.9368,4.0157,4.0956,4.1735,4.1992,4.2608,4.4076,4.4388,4.4764,4.5562,4.6388,4.6856,4.6865,4.6737,4.6654,4.6617,4.5379,4.4755,4.5278,4.5323,4.5406,4.5452,4.5378,4.5278,4.5452,4.5452,4.5388,4.5378,4.5498,4.5663,4.5672,4.5792,4.5938,4.5938,4.5902,4.5993,4.592,4.6038,4.6043,4.5755,4.6305,4.6541,4.4584,0.0,4.4584,4.4584,0.0,4.4584,4.4158,4.3433,4.3433,4.3433,4.3406,4.2981,4.2351,4.1524,4.0336,3.9359,3.8546,3.7447,3.6776,3.6508,3.6462,3.6103,3.5504,3.5848,3.5818,3.5519,3.5489,3.5489,3.5489,3.5489,3.5489,3.5489,3.516,3.4981,3.4952,3.3664,3.2512,3.1496,3.1496,3.1331,3.1002,3.0372,2.9579,2.8622,2.7949,0.0,0.0,0.0,0.0,0.0,0.0,0.0,0.0,0.0,0.0,2.6683,2.6716,2.6886,2.7249,2.796,2.9178,3.1031,3.1752,3.1632,3.0509,3.2827,3.4628,3.529,3.6433,3.7621,3.8806,3.9506,4.0204,4.0983,4.1452,4.2011,4.2763,4.3259,4.3801,4.459,4.5415,4.6058,4.6443,4.7177,4.7654,4.7672,4.7333,4.7259,4.7452,4.6315,4.5498,4.5856,4.5902,4.5883,4.5902,4.5902,4.5902,4.5902,4.5902,4.5902,4.5902,4.6232,4.6498,4.6516,4.6792,4.7095,4.7095,4.7095,4.7019,4.6732,4.6734,4.6628,4.6269,4.6462,4.6586,4.4584,4.4584,4.4584,4.4514,4.4369,4.4369,4.4369,4.4369,0.0,0.0,0.0,4.3381,4.2643,4.1844,4.048,3.946,3.8701,3.7922,3.73,3.6853,3.7225,3.6834,3.5893,3.6404,3.6357,3.5863,3.5848,3.5817,3.5817,3.5848,3.5757,3.5684,3.5669,3.5564,3.5265,3.4218,3.3021,3.175,3.1555,3.1496,3.1466,3.0837,3.0013,2.8951,2.8712,2.7829,2.624,2.713,2.7439,2.6894,2.6878,2.7411,2.8461,2.803,2.8223,2.9311,3.0091,3.0545,3.0623,3.1312,3.2154,3.3126,3.4914,3.5407,3.4053,3.5352,3.6865,3.8424,3.8901,3.9719,4.1158,4.1297,4.1635,4.2415,4.2635,4.3002,4.3663,4.4415,4.4957,4.5223,4.6269,4.7149,4.7296,4.7856,4.8315,4.8223,4.7746,4.7526,4.7948,4.7177,4.6416,4.6471,4.6544,4.6397,4.6361,4.6416,4.6305,4.6452,4.6416,4.6324,4.6406,4.6865,4.7259,4.7296,4.7874,4.8111,4.8125,4.7985,4.7927,4.7342,4.7128,4.6898,4.6395,4.6143,4.6054,4.4584,4.4584,4.4584,4.4167,4.3487,4.3471,4.3471,4.3487,4.3487,4.3078,4.2379,4.2237,4.1724,4.089,4.0654,4.0092,3.9273,3.8564,3.8197,3.811,3.7629,3.7315,3.715,3.7225,3.7223,3.7133,3.7135,3.7133,3.7118,3.7103,3.6881,3.6419,3.6359,3.579,3.4712,3.4443,3.3709,3.2392,3.1795,3.1496,3.1481,3.0852,3.0432,3.0208,2.9175,2.8487,2.8216,2.8364,2.8384,2.8239,2.8656,2.9231,2.9943,2.9821,3.0051,3.0852,3.1572,3.218,3.2643,3.3371,3.4588,3.6449,3.7827,3.8195,3.7439,3.8111,3.9194,4.0504,4.0685,4.1122,4.2011,4.2158,4.2488,4.3267,4.3938,4.4406,4.4535,4.5232,4.5966,4.6562,4.6929,4.7406,4.7966,4.8223,4.8315,4.8296,4.8113,4.815,4.8214,4.8131,4.7966,4.7948,4.7948,4.7957,4.7792,4.7948,4.7819,4.7966,4.7856,4.7755,4.767,4.7835,4.7944,4.8038,4.8062,4.8007,4.7653,4.753,4.7248,4.6675,4.6216,4.5833,4.5648,4.5298,4.5089,4.521,4.5196,4.5179,4.474,4.3989,4.4006,4.3726,4.3321,4.3306,4.3093,4.2614,4.1707,4.108,4.0673,4.0205,3.9791,3.9391,3.9095,3.8751,3.8407,3.8449,3.809,3.7477,3.7764,3.7749,3.7417,3.7387,3.7387,3.7387,3.7387,3.727,3.6971,3.6688,3.6014,3.5086,3.4667,3.4188,3.3574,3.2572,3.1869,3.1511,3.1197,3.0867,3.0508,2.9909,2.9475,2.9159,2.9812,3.0154,3.0144,3.1024,3.1663,3.1957,3.1911,3.2166,3.2789,3.3512,3.4138,3.4635,3.5813,3.7196,3.8787,3.9446,3.9939,4.0333,4.0234,4.063,4.1619,4.1746,4.2076,4.2882,4.3351,4.3773,4.4103,4.4874,4.5324,4.5434,4.6058,4.67,4.7076,4.748,4.7893,4.8251,4.8315,4.8315,4.8315,4.8315,4.8315,4.8305,4.8025,4.7937,4.8238,4.8315,4.8296,4.8287,4.8315,4.8315,4.8315,4.8315,4.8162,4.7917,4.7808,4.7666,4.7345,4.7273,4.7165,4.6876,4.6864,4.6571,4.6075,4.5732,4.5433,4.5089,4.4776,4.4734,4.5942,4.5957,4.5957,4.5515,4.48,4.4593,4.4221,4.3784,4.3368,4.3305,4.321,4.1537,4.0588,4.0343,3.9702,3.9406,3.9406,3.9406,3.9107,3.8706,3.9152,3.8838,3.7971,3.8407,3.8347,3.7881,3.7851,3.7836,3.7836,3.7851,3.7761,3.7569,3.6866,3.6222,3.5714,3.5056,3.4637,3.4459,3.3484,3.2557,3.1765,3.172,3.142,3.0777,3.0717,3.0493,3.0112,3.113,3.1739,3.1774,3.2811,3.3477,3.3643,3.3769,3.409,3.4691,3.5518,3.6283,3.6968,3.8237,3.9516,4.0627,4.0754,4.1249,4.2327,4.2002,4.1892,4.247,4.2736,4.313,4.3736,4.4488,4.4975,4.5012,4.5681,4.6149,4.6241,4.6902,4.7379,4.7452,4.7929,4.8296,4.8315,4.8315,4.8315,4.8315,4.8315,4.8315,4.8248,4.7777,4.7645,4.7879,4.7977,4.7818,4.7868,4.781,4.7808,4.7887,4.7828,4.7575,4.727,4.7172,4.7021,4.6606,4.6448,4.6389,4.6264,4.6192,4.5952,4.5459,4.5258,4.5129,4.4731,4.4626,4.4615,4.6684,4.6701,4.6701,4.6213,4.5403,4.461,4.4658,4.4993,4.3583,4.3307,4.3692,4.1694,4.0303,3.9574,3.9457,3.9436,3.9436,3.9406,3.9346,3.9287,3.9361,3.9331,3.9152,3.9257,3.9272,3.9167,3.9152,3.9092,3.9107,3.9137,3.8886,3.8245,3.7107,3.6508,3.6344,3.5729,3.5115,3.4533,3.4384,3.3709,3.2497,3.2407,3.2079,3.1436,3.1406,3.1377,3.1256,3.2074,3.2476,3.2467,3.3129,3.3772,3.4366,3.4833,3.544,3.6177,3.7393,3.8632,3.9761,4.0494,4.1172,4.1999,4.2092,4.2465,4.3296,4.3322,4.3286,4.3506,4.4066,4.4406,4.4608,4.5314,4.5773,4.5828,4.6498,4.6994,4.7058,4.7691,4.8186,4.8186,4.8223,4.8315,4.8315,4.8315,4.8315,4.8315,4.8229,4.8191,4.8152,4.7586,4.7216,4.7281,4.697,4.6652,4.6675,4.6577,4.6744,4.6698,4.6611,4.6618,4.6571,4.6501,4.6419,4.6143,4.6234,4.6046,4.5732,4.5576,4.5381,4.4998,4.4786,4.4679,4.4598,4.4584,4.4584,4.7447,4.7447,4.7462,4.7248,4.6844,4.6053,4.5604,4.5335,4.4658,4.3958,4.3204,4.227,4.1395,4.058,4.0172,3.9975,3.9963,3.9586,3.9406,3.9406,3.9406,3.9406,3.9406,3.9406,3.9406,3.9406,3.9406,3.9406,3.9406,3.9406,3.908,3.8439,3.7856,3.7257,3.6553,3.6239,3.5775,3.5131,3.5085,3.4622,3.3709,3.2886,3.2377,3.2123,3.2093,3.1899,3.1715,3.2943,3.3601,3.3271,3.4164,3.4863,3.5143,3.5654,3.6458,3.7552,3.9092,4.0417,4.1391,4.1699,4.2158,4.2955,4.301,4.3351,4.4121,4.4213,4.4397,4.4846,4.48,4.4865,4.5388,4.614,4.6608,4.6718,4.7342,4.7801,4.7838,4.8095,4.8315,4.8315,4.8315,4.8315,4.8315,4.8315,4.8315,4.8248,4.8035,4.787,4.7744,4.6921,4.6341,4.6197,4.5749,4.5719,4.6155,4.6389,4.6365,4.6365,4.6389,4.6342,4.594,4.5865,4.577,4.5433,4.5433,4.5342,4.5025,4.4974,4.4869,4.4598,4.4584,4.4584,4.4584,4.4584,4.4584,4.8208,4.8208,4.8208,4.8208,4.8157,4.7631,4.6873,4.6008,4.5734,4.4753,4.3324,4.2993,4.2526,4.188,4.1055,4.0591,4.0352,3.9885,3.9571,3.9436,3.9406,3.9406,3.9406,3.9406,3.9406,3.9406,3.9406,3.9406,3.9406,3.9406,3.9137,3.8721,3.8482,3.7841,3.6836,3.6613,3.6163,3.5549,3.5489,3.525,3.4682,3.3649,3.2961,3.2781,3.2781,3.2631,3.2443,3.3995,3.4794,3.4523,3.5621,3.6282,3.6468,3.6948,3.7908,3.9349,4.0676,4.1782,4.258,4.2828,4.3222,4.3763,4.3993,4.4378,4.4883,4.503,4.5406,4.6039,4.5709,4.5691,4.6168,4.6957,4.7388,4.7489,4.8003,4.8296,4.8296,4.8315,4.8315,4.8315,4.8315,4.8315,4.8351,4.8517,4.8671,4.8379,4.8208,4.7781,4.7427,4.6568,4.581,4.5524,4.5012,4.5015,4.5732,4.582,4.5903,4.5903,4.5803,4.5643,4.5316,4.5267,4.5218,4.4957,4.4692,4.4612,4.472,4.4668,4.4643,4.4598,4.4584,4.4584,4.4584,4.4584,4.4584,4.8935,4.8918,4.8951,4.8917,4.8918,4.8803,4.8299,4.7177,4.6464,4.5545,4.4461,4.3659,4.3244,4.307,4.1923,4.1044,4.0487,4.0397,4.0034,3.9556,3.9496,3.9418,3.9406,3.9406,3.9421,3.9406,3.9406,3.9406,3.9406,3.9406,3.9391,3.9316,3.8751,3.8078,3.7375,3.6821,3.6178,3.5654,3.5519,3.5474,3.5355,3.4742,3.4084,3.3574,3.3455,3.3759,3.4434,3.5247,3.5921,3.6576,3.7294,3.7973,3.8479,3.9034,4.0109,4.1762,4.2179,4.2616,4.3414,4.4113,4.4571,4.4718,4.5241,4.5773,4.5828,4.5847,4.6205,4.6966,4.6966,4.6966,4.7085,4.7672,4.8131,4.8168,4.8241,4.8315,4.8315,4.8388,4.8315,4.837,4.8498,4.8608,4.8462,4.9031,4.909,4.8869,4.9091,4.8985,4.7759,4.6958,4.6299,4.5682,4.5104,4.4643,4.4723,4.4974,4.4893,4.4934,4.5062,4.4814,4.4706,4.464,4.4612,4.4612,4.4598,4.4584,4.4584,4.4598,4.4598,4.4584,4.4584,4.4584,4.4584,4.4584,4.4584,4.9018,4.9018,4.9018,4.9018,4.894,4.837,4.7572,4.6643,4.5706,4.4762,4.3907,4.3448,4.3305,4.326,4.2831,4.2267,4.1673,4.1254,4.0924,4.0681,4.07,4.0442,4.0068,4.0038,3.978,3.9451,3.9406,3.9406,3.9406,3.9406,3.9406,3.9391,3.9185,3.8706,3.8048,3.7404,3.6761,3.6163,3.5744,3.5489,3.5519,3.525,3.4996,3.4771,3.4368,3.4319,3.4691,3.5751,3.6486,3.6788,3.7807,3.8508,3.8805,4.0035,4.1206,4.2238,4.325,4.3966,4.4305,4.5021,4.548,4.5498,4.5718,4.6177,4.6553,4.67,4.7012,4.7672,4.7856,4.7874,4.7911,4.815,4.8315,4.8315,4.8315,4.8315,4.8416,4.8765,4.9142,4.9205,4.9536,4.9893,4.976,4.9753,4.9543,4.9284,4.8828,4.8304,4.7801,4.7124,4.6621,4.6305,4.5753,4.5297,4.5297,4.4883,4.4629,4.4612,4.4623,4.4665,4.4612,4.4598,4.4598,4.4612,4.4598,4.4584,4.4584,4.4584,4.4584,4.4584,4.4584,4.4584,4.4584,4.4584,4.4584,4.9018,4.9018,4.9018,4.9018,4.8876,4.7982,4.7087,4.6136,4.5208,4.4239,4.3428,4.3305,4.3305,4.3305,4.3305,4.31,4.2626,4.2017,4.1613,4.1403,4.1403,4.1179,4.0804,4.0711,4.0487,4.0083,3.981,3.972,3.9675,3.9496,3.9406,3.9406,3.9406,3.908,3.8422,3.7943,3.7419,3.6823,3.6342,3.6133,3.6101,3.6118,3.6101,3.6107,3.5931,3.5799,3.5754,3.6818,3.767,3.8162,3.8957,3.9571,4.0074,4.1332,4.2413,4.3106,4.4076,4.4828,4.514,4.5847,4.6296,4.6315,4.6562,4.6948,4.7434,4.7489,4.7773,4.8168,4.8315,4.8315,4.8315,4.8296,4.8315,4.8315,4.8315,4.8434,4.8691,4.9233,4.9656,4.9986,5.038,5.071,5.0768,5.037,5.0035,4.981,4.8933,4.8384,4.7817,4.7442,4.6887,4.6532,4.624,4.5737,4.5466,4.5024,4.477,4.4736,4.4584,4.4584,4.4584,4.4584,4.4584,4.4584,4.4584,4.4584,4.4584,4.4584,4.4584,4.4584,4.4584,4.4584,4.4584,4.4584,4.4626,4.9018,4.9018,4.9018,4.9018,4.8861,4.7885,4.702,4.6136,4.5135,4.4124,4.3364,4.3305,4.3305,4.3305,4.3305,4.3275,4.313,4.2631,4.2107,4.1643,4.1568,4.1523,4.1418,4.1403,4.1328,4.1179,4.0651,4.0367,4.0292,3.9705,3.9406,3.9406,3.9406,3.9107,3.8422,3.8347,3.8033,3.7524,3.7268,3.727,3.7372,3.7238,3.7244,3.7442,3.8085,3.8293,3.7897,3.8601,3.9551,4.065,4.0949,4.1512,4.2539,4.326,4.3865,4.4489,4.4746,4.5168,4.5865,4.6663,4.7122,4.7186,4.7783,4.8076,4.8095,4.8168,4.8223,4.8278,4.8315,4.8315,4.837,4.8434,4.8388,4.8315,4.8388,4.8765,4.9307,4.9629,4.9968,5.07,5.099,5.0845,5.0842,5.0683,5.042,4.9991,4.9689,4.9211,4.8271,4.7964,4.7293,4.6517,4.6481,4.65,4.5805,4.5145,4.5024,4.4888,4.4685,4.4584,4.4584,4.4584,4.4584,4.4584,4.4584,4.4584,4.4584,4.4584,4.4584,4.4584,4.4584,4.4584,4.4584,4.4612,4.4692,4.9018,4.9018,4.9018,4.9018,4.8781,4.7323,4.6436,4.6014,4.4498,4.3591,4.3329,4.3305,4.3305,4.3305,4.3305,4.3305,4.3275,4.3085,4.2891,4.2696,4.2701,4.2447,4.2137,4.2077,4.1856,4.1358,4.0726,4.0412,4.0292,3.9735,3.9406,3.9406,3.9406,3.9302,3.9032,3.8646,3.8242,3.8063,3.7629,3.7387,3.7387,3.7402,3.7694,3.8302,3.9093,3.9836,4.0709,4.0987,4.1588,4.251,4.3342,4.415,4.4773,4.505,4.525,4.5553,4.6076,4.6406,4.6755,4.7452,4.7893,4.7966,4.8186,4.8278,4.8315,4.8333,4.8333,4.8333,4.8315,4.8489,4.905,4.9197,4.8967,4.8379,4.882,4.9288,4.9766,5.062,5.1546,5.2189,5.2011,5.1735,5.1472,5.1055,5.0246,5.0002,4.964,4.9058,4.8773,4.8595,4.8612,4.8088,4.7887,4.7295,4.6633,4.6126,4.5906,4.5481,4.5074,4.4668,4.4632,4.4584,4.4584,4.4584,4.4584,4.4584,4.4584,4.4584,4.4584,4.4584,4.4584,4.4584,4.4584,4.4692,4.4855,4.9814,4.9796,4.9526,4.939,4.9169,4.7133,4.6208,4.5923,4.4132,4.3324,4.3305,4.3305,4.3305,4.3305,4.3305,4.3305,4.3305,4.3305,4.3305,4.3305,4.3305,4.307,4.2765,4.275,4.2536,4.2058,4.1444,4.1014,4.0726,4.0113,3.9664,3.9433,3.9406,3.9406,3.9376,3.9002,3.8766,3.8706,3.8374,3.8135,3.8135,3.8135,3.8557,3.942,4.0246,4.1424,4.2743,4.337,4.3768,4.4088,4.489,4.5557,4.5856,4.5883,4.603,4.6388,4.6792,4.7186,4.7526,4.8003,4.8315,4.8315,4.8315,4.8315,4.837,4.8498,4.8783,4.8783,4.9114,4.9462,4.9921,5.0041,4.9774,4.9334,4.9719,5.017,5.0555,5.1638,5.2317,5.259,5.232,5.2053,5.1544,5.0819,5.003,4.9904,4.9417,4.9018,4.9018,4.8984,4.8917,4.88,4.846,4.7919,4.7479,4.7141,4.687,4.6227,4.5551,4.5041,4.4733,4.4632,4.4584,4.4584,4.4584,4.4584,4.4584,4.4584,4.4584,4.4584,4.4717,4.4745,4.4838,4.4998,4.5205,5.1184,5.11,5.0456,5.0167,4.9843,4.7546,4.6458,4.6003,4.4285,4.3428,4.3329,4.3305,4.3305,4.3305,4.3305,4.3305,4.3305,4.3305,4.3305,4.3305,4.3305,4.325,4.3205,4.319,4.3145,4.3055,4.2541,4.2006,4.1433,4.0651,4.0083,3.9586,3.9481,3.9406,3.9391,3.9376,3.9316,3.9287,3.9287,3.9272,3.9257,3.9302,3.9793,4.0669,4.1451,4.2597,4.4239,4.5525,4.5998,4.5479,4.5914,4.6213,4.6104,4.6049,4.6516,4.7113,4.7168,4.7571,4.8095,4.826,4.8315,4.8315,4.8425,4.837,4.8563,4.9197,4.9656,4.9692,5.0215,5.0692,5.0802,5.0857,5.0839,5.0949,5.0912,5.1187,5.1969,5.2711,5.2791,5.2304,5.2059,5.1795,5.1094,5.0338,4.9947,4.9763,4.9344,4.9077,4.9018,4.8934,4.8648,4.858,4.8663,4.846,4.802,4.8003,4.7714,4.7113,4.6525,4.6127,4.5405,4.5187,4.4865,4.4837,4.492,4.4806,4.4824,4.4994,4.5035,4.5112,4.5152,4.5102,4.5232,4.5477,4.5844,5.1218,5.1167,5.0981,5.0897,5.065,4.8827,4.7611,4.6839,4.5167,4.4037,4.3478,4.3305,4.3364,4.3305,4.3319,4.3305,4.3305,4.3305,4.3305,4.3305,4.3305,4.3305,4.3305,4.3305,4.3305,4.322,4.275,4.2321,4.2051,4.1044,4.0367,4.0142,3.9645,3.9421,3.9406,3.9406,3.9406,3.9406,3.9406,3.9406,3.9406,3.9427,4.0165,4.1543,4.1901,4.33,4.56,4.7096,4.7731,4.7525,4.756,4.7682,4.7562,4.7562,4.7636,4.7838,4.7966,4.8039,4.8223,4.8315,4.8315,4.837,4.8857,4.9252,4.927,5.0004,5.0427,5.0508,5.0729,5.1077,5.1536,5.1683,5.1922,5.2399,5.2013,5.1977,5.2674,5.3028,5.2915,5.2224,5.1692,5.1107,5.0445,4.9777,4.9344,4.9286,4.9184,4.9018,4.9018,4.8984,4.8798,4.8865,4.8881,4.8781,4.868,4.8697,4.8489,4.7969,4.768,4.7665,4.6917,4.6323,4.5858,4.5483,4.5827,4.5866,4.5895,4.5984,4.5915,4.5656,4.5917,4.6007,4.6065,4.625,4.6649,5.2165,5.2131,5.1793,5.1658,5.1458,4.9875,4.862,4.7577,4.6294,4.51,4.4313,4.4132,4.3982,4.3743,4.3728,4.3564,4.3334,4.3305,4.3305,4.3305,4.3305,4.3305,4.3305,4.3305,4.3305,4.326,4.2955,4.2646,4.2321,4.1568,4.1014,4.0412,3.9989,3.969,3.9406,3.9406,3.9406,3.9406,3.9406,3.9406,3.9406,3.9776,4.0638,4.1853,4.2363,4.3817,4.6175,4.7617,4.8296,4.8296,4.8296,4.8315,4.8315,4.8315,4.8315,4.8315,4.8315,4.8296,4.8315,4.8315,4.8489,4.8802,4.9362,4.9747,5.0151,5.0839,5.1298,5.1298,5.1563,5.2003,5.2362,5.2509,5.2729,5.2976,5.2774,5.27,5.3159,5.3177,5.2842,5.2219,5.1506,5.081,5.0086,4.9419,4.9092,4.9017,4.9063,4.9018,4.9001,4.9032,4.9167,4.9329,4.9492,4.9504,4.9683,4.9786,4.9815,4.9279,4.9128,4.9113,4.8511,4.774,4.7147,4.6826,4.6911,4.6915,4.682,4.6648,4.627,4.625,4.6643,4.7074,4.7226,4.7478,4.7828,5.3433,5.3281,5.2673,5.2435,5.2184,5.0758,4.9585,4.8547,4.7457,4.6427,4.5571,4.5327,4.4766,4.4332,4.4162,4.3923,4.3305,4.3305,4.3305,4.3305,4.3305,4.3305,4.3305,4.3305,4.3305,4.3275,4.3305,4.298,4.2616,4.2391,4.1747,4.0939,4.0546,4.0098,3.9675,3.9481,3.9406,3.9406,3.9406,3.9406,3.9538,4.0117,4.1013,4.1933,4.3224,4.4413,4.6187,4.7473,4.8191,4.8315,4.8315,4.8315,4.8315,4.8315,4.8315,4.8315,4.8315,4.8315,4.8351,4.8453,4.8774,4.9408,4.9739,5.0115,5.0904,5.1657,5.2105,5.2105,5.2784,5.2957,5.3049,5.3141,5.3122,5.3177,5.3159,5.3177,5.3196,5.3196,5.2904,5.2131,5.1419,5.0792,5.0019,4.9449,4.9001,4.9031,4.9123,4.9361,4.9479,4.9622,4.9838,5.009,5.0227,5.0348,5.0631,5.0924,5.0964,5.0826,5.0756,5.0627,5.0129,4.9434,4.8756,4.839,4.8462,4.8052,4.7465,4.7162,4.7029,4.73,4.8023,4.8411,4.8705,4.9039,4.9379,5.3007,5.2295,5.2959,5.3247,5.3078,5.2169,5.1209,5.0167,4.8652,4.7467,4.6522,4.5681,4.4981,4.4347,4.4326,4.3923,4.3349,4.3305,4.3305,4.3305,4.3305,4.3305,4.3305,4.3305,4.3305,4.3305,4.3305,4.322,4.301,4.2646,4.2276,4.1901,4.0969,4.0352,4.0169,3.9705,3.9406,3.9406,3.9421,3.9442,3.9646,4.0328,4.123,4.2205,4.3939,4.5334,4.627,4.7172,4.7797,4.8162,4.8315,4.8315,4.8315,4.8315,4.8315,4.8315,4.8315,4.8315,4.8425,4.8921,4.938,4.9776,5.0702,5.1565,5.1712,5.2435,5.2847,5.2939,5.3104,5.3196,5.3196,5.3196,5.3196,5.3196,5.3196,5.3196,5.3196,5.3185,5.268,5.1789,5.1241,5.0653,4.9494,4.9241,4.9048,4.9077,4.9344,4.9707,4.9979,5.0216,5.0503,5.077,5.0889,5.1034,5.1355,5.1648,5.1747,5.185,5.1898,5.1928,5.1449,5.1002,5.0271,4.9992,4.9959,4.9382,4.8663,4.8942,4.9066,4.9271,4.9372,4.9702,5.0036,5.0462,5.0439,5.2008,5.1957,5.2505,5.3025,5.3399,5.301,5.201,5.0705,4.9735,4.8451,4.7196,4.6428,4.5693,4.4796,4.4721,4.4287,4.3489,4.3305,4.3305,4.3305,4.3305,4.3305,4.3305,4.3305,4.3305,4.3305,4.3305,4.3305,4.3205,4.2985,4.269,4.241,4.1628,4.1239,4.0801,4.0217,3.9933,3.9813,3.9559,3.9556,4.0078,4.086,4.1997,4.3135,4.4688,4.5783,4.6395,4.7033,4.7666,4.8132,4.8315,4.8315,4.8315,4.8315,4.8315,4.8315,4.8315,4.8563,4.893,4.9344,4.9904,5.0647,5.1565,5.2079,5.2472,5.2994,5.3141,5.3196,5.3196,5.3196,5.3196,5.3196,5.3196,5.3196,5.3196,5.3196,5.3196,5.3185,5.3017,5.2113,5.1544,5.0916,5.0188,4.958,4.9374,4.9536,4.9678,5.0033,5.0531,5.0783,5.1138,5.1381,5.1524,5.1722,5.206,5.2289,5.2434,5.2531,5.2617,5.2691,5.2547,5.2138,5.1723,5.1434,5.108,5.0733,5.0232,5.0637,5.06,5.0342,5.0346,5.0843,5.1185,5.1325,5.1099,5.0892,5.1687,5.1832,5.2522,5.3382,5.3264,5.2226,5.0819,5.0278,4.9014,4.7682,4.7349,4.6232,4.5454,4.5065,4.4392,4.3609,4.3305,4.3305,4.3305,4.3305,4.3305,4.3305,4.3305,4.3305,4.3305,4.3305,4.3305,4.3305,4.3275,4.3,4.2601,4.2396,4.2006,4.1478,4.0905,4.0457,4.0262,4.0127,4.0092,4.0738,4.1609,4.2999,4.4392,4.5095,4.592,4.6548,4.715,4.7684,4.8248,4.8315,4.8388,4.8471,4.8333,4.8315,4.8333,4.8471,4.8875,4.9435,4.9913,5.0675,5.195,5.2189,5.2491,5.3012,5.3159,5.3196,5.3196,5.3196,5.3196,5.3196,5.3196,5.3196,5.3196,5.3196,5.3196,5.3196,5.3185,5.3082,5.2736,5.1958,5.1249,5.073,5.0202,5.0075,5.0019,5.0185,5.0445,5.0968,5.1462,5.185,5.2095,5.2242,5.2307,5.2595,5.2669,5.2842,5.2904,5.3082,5.3114,5.3203,5.288,5.2436,5.232,5.2019,5.1646,5.1371,5.1334,5.1242,5.1059,5.1316,5.183,5.2041,5.2129,5.1646,5.0493,5.0703,5.1559,5.2505,5.3247,5.2557,5.1903,5.1377,4.9758,4.8907,4.8362,4.7099,4.6097,4.534,4.4696,4.4032,4.3583,4.3369,4.3305,4.3305,4.3305,4.3305,4.3305,4.3305,4.3305,4.3305,4.3305,4.3305,4.3305,4.3275,4.322,4.3025,4.269,4.2336,4.2126,4.1583,4.0995,4.08,4.0902,4.1055,4.1353,4.2534,4.3855,4.521,4.5533,4.6124,4.6961,4.7331,4.7677,4.8238,4.8315,4.8728,4.9105,4.8783,4.8535,4.8636,4.9087,4.9545,4.9922,5.0886,5.1546,5.2115,5.2564,5.2902,5.3159,5.3196,5.3196,5.3196,5.3196,5.3196,5.3196,5.3196,5.3196,5.3196,5.3196,5.3196,5.3196,5.3164,5.3009,5.264,5.2131,5.1704,5.1228,5.0863,5.0747,5.081,5.1068,5.1355,5.1801,5.2295,5.2725,5.2904,5.298,5.302,5.3092,5.3071,5.3092,5.3071,5.3153,5.3153,5.3185,5.3185,5.3031,5.2792,5.2682,5.2462,5.2252,5.205,5.1977,5.1848,5.2278,5.2719,5.2576,5.2361,5.1718,4.9105,4.9615,5.011,5.0911,5.1702,5.1375,5.0782,5.0207,4.9235,4.8507,4.7812,4.681,4.5927,4.5404,4.5167,4.4656,4.4141,4.3468,4.3344,4.3305,4.3305,4.3305,4.3305,4.3305,4.3305,4.3305,4.3305,4.3305,4.3305,4.3305,4.3305,4.325,4.2985,4.2865,4.2716,4.2226,4.1796,4.1569,4.1666,4.201,4.2446,4.4016,4.5278,4.5722,4.6032,4.6495,4.724,4.7883,4.8304,4.8886,4.9361,4.9774,4.9939,4.9884,4.9591,4.9682,5.0004,5.0445,5.0757,5.1675,5.2105,5.2601,5.3012,5.3159,5.3196,5.3196,5.3196,5.3196,5.3196,5.3196,5.3196,5.3196,5.3196,5.3196,5.3196,5.3196,5.3196,5.3196,5.2948,5.2588,5.2289,5.1994,5.1716,5.1456,5.1386,5.1556,5.1916,5.2224,5.2554,5.2842,5.3196,5.3185,5.3185,5.3185,5.3196,5.3196,5.3196,5.3196,5.3196,5.3196,5.3196,5.3196,5.3196,5.3104,5.3049,5.2957,5.2755,5.2417,5.2527,5.2546,5.2527,5.2548,5.2674,5.2475,5.171,4.7882,4.8805,4.8805,4.9416,5.0262,5.0165,4.9635,4.8866,4.8574,4.8051,4.7297,4.6689,4.6107,4.5733,4.5669,4.5494,4.5002,4.409,4.3728,4.363,4.3389,4.3305,4.3305,4.3305,4.3305,4.3305,4.3305,4.3305,4.3305,4.3305,4.3305,4.329,4.329,4.3305,4.313,4.2761,4.264,4.2598,4.2598,4.3102,4.4449,4.5793,4.6625,4.6665,4.6766,4.7218,4.7999,4.8726,4.9268,4.9811,5.0306,5.082,5.1004,5.1059,5.1132,5.1214,5.1151,5.1426,5.1756,5.2197,5.2601,5.3031,5.3159,5.3196,5.3196,5.3196,5.3196,5.3196,5.3196,5.3196,5.3196,5.3196,5.3196,5.3196,5.3196,5.3196,5.3196,5.3196,5.3196,5.2875,5.2554,5.2388,5.2242,5.2242,5.2172,5.2196,5.2531,5.2606,5.2893,5.2988,5.3196,5.3196,5.3185,5.3185,5.3196,5.3196,5.3196,5.3196,5.3196,5.3196,5.3196,5.3196,5.3196,5.3196,5.3177,5.3067,5.292,5.2829,5.2847,5.2747,5.2491,5.238,5.2458,5.2048,5.1297,4.7898,4.8805,4.8784,4.9416,5.0107,4.9356,4.8948,4.8677,4.7898,4.7445,4.7398,4.686,4.6588,4.6486,4.6187,4.6086,4.576,4.5101,4.4548,4.4373,4.3806,4.3409,4.3305,4.3305,4.3305,4.3305,4.3305,4.3305,4.3305,4.3305,4.3305,4.3305,4.3305,4.3305,4.3275,4.3312,4.3367,4.3675,4.4223,4.5074,4.6112,4.7113,4.7421,4.7635,4.7943,4.8547,4.9192,4.9949,5.0519,5.0605,5.0747,5.1187,5.1683,5.1848,5.227,5.2472,5.2344,5.1895,5.2142,5.2582,5.2939,5.3177,5.3196,5.3196,5.3196,5.3196,5.3196,5.3196,5.3196,5.3196,5.3196,5.3196,5.3196,5.3287,5.3379,5.3343,5.3324,5.382,5.3746,5.3295,5.3029,5.2999,5.2934,5.2977,5.3028,5.306,5.3082,5.3103,5.3143,5.3175,5.3196,5.3196,5.3196,5.3196,5.3196,5.3196,5.3196,5.3196,5.3196,5.3196,5.3196,5.3196,5.3196,5.3196,5.3196,5.3196,5.3086,5.3049,5.3104,5.3012,5.281,5.2517,5.2216,5.1611,5.0929,4.8403,4.8743,4.8183,4.8204,4.8543,4.812,4.7946,4.7855,4.7516,4.763,4.7861,4.708,4.6861,4.7095,4.6542,4.6521,4.6678,4.6012,4.5266,4.4927,4.4358,4.3869,4.3409,4.3305,4.3305,4.3369,4.3305,4.3305,4.3305,4.3305,4.3305,4.3305,4.3305,4.3305,4.3409,4.3888,4.4167,4.4807,4.5945,4.7361,4.8175,4.8652,4.8969,4.9248,4.9235,4.961,5.0285,5.1032,5.1444,5.1573,5.1811,5.2278,5.2582,5.2692,5.2876,5.3049,5.2913,5.2692,5.2737,5.3031,5.3141,5.3196,5.3196,5.3196,5.3196,5.3196,5.3196,5.3196,5.3196,5.3214,5.3232,5.3196,5.3489,5.3673,5.3875,5.3875,5.3995,5.4399,5.4546,5.4014,5.3526,5.3489,5.3398,5.3201,5.3132,5.3143,5.3124,5.3153,5.3164,5.3185,5.3196,5.3196,5.3196,5.3196,5.3196,5.3196,5.3196,5.3196,5.3196,5.3196,5.3196,5.3196,5.3196,5.3196,5.3196,5.3196,5.3196,5.3177,5.3159,5.3177,5.3196,5.2651,5.2089,5.1469,5.0743,4.9195,4.9069,4.7828,4.7309,4.7309,4.7309,4.7331,4.7309,4.7309,4.7855,4.8449,4.8075,4.8011,4.8033,4.7668,4.7653,4.7852,4.6953,4.6224,4.5652,4.5174,4.4762,4.4343,4.4013,4.3747,4.3649,4.3389,4.3329,4.3305,4.3305,4.3305,4.3305,4.3305,4.3305,4.3571,4.4232,4.4944,4.6136,4.8243,4.9387,4.9634,4.9825,5.0082,5.0224,5.0294,5.0359,5.1103,5.1885,5.227,5.2417,5.2719,5.3012,5.3086,5.3086,5.3086,5.3196,5.3086,5.3086,5.3086,5.3177,5.3196,5.3196,5.3196,5.3196,5.3196,5.3196,5.3196,5.3196,5.3196,5.3306,5.3453,5.3544,5.3995,5.4399,5.4693,5.4693,5.4766,5.5115,5.5199,5.473,5.4271,5.3922,5.3739,5.3379,5.3222,5.3203,5.3196,5.3196,5.3214,5.3232,5.3251,5.3269,5.3287,5.3287,5.3269,5.3251,5.3232,5.3287,5.3306,5.3232,5.3269,5.3232,5.3196,5.3196,5.3196,5.3196,5.3196,5.3196,5.3185,5.3124,5.2959,5.2456,5.1904,5.1241,5.0517,5.0281,5.0126,4.8115,4.7309,4.7309,4.7309,4.7309,4.7309,4.7352,4.7979,4.9092,4.9839,5.0086,4.9819,4.9447,4.9146,4.8814,4.7917,4.7389,4.6986,4.6558,4.5994,4.5491,4.5008,4.4608,4.4415,4.3912,4.3492,4.3305,4.3305,4.3305,4.3305,4.3305,4.3305,4.3838,4.4816,4.6361,4.7885,5.0101,5.0543,5.0317,5.0255,5.0469,5.0193,5.0557,5.1157,5.1899,5.259,5.2957,5.2957,5.3104,5.3196,5.3196,5.3196,5.3196,5.3196,5.3196,5.3196,5.3196,5.3196,5.3196,5.3196,5.3196,5.3251,5.3398,5.3287,5.3232,5.3453,5.3673,5.382,5.4124,5.4381,5.4722,5.5207,5.5519,5.5519,5.5574,5.5739,5.5768,5.5401,5.5089,5.4803,5.4399,5.4106,5.3416,5.3324,5.3196,5.3196,5.3287,5.3324,5.3361,5.3379,5.3416,5.3416,5.3379,5.3489,5.3856,5.3801,5.371,5.3526,5.3361,5.3306,5.3214,5.3196,5.3196,5.3196,5.3124,5.3009,5.2926,5.2948,5.2725,5.2142,5.1279,5.0393,4.9824,4.9593,4.9276,4.7876,4.7309,4.7309,4.7309,4.7309,4.7424,4.7967,4.891,5.0081,5.1129,5.111,5.0375,5.0066,4.9678,4.9038,4.8688,4.8144,4.7671,4.7189,4.6747,4.6295,4.5852,4.5395,4.4871,4.4354,4.3791,4.3329,4.3324,4.3305,4.3305,4.3349,4.3771,4.4426,4.5938,4.7786,4.9119,5.062,5.1011,5.0816,5.0339,5.0599,5.126,5.0848,5.1685,5.2567,5.2973,5.3159,5.3196,5.3196,5.3196,5.3196,5.3196,5.3196,5.3196,5.3196,5.3196,5.3196,5.3196,5.3196,5.3196,5.3232,5.3416,5.3838,5.394,5.4252,5.4473,5.4583,5.473,5.4987,5.5152,5.542,5.6033,5.6345,5.6345,5.6418,5.6565,5.6393,5.6062,5.597,5.5812,5.5372,5.4932,5.4142,5.3453,5.3306,5.3269,5.3508,5.371,5.3856,5.4014,5.4124,5.4326,5.4344,5.4473,5.462,5.4399,5.4179,5.3977,5.3746,5.3306,5.3214,5.3214,5.3175,5.3153,5.3009,5.2747,5.261,5.2576,5.2254,5.1747,5.0756,4.9669,4.9301,4.9001,4.8702,4.7737,4.7309,4.7337,4.7609,4.7764,4.794,4.8841,4.9952,5.1182,5.2101,5.1826,5.076,5.0405,4.983,4.9238,4.8909,4.8561,4.8257,4.795,4.7589,4.7054,4.6401,4.5798,4.5193,4.4434,4.383,4.3309,4.3305,4.3305,4.3369,4.363,4.4205,4.5109,4.7243,4.9059,4.9935,5.0662,5.0903,5.0721,5.0372,5.0505,5.1449,5.1236,5.185,5.27,5.3177,5.3177,5.3196,5.3196,5.3196,5.3196,5.3196,5.3196,5.3196,5.3196,5.3196,5.3214,5.3196,5.3324,5.3599,5.3636,5.4051,5.4509,5.4748,5.4987,5.5328,5.5511,5.5695,5.5831,5.5978,5.6308,5.6932,5.7116,5.7171,5.7262,5.7354,5.7042,5.676,5.6638,5.6418,5.6088,5.5611,5.5097,5.4473,5.4418,5.4363,5.4399,5.4583,5.4711,5.4876,5.5053,5.5291,5.553,5.5365,5.5188,5.5078,5.484,5.4564,5.4271,5.3765,5.3306,5.3214,5.3164,5.3092,5.282,5.2434,5.2259,5.2159,5.1606,5.0942,5.0258,4.9288,4.9199,4.8732,4.8677,4.7728,4.7344,4.7516,4.8356,4.8738,4.8907,4.9911,5.0938,5.1985,5.2959,5.2571,5.1404,5.1083,5.0304,4.934,4.9069,4.8909,4.8798,4.8703,4.8783,4.8112,4.7189,4.6156,4.5674,4.4709,4.3771,4.3305,4.3305,4.3305,4.3849,4.4457,4.5026,4.5138,4.7358,4.9046,4.9941,5.0666,5.0558,5.0146,4.9971,5.0415,5.1034,5.1176,5.1789,5.2861,5.3185,5.3196,5.3196,5.3196,5.3196,5.3196,5.3196,5.3196,5.3196,5.3196,5.3214,5.3251,5.3232,5.3618,5.4142,5.4216,5.4748,5.5335,5.5574,5.5721,5.6136,5.6007,5.6198,5.6492,5.6811,5.7262,5.7501,5.7685,5.7758,5.7795,5.7813,5.7483,5.7299,5.7042,5.6756,5.6517,5.6253,5.5923,5.564,5.5585,5.5475,5.5299,5.5445,5.5556,5.5757,5.597,5.6209,5.6338,5.597,5.575,5.5677,5.5548,5.528,5.484,5.4308,5.3867,5.3387,5.297,5.2758,5.2415,5.2059,5.1643,5.112,5.0564,4.995,4.9361,4.9063,4.9017,4.717,4.7789,4.7689,4.7895,4.831,4.8636,4.9191,4.9989,5.0968,5.1957,5.2852,5.3416,5.2976,5.208,5.1353,5.0677,4.983,4.9103,4.9018,4.9018,4.8972,4.8529,4.7966,4.7289,4.6382,4.5413,4.4396,4.3732,4.3305,4.3389,4.383,4.4415,4.5688,4.6591,4.7156,4.8501,4.9627,4.9506,4.991,5.0047,4.9432,4.9449,4.9939,5.0995,5.1099,5.1789,5.306,5.3175,5.3196,5.3196,5.3196,5.3196,5.3214,5.3232,5.3269,5.3251,5.3251,5.3489,5.3812,5.4021,5.4106,5.4509,5.4968,5.5537,5.6253,5.637,5.6657,5.6969,5.6962,5.7226,5.7556,5.7574,5.7795,5.7813,5.7905,5.7905,5.7941,5.7941,5.7813,5.7776,5.7611,5.7519,5.7336,5.7079,5.6767,5.6484,5.6374,5.597,5.5721,5.6143,5.6407,5.6638,5.6859,5.7116,5.7152,5.6815,5.676,5.6833,5.6492,5.6069,5.5556,5.4968,5.4096,5.3455,5.29,5.237,5.188,5.1312,5.0537,4.9933,4.9664,4.9506,4.9197,4.9032,4.9017,4.6448,4.7782,4.7788,4.865,4.9753,4.986,5.0477,5.1465,5.2187,5.287,5.3382,5.3467,5.3044,5.2334,5.1793,5.1167,5.0439,4.9746,4.939,4.9276,4.8676,4.821,4.7671,4.6901,4.5814,4.4909,4.4354,4.383,4.3384,4.3669,4.4574,4.5852,4.6984,4.7539,4.8191,4.9007,4.9402,4.9243,4.9462,4.9492,4.9152,4.9228,4.9707,5.0676,5.1254,5.1752,5.2776,5.3196,5.3214,5.3214,5.3214,5.3214,5.3251,5.3453,5.3563,5.3618,5.3977,5.4289,5.4693,5.5225,5.5335,5.5398,5.5776,5.6363,5.7024,5.7196,5.7428,5.7721,5.796,5.7978,5.796,5.7978,5.7978,5.7978,5.7978,5.7978,5.7978,5.7978,5.7978,5.7978,5.7978,5.7978,5.7978,5.7923,5.7648,5.7384,5.7127,5.6686,5.6301,5.673,5.7104,5.7281,5.7416,5.7533,5.7673,5.7685,5.7703,5.7941,5.7412,5.6713,5.6363,5.5783,5.4657,5.3569,5.306,5.2378,5.1329,5.054,4.9864,4.9447,4.9258,4.9107,4.9001,4.9018,4.9018,4.6639,4.8527,4.8111,4.9426,5.1569,5.176,5.2469,5.3416,5.345,5.345,5.3501,5.3501,5.3145,5.2503,5.23,5.186,5.1184,5.0473,4.999,4.9513,4.8594,4.7902,4.6864,4.5814,4.5079,4.451,4.4024,4.3708,4.3488,4.4649,4.5994,4.702,4.7622,4.8193,4.8718,4.8983,4.9107,4.9077,4.9092,4.9138,4.9017,4.932,5.0164,5.1055,5.1721,5.2378,5.3127,5.3434,5.3324,5.3269,5.3287,5.3287,5.3508,5.4014,5.4289,5.462,5.5133,5.5346,5.5695,5.6198,5.6554,5.6554,5.6737,5.7317,5.7611,5.7776,5.785,5.7905,5.7978,5.7978,5.7978,5.7978,5.7978,5.7978,5.7978,5.7978,5.7978,5.7978,5.7978,5.7978,5.7978,5.7978,5.7978,5.7978,5.7978,5.7843,5.7586,5.7567,5.7262,5.7354,5.7666,5.7685,5.782,5.784,5.7897,5.7708,5.7672,5.757,5.766,5.7154,5.6887,5.6209,5.4859,5.378,5.3249,5.2312,5.071,4.9824,4.9286,4.9018,4.9018,4.9018,4.9018,4.9018,4.9018,4.6181,4.8113,4.8898,5.0254,5.1858,5.2714,5.3247,5.3484,5.3501,5.3501,5.3501,5.3501,5.3315,5.3145,5.257,5.2198,5.1759,5.1154,5.0073,4.9227,4.8264,4.7115,4.6024,4.5039,4.4377,4.3888,4.3566,4.3669,4.4608,4.5796,4.6747,4.7539,4.8193,4.8703,4.8876,4.9018,4.9018,4.9018,4.9018,4.9069,4.9435,4.9977,5.0905,5.1784,5.2886,5.3537,5.3906,5.4058,5.3875,5.3416,5.382,5.4021,5.4113,5.4785,5.5273,5.5244,5.5548,5.5805,5.6363,5.6675,5.7012,5.7464,5.7574,5.7703,5.7941,5.7978,5.7978,5.7978,5.7978,5.7978,5.7978,5.7978,5.7978,5.7978,5.7978,5.7978,5.7978,5.7978,5.7978,5.7978,5.7978,5.7978,5.7978,5.7978,5.7978,5.7978,5.7978,5.7978,5.7978,5.7978,5.7821,5.7809,5.775,5.7637,5.7321,5.7103,5.7141,5.7166,5.718,5.7109,5.6654,5.5848,5.4743,5.3608,5.2472,5.1126,4.9639,4.9092,4.9017,4.9018,4.9018,4.9018,4.9018,4.9018,4.9018,4.6454,4.8913,4.9536,5.0831,5.2476,5.3213,5.3501,5.3501,5.3501,5.3501,5.3501,5.3501,5.3484,5.3348,5.2689,5.2249,5.2148,5.0609,4.951,4.8894,4.7728,4.6303,4.5114,4.4392,4.3869,4.3448,4.3468,4.3791,4.5116,4.659,4.7671,4.8241,4.8829,4.894,4.9018,4.9018,4.9018,4.9018,4.9052,4.9187,4.9845,5.0713,5.1658,5.2839,5.4094,5.459,5.4862,5.4866,5.4564,5.4216,5.4766,5.4858,5.5005,5.5622,5.6356,5.6436,5.6657,5.6895,5.7226,5.7281,5.7593,5.7831,5.7978,5.7978,5.7978,5.7978,5.7978,5.7978,5.7978,5.7978,5.7978,5.7978,5.7978,5.7978,5.7978,5.7978,5.7978,5.7978,5.7978,5.7978,5.7978,5.7978,5.7978,5.7978,5.7978,5.7978,5.7978,5.7978,5.7978,5.7978,5.7672,5.7407,5.7333,5.7247,5.6856,5.6438,5.6421,5.6421,5.6403,5.6306,5.6104,5.5413,5.4255,5.278,5.1242,5.0184,4.9414,4.9146,4.9018,4.9086,4.9154,4.9069,4.9052,4.9018,4.9018,4.7196,5.05,5.0198,5.1394,5.3332,5.3484,5.3501,5.3501,5.3501,5.3501,5.3501,5.3501,5.3501,5.3382,5.2841,5.2302,5.1682,5.0325,4.9018,4.8438,4.6609,4.5192,4.4473,4.3795,4.3512,4.3369,4.3689,4.4377,4.5431,4.6917,4.8321,4.897,4.8986,4.9018,4.9018,4.9018,4.9018,4.9035,4.9268,4.9551,5.0328,5.1127,5.2141,5.3549,5.4542,5.5224,5.5568,5.5695,5.5677,5.5622,5.5677,5.5666,5.6124,5.6455,5.7207,5.7519,5.7593,5.7666,5.774,5.7776,5.7831,5.7941,5.7978,5.7978,5.7978,5.7978,5.7978,5.7978,5.7978,5.7978,5.7978,5.7978,5.7978,5.7978,5.7978,5.7978,5.7978,5.7978,5.7978,5.7978,5.7978,5.7978,5.7978,5.7978,5.7978,5.7978,5.7978,5.7978,5.7967,5.7967,5.7558,5.7116,5.7065,5.6843,5.598,5.5624,5.5624,5.5624,5.5624,5.5825,5.5861,5.4953,5.376,5.2347,5.1004,5.0345,4.971,4.9644,4.9644,4.9593,4.956,4.9238,4.9154,4.9238,4.9272,4.7792,4.9337,5.1011,5.2438,5.3433,5.3501,5.3501,5.3501,5.3501,5.3501,5.3501,5.3501,5.3501,5.3399,5.3162,5.2505,5.1089,5.0046,4.8743,4.7308,4.558,4.458,4.3925,4.3492,4.3329,4.3571,4.4143,4.5322,4.6625,4.7868,4.8671,4.897,4.9018,4.9018,4.9018,4.9035,4.9137,4.9171,4.9675,5.0271,5.1139,5.2424,5.3669,5.5079,5.6188,5.6576,5.6748,5.651,5.6124,5.5805,5.629,5.6767,5.7421,5.7593,5.7758,5.796,5.7978,5.7978,5.7978,5.7978,5.7978,5.7967,5.7967,5.7978,5.7978,5.7978,5.7967,5.7955,5.7978,5.7978,5.7978,5.7978,5.7978,5.7978,5.7978,5.7978,5.7978,5.7978,5.7978,5.7978,5.7978,5.7978,5.7978,5.7978,5.7978,5.7978,5.7978,5.7978,5.7944,5.7897,5.737,5.6984,5.6907,5.6505,5.5437,5.4846,5.4863,5.4863,5.4863,5.5176,5.5471,5.4568,5.345,5.2166,5.1007,5.0624,5.0508,5.0711,5.066,5.0356,5.0119,4.9898,4.9847,4.9915,4.9897,4.8282,4.9525,5.1461,5.2537,5.2993,5.3348,5.3501,5.3501,5.3501,5.3501,5.3501,5.3501,5.3484,5.3365,5.3129,5.2,5.046,4.9526,4.7652,4.5959,4.4926,4.4157,4.3578,4.3324,4.3752,4.4086,4.5452,4.6763,4.7721,4.8466,4.897,4.9018,4.9018,4.9018,4.9052,4.9238,4.9458,4.9543,5.0202,5.1128,5.2119,5.3419,5.475,5.6216,5.7127,5.7549,5.7593,5.7336,5.7097,5.6822,5.7171,5.7391,5.7795,5.7886,5.7941,5.7978,5.7978,5.7978,5.7944,5.789,5.7879,5.7832,5.7558,5.7437,5.7278,5.7266,5.7443,5.7492,5.7914,5.7978,5.7978,5.7978,5.7978,5.7978,5.7978,5.7978,5.7978,5.7978,5.7978,5.7978,5.7978,5.7978,5.7978,5.7978,5.7978,5.7978,5.7978,5.7978,5.7955,5.7672,5.7179,5.6708,5.6518,5.5731,5.4484,5.4089,5.4106,5.4123,5.4202,5.4055,5.4084,5.3815,5.3126,5.2122,5.1487,5.1403,5.1387,5.1488,5.1269,5.088,5.0728,5.0608,5.0574,5.0524,5.0574,4.8707,5.0204,5.1454,5.208,5.2283,5.2993,5.3315,5.3348,5.345,5.3501,5.345,5.3365,5.3365,5.3078,5.247,5.101,4.9646,4.8469,4.6518,4.4817,4.3842,4.3587,4.3468,4.3349,4.4008,4.5122,4.6522,4.7256,4.7966,4.8641,4.9018,4.9018,4.9018,4.9018,4.9221,4.9627,5.0015,5.0202,5.0872,5.2067,5.3166,5.4253,5.5383,5.6533,5.7553,5.7944,5.7978,5.7978,5.796,5.7905,5.7795,5.7868,5.7819,5.7809,5.7726,5.7672,5.7401,5.7413,5.748,5.7389,5.748,5.7431,5.7015,5.6721,5.6571,5.6624,5.6794,5.7198,5.763,5.792,5.792,5.7978,5.7978,5.7978,5.7978,5.7978,5.7978,5.7978,5.7978,5.7978,5.7978,5.7978,5.7978,5.7978,5.7978,5.7978,5.7978,5.7978,5.7856,5.737,5.685,5.6259,5.5812,5.482,5.3734,5.3634,5.3717,5.3717,5.3748,5.3177,5.2874,5.3242,5.3156,5.2414,5.1928,5.208,5.203,5.2029,5.1742,5.159,5.1404,5.1302,5.0947,5.0964,5.1217,4.9267,5.0133,5.0405,5.0862,5.1455,5.2215,5.252,5.2655,5.323,5.3501,5.3281,5.279,5.2536,5.2486,5.1758,5.036,4.8486,4.7509,4.5753,4.3784,4.3618,4.3439,4.3543,4.3968,4.4564,4.5911,4.7351,4.7951,4.8487,4.8883,4.9018,4.9018,4.9052,4.9086,4.9171,4.9712,5.0404,5.071,5.1501,5.2622,5.3335,5.436,5.5441,5.6551,5.7601,5.7856,5.7978,5.7978,5.7978,5.7978,5.7932,5.789,5.7696,5.7382,5.7154,5.6997,5.6742,5.6509,5.6509,5.6522,5.6549,5.6469,5.6091,5.5934,5.5851,5.5865,5.6196,5.6786,5.7216,5.7582,5.7696,5.7932,5.7978,5.7978,5.7978,5.7978,5.7978,5.7978,5.7978,5.7978,5.7978,5.7978,5.7978,5.7978,5.7978,5.7978,5.7978,5.7955,5.772,5.7166,5.6518,5.584,5.5176,5.4484,5.3668,5.3551,5.3568,5.3517,5.3467,5.3264,5.3196,5.3348,5.3112,5.2672,5.279,5.3027,5.2909,5.2587,5.2757,5.2621,5.2266,5.1995,5.1556,5.1302,5.1471]}]]